[[{"header":{"parameterUnit":"m.s-1","parameterCategory":1,"la1":30.6,"la2":28.766,"lo1":-90.7593,"lo2":-88.6598,"dx":0.0162,"dy":0.0183,"nx":116,"ny":114,"refTime":"2022-11-16T18:00:00:Z","depth":0,"parameterNumber":2,"parameterNumberName":"U-component_of_WINDS"},"data":[0.0,0.0,0.0,0.0,0.0,0.0,0.0,0.0,0.0,0.0,0.0,0.0,0.0,0.0,0.0,0.0,0.0,0.0,0.0,0.0,0.0,0.0,0.0,0.0,0.0,0.0,0.0,0.0,0.0,0.0,0.0,0.0,0.0,0.0,0.0,0.0,0.0,0.0,0.0,0.0,0.0,0.0,0.0,0.0,0.0,0.0,0.0,0.0,0.0,0.0,0.0,0.0,0.0,0.0,0.0,0.0,0.0,0.0,0.0,0.0,0.0,0.0,0.0,0.0,0.0,0.0,0.0,0.0,0.0,0.0,0.0,0.0,0.0,0.0,0.0,0.0,0.0,0.0,0.0,0.0,0.0,0.0,0.0,0.0,0.0,0.0,0.0,0.0,0.0,0.0,0.0,0.0,0.0,0.0,0.0,0.0,0.0,0.0,0.0,0.0,0.0,0.0,0.0,0.0,0.0,0.0,0.0,0.0,0.0,0.0,0.0,0.0,0.0,0.0,0.0,0.0,0.0,0.0,0.0,0.0,0.0,0.0,0.0,0.0,0.0,0.0,0.0,0.0,0.0,0.0,0.0,0.0,0.0,0.0,0.0,0.0,0.0,0.0,0.0,0.0,0.0,0.0,0.0,0.0,0.0,0.0,0.0,0.0,0.0,0.0,0.0,0.0,0.0,0.0,0.0,0.0,0.0,0.0,0.0,0.0,0.0,0.0,0.0,0.0,0.0,0.0,0.0,0.0,0.0,0.0,0.0,0.0,0.0,0.0,0.0,0.0,0.0,0.0,0.0,0.0,0.0,0.0,0.0,0.0,0.0,0.0,0.0,0.0,0.0,0.0,0.0,0.0,0.0,0.0,0.0,0.0,0.0,0.0,0.0,0.0,0.0,0.0,0.0,0.0,0.0,0.0,0.0,0.0,0.0,0.0,0.0,0.0,0.0,0.0,0.0,0.0,0.0,0.0,0.0,0.0,0.0,0.0,0.0,0.0,0.0,0.0,0.0,0.0,0.0,0.0,0.0,0.0,0.0,0.0,0.0,0.0,0.0,0.0,0.0,0.0,0.0,0.0,0.0,0.0,0.0,0.0,0.0,0.0,0.0,0.0,0.0,0.0,0.0,0.0,0.0,0.0,0.0,0.0,0.0,0.0,0.0,0.0,0.0,0.0,0.0,0.0,0.0,0.0,0.0,0.0,0.0,0.0,0.0,0.0,0.0,0.0,0.0,0.0,0.0,0.0,0.0,0.0,0.0,0.0,0.0,0.0,0.0,0.0,0.0,0.0,0.0,0.0,0.0,0.0,0.0,0.0,0.0,0.0,0.0,0.0,0.0,0.0,0.0,0.0,0.0,0.0,0.0,0.0,0.0,0.0,0.0,0.0,0.0,0.0,0.0,0.0,0.0,0.0,0.0,0.0,0.0,0.0,0.0,0.0,0.0,0.0,0.0,0.0,0.0,0.0,0.0,0.0,0.0,0.0,0.0,0.0,0.0,0.0,0.0,0.0,0.0,0.0,0.0,0.0,0.0,0.0,0.0,0.0,0.0,0.0,0.0,0.0,0.0,0.0,0.0,0.0,0.0,0.0,0.0,0.0,0.0,0.0,0.0,0.0,0.0,0.0,0.0,0.0,0.0,0.0,0.0,0.0,0.0,0.0,0.0,0.0,0.0,0.0,0.0,0.0,0.0,0.0,0.0,0.0,0.0,0.0,0.0,0.0,0.0,0.0,0.0,0.0,0.0,0.0,0.0,0.0,0.0,0.0,0.0,0.0,0.0,0.0,0.0,0.0,0.0,0.0,0.0,0.0,0.0,0.0,0.0,0.0,0.0,0.0,0.0,0.0,0.0,0.0,0.0,0.0,0.0,0.0,0.0,0.0,0.0,0.0,0.0,0.0,0.0,0.0,0.0,0.0,0.0,0.0,0.0,0.0,0.0,0.0,0.0,0.0,0.0,0.0,0.0,0.0,0.0,0.0,0.0,0.0,0.0,0.0,0.0,0.0,0.0,0.0,0.0,0.0,0.0,0.0,0.0,0.0,0.0,0.0,0.0,0.0,0.0,0.0,0.0,0.0,0.0,0.0,0.0,0.0,0.0,0.0,0.0,0.0,0.0,0.0,0.0,0.0,0.0,0.0,0.0,0.0,0.0,0.0,0.0,0.0,0.0,0.0,0.0,0.0,0.0,0.0,0.0,0.0,0.0,0.0,0.0,0.0,0.0,0.0,0.0,0.0,0.0,0.0,0.0,0.0,0.0,0.0,0.0,0.0,0.0,0.0,0.0,0.0,0.0,0.0,0.0,0.0,0.0,0.0,0.0,0.0,0.0,0.0,0.0,0.0,0.0,0.0,0.0,0.0,0.0,0.0,0.0,0.0,0.0,0.0,0.0,0.0,0.0,0.0,0.0,0.0,0.0,0.0,0.0,0.0,0.0,0.0,0.0,0.0,0.0,0.0,0.0,0.0,0.0,0.0,0.0,0.0,0.0,0.0,0.0,0.0,0.0,0.0,0.0,0.0,0.0,0.0,0.0,0.0,0.0,0.0,0.0,0.0,0.0,0.0,0.0,0.0,0.0,0.0,0.0,0.0,0.0,0.0,0.0,0.0,0.0,0.0,0.0,0.0,0.0,0.0,0.0,0.0,0.0,0.0,0.0,0.0,0.0,0.0,0.0,0.0,0.0,0.0,0.0,0.0,0.0,0.0,0.0,0.0,0.0,0.0,0.0,0.0,0.0,0.0,0.0,0.0,0.0,0.0,0.0,0.0,0.0,0.0,0.0,0.0,0.0,0.0,0.0,0.0,0.0,0.0,0.0,0.0,0.0,0.0,0.0,0.0,0.0,0.0,0.0,0.0,0.0,0.0,0.0,0.0,0.0,0.0,0.0,0.0,0.0,0.0,0.0,0.0,0.0,0.0,0.0,0.0,0.0,0.0,0.0,0.0,0.0,0.0,0.0,0.0,0.0,0.0,0.0,0.0,0.0,0.0,0.0,0.0,0.0,0.0,0.0,0.0,0.0,0.0,0.0,0.0,0.0,0.0,0.0,0.0,0.0,0.0,0.0,0.0,0.0,0.0,0.0,0.0,0.0,0.0,0.0,0.0,0.0,0.0,0.0,0.0,0.0,0.0,0.0,0.0,0.0,0.0,0.0,0.0,0.0,0.0,0.0,0.0,0.0,0.0,0.0,0.0,0.0,0.0,0.0,0.0,0.0,0.0,0.0,0.0,0.0,0.0,0.0,0.0,0.0,0.0,0.0,0.0,0.0,0.0,0.0,0.0,0.0,0.0,0.0,0.0,0.0,0.0,0.0,0.0,0.0,0.0,0.0,0.0,0.0,0.0,0.0,0.0,0.0,0.0,0.0,0.0,0.0,0.0,0.0,0.0,0.0,0.0,0.0,0.0,0.0,0.0,0.0,0.0,0.0,0.0,0.0,0.0,0.0,0.0,0.0,0.0,0.0,0.0,0.0,0.0,0.0,0.0,0.0,0.0,0.0,0.0,0.0,0.0,0.0,0.0,0.0,0.0,0.0,0.0,0.0,0.0,0.0,0.0,0.0,0.0,0.0,0.0,0.0,0.0,0.0,0.0,0.0,0.0,0.0,0.0,0.0,0.0,0.0,0.0,0.0,0.0,0.0,0.0,0.0,0.0,0.0,0.0,0.0,0.0,0.0,0.0,0.0,0.0,0.0,0.0,0.0,0.0,0.0,0.0,0.0,0.0,0.0,0.0,0.0,0.0,0.0,0.0,0.0,0.0,0.0,0.0,0.0,0.0,0.0,0.0,0.0,0.0,0.0,0.0,0.0,0.0,0.0,0.0,0.0,0.0,0.0,0.0,0.0,0.0,0.0,0.0,0.0,0.0,0.0,0.0,0.0,0.0,0.0,0.0,0.0,0.0,0.0,0.0,0.0,0.0,0.0,0.0,0.0,0.0,0.0,0.0,0.0,0.0,0.0,0.0,0.0,0.0,0.0,0.0,0.0,0.0,0.0,0.0,0.0,0.0,0.0,0.0,0.0,0.0,0.0,0.0,0.0,0.0,0.0,0.0,0.0,0.0,0.0,0.0,0.0,0.0,0.0,0.0,0.0,0.0,0.0,0.0,0.0,0.0,0.0,0.0,0.0,0.0,0.0,0.0,0.0,0.0,0.0,0.0,0.0,0.0,0.0,0.0,0.0,0.0,0.0,0.0,0.0,0.0,0.0,0.0,0.0,0.0,0.0,0.0,0.0,0.0,0.0,0.0,0.0,0.0,0.0,0.0,0.0,0.0,0.0,0.0,0.0,0.0,0.0,0.0,0.0,0.0,0.0,0.0,0.0,0.0,0.0,0.0,0.0,0.0,0.0,0.0,0.0,0.0,0.0,0.0,0.0,0.0,0.0,0.0,0.0,0.0,0.0,0.0,0.0,0.0,0.0,0.0,0.0,0.0,0.0,0.0,0.0,0.0,0.0,0.0,0.0,0.0,0.0,0.0,0.0,0.0,0.0,0.0,0.0,0.0,0.0,0.0,0.0,0.0,0.0,0.0,0.0,0.0,0.0,0.0,0.0,0.0,0.0,0.0,0.0,0.0,0.0,0.0,0.0,0.0,0.0,0.0,0.0,0.0,0.0,0.0,0.0,0.0,0.0,0.0,0.0,0.0,0.0,0.0,0.0,0.0,0.0,0.0,0.0,0.0,0.0,0.0,0.0,0.0,0.0,0.0,0.0,0.0,0.0,0.0,0.0,0.0,0.0,0.0,0.0,0.0,0.0,0.0,0.0,0.0,0.0,0.0,0.0,0.0,0.0,0.0,0.0,0.0,0.0,0.0,0.0,0.0,0.0,0.0,0.0,0.0,0.0,0.0,0.0,0.0,0.0,0.0,0.0,0.0,0.0,0.0,0.0,0.0,0.0,0.0,0.0,0.0,0.0,0.0,0.0,0.0,0.0,0.0,0.0,0.0,0.0,0.0,0.0,0.0,0.0,0.0,0.0,0.0,0.0,0.0,0.0,0.0,0.0,0.0,0.0,0.0,0.0,0.0,0.0,0.0,0.0,0.0,0.0,0.0,0.0,0.0,0.0,0.0,0.0,0.0,0.0,0.0,0.0,0.0,0.0,0.0,0.0,0.0,0.0,0.0,0.0,0.0,0.0,0.0,0.0,0.0,0.0,0.0,0.0,0.0,0.0,0.0,0.0,0.0,0.0,0.0,0.0,0.0,0.0,0.0,0.0,0.0,0.0,0.0,0.0,0.0,0.0,0.0,0.0,0.0,0.0,0.0,0.0,0.0,0.0,0.0,0.0,0.0,0.0,0.0,0.0,0.0,0.0,0.0,0.0,0.0,0.0,0.0,0.0,0.0,0.0,0.0,0.0,0.0,0.0,0.0,0.0,0.0,0.0,0.0,0.0,0.0,0.0,0.0,0.0,0.0,0.0,0.0,0.0,0.0,0.0,0.0,0.0,0.0,0.0,0.0,0.0,0.0,0.0,0.0,0.0,0.0,0.0,0.0,0.0,0.0,0.0,0.0,0.0,0.0,0.0,0.0,0.0,0.0,0.0,0.0,0.0,0.0,0.0,0.0,0.0,0.0,0.0,0.0,0.0,0.0,0.0,0.0,0.0,0.0,0.0,0.0,0.0,0.0,0.0,0.0,0.0,0.0,0.0,0.0,0.0,0.0,0.0,0.0,0.0,0.0,0.0,0.0,0.0,0.0,0.0,0.0,0.0,0.0,0.0,0.0,0.0,0.0,0.0,0.0,0.0,0.0,0.0,0.0,0.0,0.0,0.0,0.0,0.0,0.0,0.0,0.0,0.0,0.0,0.0,0.0,0.0,0.0,0.0,0.0,0.0,0.0,0.0,0.0,0.0,0.0,0.0,0.0,0.0,0.0,0.0,0.0,0.0,0.0,0.0,0.0,0.0,0.0,0.0,0.0,0.0,0.0,0.0,0.0,0.0,0.0,0.0,0.0,0.0,0.0,0.0,0.0,0.0,0.0,0.0,0.0,0.0,0.0,0.0,0.0,0.0,0.0,0.0,0.0,0.0,0.0,0.0,0.0,0.0,0.0,0.0,0.0,0.0,0.0,0.0,0.0,0.0,0.0,0.0,0.0,0.0,0.0,0.0,0.0,2.7692,2.3071,0.0,0.0,0.0,0.0,0.0,0.0,0.0,0.0,0.0,0.0,0.0,0.0,0.0,0.0,0.0,0.0,0.0,0.0,0.0,0.0,0.0,0.0,0.0,1.0369,1.0588,1.113,1.0821,0.0,0.0,0.0,0.0,0.0,0.0,0.0,0.9371,0.9285,0.9784,1.0919,1.2265,1.4659,1.7958,1.6375,1.4473,1.2347,0.0,0.0,0.0,0.0,0.0,0.0,0.0,0.0,0.0,0.0,0.0,0.0,0.0,0.0,0.0,0.0,0.0,0.0,0.0,0.0,0.0,0.0,0.0,0.0,0.0,0.0,0.0,0.0,0.0,0.0,0.0,0.0,0.0,0.0,0.0,0.0,0.0,0.0,0.0,0.0,0.0,0.0,0.0,0.0,0.0,0.0,0.0,0.0,0.0,0.0,0.0,0.0,0.0,0.0,0.0,0.0,0.0,0.0,0.0,0.0,0.0,0.0,0.0,0.0,0.0,0.0,0.0,0.0,0.0,0.0,3.0462,2.8368,0.0,0.0,0.0,0.0,0.0,0.0,0.0,0.0,0.0,0.0,0.0,0.0,0.0,0.0,0.0,0.0,0.0,0.0,0.0,0.0,0.0,1.0144,1.0684,1.1149,1.1632,1.2155,1.1959,1.1848,1.1891,1.1162,0.0,0.0,0.0,0.0,1.048,1.09,1.202,1.3881,1.7014,2.0166,2.3339,2.3747,2.1584,1.7267,1.6076,0.0,0.0,0.0,0.0,0.0,0.0,0.0,0.0,0.0,0.0,0.0,0.0,0.0,0.0,0.0,0.0,0.0,0.0,0.0,0.0,0.0,0.0,0.0,0.0,0.0,0.0,0.0,0.0,0.0,0.0,0.0,0.0,0.0,0.0,0.0,0.0,0.0,0.0,0.0,0.0,0.0,0.0,0.0,0.0,0.0,0.0,0.0,0.0,0.0,0.0,0.0,0.0,0.0,0.0,0.0,0.0,0.0,0.0,0.0,0.0,0.0,0.0,0.0,3.3633,3.3842,3.3723,3.3723,3.4935,3.6866,3.3873,3.4711,3.7704,3.118,0.0,0.0,0.0,0.0,0.0,0.0,0.0,0.0,0.0,0.0,0.0,0.0,0.0,0.0,0.0,0.0,0.0,0.0,0.0,1.1207,1.1966,1.2025,1.2252,1.2895,1.203,1.147,1.1485,1.1045,0.0,0.0,0.0,1.0514,1.0733,1.1257,1.3324,1.7004,2.3198,2.6646,2.7459,2.84,2.8076,2.6487,2.2835,2.0601,1.9396,0.0,0.0,0.0,0.0,0.0,0.0,0.0,0.0,0.0,0.0,0.0,0.0,0.0,0.0,0.0,0.0,0.0,0.0,0.0,0.0,0.0,0.0,0.0,0.0,0.0,0.0,0.0,0.0,0.0,0.0,0.0,0.0,0.0,0.0,0.0,0.0,0.0,0.0,0.0,0.0,0.0,2.7725,2.9306,0.0,0.0,0.0,0.0,0.0,0.0,0.0,0.0,0.0,0.0,0.0,0.0,0.0,3.3005,3.3845,3.7434,3.923,3.926,4.2132,4.318,4.2622,4.2622,4.2801,4.304,4.1493,0.0,3.7464,3.6417,0.0,0.0,0.0,0.0,0.0,0.0,0.0,0.0,0.0,0.0,0.0,0.0,0.0,0.0,0.0,0.0,0.0,0.0,0.0,0.0,0.0,1.4757,1.6185,1.7013,1.7847,1.7522,1.5672,1.4718,0.0,0.0,1.1262,1.1313,1.1474,1.2987,1.6717,2.2651,2.7618,3.0675,3.185,3.2335,3.2331,3.1859,2.9752,2.6712,2.3083,2.1713,0.0,0.0,0.0,0.0,0.0,0.0,0.0,0.0,0.0,0.0,0.0,0.0,0.0,0.0,0.0,0.0,0.0,0.0,0.0,0.0,0.0,0.0,0.0,0.0,0.0,0.0,0.0,0.0,0.0,0.0,0.0,0.0,0.0,0.0,0.0,0.0,0.0,0.0,0.0,2.5831,2.8094,3.0378,2.8609,2.6385,0.0,0.0,0.0,0.0,0.0,0.0,0.0,0.0,0.0,3.5429,3.665,3.7842,3.9039,4.1672,4.293,4.2908,4.4613,4.5124,4.4574,4.4574,4.4752,4.4997,4.4433,4.3715,4.2731,3.975,3.7716,3.6221,0.0,0.0,0.0,0.0,3.2811,3.4113,0.0,0.0,0.0,0.0,0.0,0.0,0.0,0.0,0.0,0.0,0.0,0.0,1.4978,1.8119,2.0433,2.1099,2.2796,2.2546,1.9525,1.8077,1.5971,1.2947,1.2329,1.2202,1.251,1.6204,2.123,2.7612,3.1057,3.3469,3.4831,3.49,3.4923,3.4921,3.468,3.1789,2.7054,2.5786,2.3577,2.0701,0.0,0.0,0.0,0.0,0.0,0.0,0.0,0.0,0.0,0.0,0.0,0.0,0.0,0.0,0.0,0.0,0.0,0.0,0.0,0.0,0.0,0.0,0.0,0.0,0.0,0.0,0.0,0.0,0.0,0.0,0.0,0.0,0.0,0.0,0.0,0.0,0.0,2.8054,2.9911,3.2339,3.1224,2.9432,0.0,0.0,0.0,0.0,0.0,0.0,3.5707,3.6259,3.7655,4.0062,4.1329,4.2494,4.3625,4.4857,4.5478,4.5537,4.5749,4.5726,4.5544,4.5544,4.5768,4.6153,4.6153,4.6616,4.7087,4.3061,4.1534,4.1384,3.8763,3.7255,3.66,3.7255,3.8153,3.926,0.0,0.0,0.0,0.0,0.0,0.0,0.0,0.0,0.0,0.0,0.0,1.8568,1.8806,2.1832,2.3828,2.3816,2.402,2.3204,2.0958,1.9351,1.7299,1.4602,1.3181,1.2914,1.3878,2.1297,2.6899,3.0386,3.352,3.5089,3.5186,3.5451,3.5571,3.5595,3.6068,3.4949,3.2516,2.981,2.767,2.5695,2.0827,0.0,0.0,0.0,0.0,0.0,0.0,0.0,0.0,0.0,0.0,0.0,0.0,0.0,0.0,0.0,0.0,0.0,0.0,0.0,0.0,0.0,0.0,0.0,0.0,0.0,0.0,0.0,0.0,0.0,0.0,0.0,0.0,0.0,0.0,0.0,0.0,0.0,0.0,3.6838,3.8061,0.0,0.0,0.0,0.0,3.3975,3.4537,3.6731,4.0979,4.1227,4.2607,4.561,4.6391,4.6658,4.6488,4.665,4.6998,4.7566,4.7004,4.7033,4.7566,4.7566,4.7566,4.759,4.759,4.7642,4.762,4.7125,4.6172,4.4975,4.4167,4.309,4.2081,4.2681,4.4147,4.6001,0.0,0.0,0.0,1.1274,1.1713,1.2056,1.2049,1.2509,1.3067,1.3678,1.6824,1.927,1.9974,2.464,2.7737,2.7841,2.9917,3.0018,2.7128,2.377,2.1183,1.956,1.6084,1.624,2.0667,2.6459,3.0439,3.2464,3.5332,3.6481,3.599,3.6428,3.6446,3.6121,3.631,3.5977,3.51,3.337,3.1265,2.8925,2.6397,2.2884,0.0,0.0,0.0,0.0,0.0,0.0,0.0,0.0,0.0,0.0,0.0,0.0,0.0,0.0,0.0,0.0,0.0,0.0,0.0,0.0,0.0,0.0,0.0,0.0,0.0,0.0,0.0,0.0,0.0,0.0,0.0,0.0,0.0,0.0,0.0,0.0,0.0,3.7088,3.7992,0.0,3.7008,3.7877,3.8823,3.9582,4.1612,4.3589,4.5441,4.5537,4.5923,4.6848,4.7102,4.7101,4.6894,4.7059,4.7315,4.7705,4.7401,4.7332,4.7431,4.7063,4.7136,4.7648,4.7648,4.8167,4.8972,4.8721,4.7898,4.6841,4.6584,4.6203,4.5852,4.6035,4.6584,4.7281,0.0,0.0,0.0,1.1876,1.228,1.2589,1.2572,1.3252,1.4247,1.5536,1.8821,2.1684,2.3492,2.8053,3.1209,3.1815,3.397,3.3813,3.0369,2.6866,2.3841,2.1428,1.8822,2.0428,2.6857,3.0186,3.2818,3.4848,3.6309,3.6761,3.6247,3.6404,3.6358,3.6131,3.6203,3.6295,3.6355,3.5579,3.4101,3.2093,3.0236,2.6967,2.2964,0.0,0.0,0.0,0.0,0.0,0.0,0.0,0.0,0.0,0.0,0.0,0.0,0.0,0.0,0.0,0.0,0.0,0.0,0.0,0.0,0.0,0.0,0.0,0.0,0.0,0.0,0.0,0.0,0.0,0.0,0.0,0.0,0.0,0.0,3.257,3.5756,3.7907,3.9469,4.03,4.0147,4.1703,4.3113,4.4157,4.6003,4.7264,4.773,4.7764,4.776,4.7696,4.7896,4.7742,4.7253,4.7574,4.776,4.7815,4.7747,4.7775,4.7895,4.7481,4.7383,4.7519,4.7917,4.8393,4.8919,4.9146,4.8681,4.7889,4.812,4.8301,4.8373,4.8373,4.8373,4.8373,0.0,0.0,1.2413,1.2413,1.2856,1.3129,1.2922,1.4014,1.5772,1.8287,2.2217,2.6015,2.9247,3.1991,3.4108,3.5386,3.5588,3.4053,3.0194,2.8289,2.5051,1.9991,2.1384,2.5343,3.185,3.246,3.4253,3.7492,3.6464,3.5942,3.5869,3.5381,3.5307,3.5616,3.5815,3.6088,3.6408,3.6383,3.6081,3.5257,3.2068,2.9754,2.7795,0.0,0.0,0.0,0.0,0.0,0.0,0.0,0.0,0.0,0.0,0.0,0.0,0.0,0.0,0.0,0.0,0.0,0.0,0.0,0.0,0.0,0.0,0.0,0.0,0.0,0.0,0.0,0.0,0.0,0.0,0.0,0.0,0.0,3.2078,3.5994,3.9098,3.9668,4.2965,4.4931,4.4275,4.5502,4.6654,4.7286,4.7105,4.7217,4.784,4.784,4.8002,4.8406,4.9003,4.877,4.7669,4.8279,4.8398,4.811,4.8105,4.8452,4.9113,4.9085,4.8433,4.7432,4.8595,4.846,4.7486,4.865,4.878,4.8358,4.9044,4.9428,4.9649,4.9678,4.9678,4.9678,1.2396,1.2705,1.2973,1.2973,1.3098,1.3129,1.2922,1.3426,1.4493,1.6427,2.1146,2.5149,2.7224,3.2333,3.5525,3.5302,3.653,3.6109,3.3241,2.9612,2.6308,2.3414,2.6976,3.0571,3.3864,3.6145,3.7167,3.6928,3.7382,3.7042,3.5918,3.615,3.598,3.5484,3.5765,3.6173,3.6628,3.6456,3.6548,3.6609,3.5326,3.3065,3.0382,0.0,0.0,0.0,0.0,0.0,0.0,0.0,0.0,0.0,0.0,0.0,0.0,0.0,0.0,0.0,0.0,0.0,0.0,0.0,0.0,0.0,0.0,0.0,0.0,0.0,0.0,0.0,0.0,0.0,0.0,0.0,3.3867,3.6201,3.7234,3.9294,4.1325,4.3028,4.4229,4.4823,4.4645,4.5265,4.5751,4.5942,4.6101,4.6467,4.7068,4.6503,4.64,4.6945,4.7134,4.7055,4.6759,4.7673,4.8232,4.8395,4.8349,4.856,4.8945,4.8493,4.8486,4.8831,4.8963,4.9244,4.9527,4.9412,4.9524,4.9749,4.932,4.8938,4.8654,4.9102,4.927,4.9134,1.2689,1.2981,1.3189,1.3155,1.3181,1.3169,1.3071,1.3458,1.4711,1.7472,2.1635,2.5439,2.8331,3.2983,3.5937,3.6039,3.6919,3.6153,3.3003,2.9443,2.7985,2.9172,3.1878,3.448,3.6847,3.831,3.87,3.8013,3.8003,3.7608,3.681,3.6459,3.6056,3.5703,3.5965,3.644,3.7082,3.7072,3.7393,3.7838,3.706,3.515,3.2742,3.2265,3.0502,2.8165,2.7688,2.6992,2.6231,2.5603,0.0,0.0,0.0,0.0,0.0,0.0,0.0,0.0,0.0,0.0,0.0,0.0,0.0,0.0,0.0,0.0,0.0,0.0,0.0,0.0,0.0,0.0,0.0,0.0,3.7074,3.9804,4.134,4.196,4.2841,4.4331,4.471,4.4934,4.506,4.5298,4.5574,4.5949,4.6061,4.6357,4.6945,4.6489,4.6353,4.6726,4.7232,4.7304,4.6884,4.827,4.8863,4.8674,4.8881,4.9094,4.9285,4.8916,4.8806,4.8863,4.9212,4.9364,4.9442,4.9592,4.9772,4.9939,0.0,0.0,0.0,0.0,4.9857,4.9747,1.2931,1.3123,1.3181,1.3103,1.3138,1.3214,1.3283,1.3739,1.5609,1.9923,2.284,2.6295,3.0946,3.3809,3.5868,3.6971,3.6842,3.4958,3.0896,2.8494,2.9585,3.4935,3.5551,3.6952,3.9541,3.9279,3.9191,3.9459,3.8192,3.7658,3.7742,3.6378,3.5831,3.5981,3.616,3.672,3.7481,3.7814,3.8291,3.8767,3.7789,3.6408,3.4853,3.3869,3.2562,3.1115,3.0111,2.9126,2.8316,2.819,0.0,0.0,0.0,0.0,0.0,0.0,0.0,0.0,0.0,0.0,0.0,0.0,0.0,0.0,0.0,0.0,0.0,0.0,0.0,0.0,0.0,0.0,0.0,0.0,3.9935,4.2707,4.4129,4.3805,4.3673,4.4256,4.4668,4.4965,4.512,4.5156,4.5554,4.6329,4.6165,4.6266,4.6872,4.6898,0.0,0.0,0.0,4.8396,4.7571,4.9251,4.9703,4.8902,4.9475,4.9776,4.9776,4.9854,4.9351,4.8517,4.9572,4.9485,4.8711,4.9685,4.9945,4.9785,4.9927,5.037,5.0847,5.0736,5.0792,5.0847,1.1884,1.2613,1.3181,1.3103,1.3025,1.3039,1.3264,1.3311,1.504,1.9864,2.2881,2.6264,3.0709,3.4557,3.6651,3.6282,3.6045,3.4287,3.0466,2.8704,2.9385,3.2921,3.5025,3.6679,3.7854,3.8937,3.8789,3.7388,3.7459,3.6877,3.5669,3.5924,3.5727,3.5222,3.5628,3.616,3.675,3.7349,3.7946,3.8489,3.854,3.7838,3.6658,3.6004,3.5552,3.5251,3.5024,3.4798,3.4497,3.3596,3.2315,3.0959,3.008,2.8273,0.0,0.0,0.0,0.0,0.0,0.0,0.0,0.0,0.0,0.0,0.0,0.0,0.0,0.0,0.0,0.0,0.0,0.0,0.0,4.0241,4.1827,4.307,4.3729,4.3402,4.3289,4.3782,4.4174,4.4187,4.3532,4.3468,4.3543,4.3725,4.3698,4.4099,4.5033,4.5084,4.5516,4.643,4.7115,4.7379,4.7197,4.8463,4.902,4.8832,4.9381,0.0,4.9672,5.0095,5.0447,5.0787,5.1221,5.1588,5.1904,5.184,5.1943,5.1996,5.0479,5.0286,5.0693,4.9773,5.0023,5.0693,1.1615,1.2463,1.3146,1.2981,1.2904,1.3013,1.3384,1.3237,1.4527,1.8532,2.1247,2.4329,2.8296,3.0977,3.2575,3.2827,3.2371,3.1862,3.1325,3.1239,3.2292,3.4805,3.6353,3.7251,3.7443,3.7991,3.7934,3.7234,3.7149,3.695,3.6649,3.6621,3.6471,3.6216,3.6646,3.7115,3.7582,3.8056,3.8857,3.9756,3.9422,3.9089,3.8743,3.7613,3.721,3.721,3.721,3.721,3.711,3.6558,3.5805,3.5027,3.4474,3.2771,3.0477,0.0,0.0,0.0,0.0,0.0,0.0,0.0,0.0,0.0,0.0,0.0,0.0,0.0,0.0,3.5596,3.6531,0.0,4.0261,4.126,4.2316,4.3055,4.3327,4.3146,4.3083,4.3329,4.3532,4.3489,4.3042,4.3014,4.3212,4.3765,4.379,4.4292,4.5367,4.5443,4.5693,4.6301,4.7074,4.7657,4.7958,4.9038,4.9741,5.0074,5.0318,5.0444,5.0444,5.072,5.1043,5.1339,5.1511,5.1745,5.2042,5.2042,5.2141,5.2217,5.1407,5.1485,5.2001,5.1402,5.1574,5.197,1.1615,1.2455,1.3103,1.2876,1.2835,1.3029,1.3542,1.3314,1.4258,1.749,1.961,2.2119,2.5589,2.6861,2.7792,2.8602,2.8292,2.9037,3.1359,3.3069,3.4718,3.6346,3.734,3.7585,3.697,3.6981,3.7097,3.7366,3.692,3.7009,3.7657,3.7171,3.7051,3.724,3.7599,3.8008,3.8418,3.8836,3.975,4.0898,4.0207,4.0294,4.0676,3.922,3.8442,3.8165,3.804,3.8015,3.8015,3.8015,3.8015,3.8015,3.8015,3.6784,3.4728,3.1662,3.0683,0.0,0.0,0.0,0.0,0.0,0.0,0.0,0.0,3.2523,3.3647,3.5936,3.7574,3.8765,3.9346,4.0682,4.1769,4.1932,4.271,4.3263,4.319,4.3165,4.319,4.3316,4.324,4.3165,4.3165,4.3266,4.3664,4.4514,4.4589,4.5041,4.61,4.625,4.6401,4.6602,4.7556,4.841,4.912,4.9967,5.072,5.1306,5.1172,5.1122,5.1122,5.1255,5.1306,5.1331,5.1498,5.1599,5.1632,5.1908,5.2008,5.2041,5.2307,5.2737,5.3204,5.3134,5.3121,5.3121,1.1615,1.2414,1.306,1.2904,1.2815,1.2929,1.3593,1.3346,1.4541,1.8501,1.9659,2.1209,2.4131,2.5536,2.5922,2.5066,2.5884,2.6887,2.791,3.0787,3.2695,3.3298,3.564,3.6331,3.5046,3.6196,3.6587,3.6198,3.6524,3.6361,3.5712,3.6228,3.6524,3.6623,3.6835,3.7226,3.7772,3.8632,3.9433,4.019,4.0794,4.1409,4.1934,4.1202,4.0049,3.8743,3.8191,3.8015,3.8015,3.8015,3.8015,3.8015,3.8015,3.7839,3.7186,3.4828,3.38,3.2591,2.8624,2.6783,2.6927,3.0843,3.1829,3.304,0.0,3.9421,4.0376,4.1207,4.3067,4.4551,4.4647,4.4823,4.4798,4.4288,4.4338,4.4238,4.379,4.3714,4.389,4.4364,4.4016,4.3714,4.3714,4.4141,4.4464,4.4589,4.4589,4.4865,4.5547,4.605,4.6753,4.7707,4.8366,4.9188,5.0218,5.0336,5.072,5.1306,5.077,5.0519,5.0519,5.1046,5.1306,5.1348,5.2327,5.2719,5.2694,5.2788,5.2763,5.2763,5.2822,5.2866,5.2901,5.2557,5.2404,5.2404,1.1615,1.2406,1.306,1.2913,1.272,1.2742,1.3207,1.3217,1.4049,1.6554,1.7484,1.8864,2.1362,2.1803,2.137,1.997,2.2609,2.4851,2.6115,2.9647,3.2064,3.2777,3.3858,3.4443,3.4349,3.4935,3.5231,3.5254,3.5703,3.5978,3.6004,3.7174,3.7835,3.7965,3.836,3.8636,3.8776,3.9277,3.9923,4.0697,4.1435,4.2106,4.2637,4.2384,4.1683,4.0552,3.8668,3.8015,0.0,3.7638,3.7739,3.8115,3.8793,3.8542,3.7638,3.5732,3.5004,3.4703,3.4025,3.3345,3.342,3.5931,3.7287,3.8567,4.0678,4.1731,4.2635,4.3869,4.5095,4.5974,4.5974,4.5698,4.5422,4.5171,4.4844,4.4514,4.4317,4.4568,4.4869,4.5095,4.5196,4.4995,4.4313,4.4794,4.5121,4.5121,4.5422,4.5849,4.6396,4.6954,4.7456,4.7883,4.8492,4.9195,4.9941,5.0235,5.072,5.1306,5.1046,5.0921,5.0946,5.1498,5.2101,5.2703,5.3181,5.3557,5.3884,5.3884,5.3884,5.3884,5.3884,5.3884,5.3793,5.2935,5.2633,5.2633,1.1615,1.2381,1.3025,1.2981,1.2703,1.2602,1.2961,1.3171,1.3712,1.4782,1.5681,1.6815,1.8344,1.7993,1.7269,1.6302,1.9821,2.2889,2.4743,2.8525,3.124,3.2374,3.2676,3.3086,3.3743,3.3977,3.4251,3.4531,3.498,3.5461,3.597,3.7349,3.8031,3.8061,3.8962,3.9233,3.9039,3.943,4.0087,4.0857,4.1422,4.2109,4.2763,4.2585,4.211,4.1205,3.9019,3.804,3.7588,3.6457,3.6609,3.7387,3.7764,3.7739,3.7312,3.5909,3.5182,3.5205,3.6861,3.7187,3.7638,3.9848,4.1406,4.2562,4.319,4.3642,4.4242,4.5472,4.6024,4.6351,4.6471,4.6075,4.5723,4.5723,4.5372,4.5066,4.5066,4.5447,4.5773,4.5924,4.6301,4.6195,4.5367,4.5668,4.5949,4.5949,4.6451,4.6898,4.7299,4.7707,4.7983,4.8134,4.8592,4.9145,4.9816,5.0368,5.0946,5.1498,5.1498,5.1498,5.1523,5.1925,5.2779,5.3934,5.3758,5.4034,5.4597,5.4597,5.4597,5.4597,5.4597,5.4597,5.4496,5.3658,5.3381,5.3381,1.1615,1.2324,1.2964,1.3068,1.2756,1.2602,1.2961,1.3331,1.3724,1.4177,1.5153,1.567,1.5277,1.4836,1.4732,1.5197,1.8045,2.0935,2.3677,2.7057,2.9755,3.1455,3.2363,3.2812,3.2832,3.3684,3.4114,3.4114,3.4512,3.4726,3.4773,3.5803,3.6044,3.569,3.744,3.8,3.7632,3.8676,3.9471,4.005,4.0324,4.1136,4.216,4.1553,4.07,3.9697,3.9095,3.8165,3.6808,3.412,3.4274,3.533,3.3771,3.4751,3.6309,3.5683,3.4377,3.352,3.5155,3.5205,3.5981,4.0879,4.2537,4.3542,4.5698,4.62,4.6225,4.6276,4.6301,4.6446,4.6973,4.6622,4.6276,4.6276,4.6276,4.625,4.625,4.6276,4.6476,4.6998,4.7074,4.7074,4.7023,4.7048,4.7048,4.7048,4.7525,4.7857,4.7883,4.7908,4.8159,4.8768,4.8793,4.9321,5.0393,5.0971,5.1523,5.2076,5.2076,5.2076,5.2076,5.2101,5.3005,5.4547,5.3934,5.4034,5.4597,5.4597,5.4597,5.4597,5.4597,5.4597,5.4597,5.4572,5.4547,5.4547,1.1658,1.2373,1.3042,1.3086,1.2885,1.274,1.286,1.3459,1.3944,1.3977,1.4629,0.0,0.0,0.0,0.0,0.0,1.6362,1.8733,2.1486,2.4336,2.7064,2.9659,3.1142,3.2207,3.2793,3.3359,3.3633,3.3633,3.3789,3.3848,3.3848,3.4929,3.5738,3.6387,3.7367,3.817,3.8799,3.9415,3.9809,4.0056,4.0735,4.1041,4.1078,4.1252,3.9722,3.7336,0.0,3.4851,3.3646,3.1989,3.2269,3.3398,3.3975,3.4173,3.4022,3.3068,3.3674,3.4979,3.6282,3.8115,4.025,4.2663,4.4217,4.5372,4.6125,4.6301,4.6301,4.6301,4.5723,4.5217,4.5417,4.4991,4.4895,4.5648,4.5447,4.5668,4.7179,4.6451,4.6225,4.7475,4.7299,4.7249,4.7575,4.7626,4.7626,4.7626,4.8159,4.8517,4.8517,4.8837,4.9113,4.9314,4.9665,5.0042,5.0386,5.1348,5.1724,5.1548,5.1548,5.195,5.2619,5.2619,5.3557,5.5125,5.4913,5.5139,5.5666,5.5666,5.5666,5.5666,5.5666,5.5666,5.5666,5.5666,5.5666,5.5541,1.1952,1.2531,1.3094,1.3094,1.2955,0.0,0.0,0.0,0.0,0.0,0.0,0.0,0.0,0.0,0.0,0.0,0.0,1.7042,1.9706,2.1855,2.4316,2.7162,2.8352,2.9367,3.0254,3.0684,3.1181,3.1786,3.2079,3.2519,3.3,3.4033,3.4961,3.5797,3.6772,3.7697,3.8526,3.9062,3.9406,3.9506,3.9103,3.8912,3.8811,3.7915,3.6055,0.0,3.1959,3.0708,2.9754,2.9051,2.9785,3.114,3.1838,3.224,3.2537,3.2792,3.4126,3.6009,3.8341,4.0552,4.2587,4.4267,4.5497,4.6301,4.6301,4.6446,4.6572,4.6572,4.5844,4.5192,4.5192,4.4769,4.4719,4.5623,4.5799,4.6351,4.7983,4.7481,4.728,4.8109,4.8109,4.8058,4.8209,4.8385,4.8435,4.8234,4.8736,4.9095,4.9095,4.9414,4.969,4.9891,5.0243,5.0486,5.072,5.185,5.2427,5.2486,5.2486,5.2929,5.3808,5.3607,5.431,5.5666,5.5465,5.5691,5.6219,5.6219,5.6219,5.6219,5.6219,5.6219,5.6219,5.6219,5.6219,5.6118,1.2421,1.278,1.3103,0.0,0.0,0.0,0.0,0.0,0.0,0.0,0.0,0.0,0.0,0.0,0.0,0.0,0.0,0.0,1.8247,1.9687,2.1583,2.4059,2.4293,2.4762,2.5596,2.6113,2.7148,2.8723,2.957,3.0605,3.1896,3.2783,3.3355,3.3667,3.532,3.6258,3.6622,3.7322,3.7901,3.8146,3.5549,3.4964,3.5308,3.2093,3.0187,2.9007,2.7367,2.6231,2.5536,2.5611,2.72,2.9007,2.8122,2.9648,3.224,3.4828,3.5708,3.6786,4.1004,4.2288,4.3039,4.5673,4.6351,4.6351,4.6376,4.6772,4.7124,4.6998,4.6522,4.61,4.5949,4.5522,4.5422,4.6075,4.7029,4.7958,4.8693,4.9163,4.9289,4.8818,4.9238,4.9389,4.8894,4.9314,4.9414,4.8894,4.9289,4.959,4.959,4.9615,4.9866,5.0361,5.0436,5.077,5.1356,5.2427,5.3507,5.4597,5.4597,5.4898,5.5365,5.4873,5.5225,5.6168,5.5666,5.5717,5.6219,5.6219,5.6219,5.6219,5.6219,5.6219,5.6219,5.6219,5.6219,5.6219,0.0,0.0,0.0,0.0,0.0,0.0,0.0,0.0,0.0,0.0,0.0,0.0,0.0,0.0,0.0,0.0,0.0,0.0,1.5684,1.7578,1.9375,2.0976,2.291,2.4199,2.4723,2.5484,2.6089,2.6518,2.6752,2.7025,2.7357,2.7596,2.8319,2.9367,2.9813,3.083,3.2222,3.2252,3.2441,3.2629,3.1949,3.138,3.0976,3.0465,2.887,2.6844,2.6656,2.5636,2.4607,2.5854,2.9095,3.2943,3.47,3.5755,3.6383,3.6684,3.8542,4.0652,4.1354,4.3363,4.5522,4.6622,4.6898,4.6998,4.7405,4.7606,4.7224,4.5568,4.4493,4.324,4.118,4.0978,4.1882,4.4091,4.4669,4.5773,4.8441,4.8184,4.7826,4.8109,4.8987,4.954,4.9389,4.9891,4.9967,4.9439,4.9515,4.959,4.959,4.9992,5.0268,5.0419,5.1222,5.1749,5.19,5.298,5.3858,5.4597,5.4597,5.4898,5.539,5.5239,5.5541,5.6194,5.6068,5.6068,5.6219,5.6219,5.6219,5.6219,5.6219,5.6219,5.6219,5.6219,5.6219,5.6219,0.0,0.0,0.0,0.0,0.0,0.0,0.0,0.0,0.0,0.0,0.0,0.0,0.0,0.0,0.0,0.0,0.0,0.0,0.0,1.5513,1.6859,1.8181,1.9434,2.0488,2.1309,2.1816,2.2596,2.3725,2.3725,2.4284,2.5346,2.4812,2.5401,2.6922,2.7001,2.8005,2.9642,2.9606,2.9707,0.0,0.0,2.8084,2.766,2.697,2.5831,2.4637,2.5029,2.5444,2.6314,2.9698,3.221,3.4474,3.7713,3.8592,3.8617,3.9747,4.1255,4.2688,4.331,4.4865,4.6451,4.6973,4.7099,4.6998,4.6547,4.6677,4.615,4.3661,4.2657,4.1555,3.9321,3.9722,4.1153,4.3438,4.4819,4.6426,4.8843,4.8812,4.8554,4.8636,4.9414,5.0067,5.0318,5.0619,5.0569,4.9992,4.9741,4.969,4.9941,5.0243,5.0645,5.1147,5.1774,5.2452,5.3181,5.3783,5.4486,5.529,5.529,5.544,5.5742,5.5742,5.5917,5.6219,5.647,5.6533,5.6559,5.6846,5.6947,5.6947,5.6947,5.6947,5.6947,5.6947,5.6947,5.6947,0.0,0.0,0.0,0.0,0.0,0.0,0.0,0.0,0.0,1.4978,1.4675,1.4216,0.0,0.0,0.0,0.0,0.0,0.0,0.0,0.0,1.4537,1.5694,1.5542,1.5942,1.7106,1.7262,1.8359,2.0508,2.0644,2.1763,2.3797,2.2926,2.3368,2.4893,2.5141,2.6044,2.7386,2.7495,2.7693,2.7707,2.5662,2.4924,2.4904,0.0,2.2567,2.2855,2.3462,2.5534,2.885,3.45,3.5579,3.5253,3.9295,4.0276,4.0426,4.3112,4.3689,4.3815,4.5598,4.62,4.6451,4.7048,4.7199,4.6798,4.5267,4.5221,4.4669,4.1704,4.0976,4.0374,3.8768,3.9848,4.1553,4.3288,4.5824,4.7958,4.9012,4.9891,5.0193,4.9565,5.0117,5.077,5.1348,5.1247,5.1021,5.0637,5.0193,5.0067,5.0361,5.0536,5.1122,5.2176,5.2226,5.2929,5.4471,5.4496,5.5013,5.6093,5.6093,5.6143,5.6219,5.6219,5.6219,5.6244,5.6684,5.6935,5.7035,5.7575,5.7826,5.7901,5.7901,5.7901,5.7901,5.7901,5.7901,5.7901,0.0,0.0,0.0,0.0,0.0,0.0,0.0,0.0,0.0,0.0,1.5868,1.4756,0.0,0.0,0.0,0.0,0.0,0.0,0.0,0.0,0.0,1.3945,1.4869,1.5513,1.5727,1.6449,1.6894,1.6969,1.7712,1.8064,1.8135,1.9034,1.9716,2.0191,2.0623,2.1281,2.2015,2.1665,2.1761,2.2127,2.1927,2.1859,2.1957,2.2464,0.0,0.0,2.4149,2.5812,2.8366,3.4374,3.7136,3.8869,4.3639,4.5095,4.4945,4.4564,4.507,4.5623,4.5041,4.5568,4.6552,4.7531,4.7782,4.7581,4.6823,4.6075,4.4443,4.0727,3.9245,3.8065,3.6409,3.7864,4.0024,4.2135,4.4421,4.6125,4.6778,4.8912,5.0042,4.9069,5.025,5.1348,5.19,5.1122,5.0921,5.1749,5.1724,5.1297,5.0469,5.1297,5.2101,5.2719,5.2744,5.3096,5.3858,5.3858,5.4411,5.5541,5.5541,5.5767,5.6219,5.6219,5.6219,5.6219,5.6319,5.6584,5.701,5.7111,5.7474,5.7901,5.7901,5.7901,5.7901,5.7901,5.7901,5.7901,0.0,0.0,0.0,0.0,0.0,0.0,0.0,1.6346,1.7282,1.9686,1.9131,1.7879,1.6136,1.4557,1.3513,0.0,0.0,0.0,0.0,0.0,0.0,0.0,1.4088,1.4615,1.5078,1.5508,1.6103,1.688,0.0,1.6883,1.7883,1.7595,1.7851,1.8542,1.8873,1.9351,1.9851,1.9812,1.9901,2.0148,2.0818,2.1089,2.1219,2.2361,0.0,0.0,2.4868,2.6465,2.8775,3.2821,3.5705,3.8617,4.4468,4.6301,4.61,4.4916,4.5392,4.6075,4.489,4.5417,4.6577,4.7631,4.7908,4.7305,4.5045,4.3915,4.1982,3.7236,3.6031,3.5454,3.4051,3.6107,3.8743,4.0979,4.4141,4.6728,4.7857,5.0135,5.1423,5.0594,5.1222,5.1825,5.2076,5.1348,5.1222,5.2051,5.185,5.1699,5.1691,5.2503,5.2929,5.2895,5.3482,5.3909,5.4195,5.4436,5.4988,5.5817,5.5817,5.5968,5.6219,5.6219,5.6219,5.6244,5.6846,5.7248,5.7524,5.8077,5.8478,5.873,5.873,5.873,5.873,5.873,5.873,5.873,0.0,0.0,0.0,0.0,0.0,0.0,1.7601,1.8233,1.9407,2.2242,2.2262,2.1073,1.8696,1.6155,1.4339,0.0,0.0,0.0,0.0,0.0,0.0,0.0,0.0,0.0,1.467,0.0,0.0,1.6849,1.6144,0.0,0.0,0.0,0.0,0.0,1.837,1.8693,1.9062,1.9358,1.9465,0.0,0.0,2.1127,2.1312,0.0,0.0,0.0,0.0,2.6698,2.8781,3.1361,3.3671,3.6557,4.261,4.4945,4.5296,4.4614,4.5116,4.5799,4.5141,4.5618,4.6577,4.7631,4.7908,4.6928,4.3215,4.1731,3.9621,3.4371,3.3395,3.3345,3.267,3.4901,3.7638,4.0098,4.341,4.6522,4.8912,5.0845,5.2051,5.2101,5.2101,5.2151,5.2277,5.1774,5.1724,5.2402,5.2051,5.2176,5.302,5.3381,5.3457,5.3281,5.3884,5.4421,5.4773,5.4974,5.5415,5.6219,5.6093,5.6093,5.6219,5.6219,5.6269,5.6445,5.7323,5.7851,5.8152,5.8981,5.9382,5.9483,5.9483,5.9483,5.9483,5.9483,5.9483,5.9483,0.0,0.0,0.0,0.0,0.0,0.0,1.7035,1.8694,2.0759,2.3862,2.352,2.2575,2.1604,1.9317,1.6708,0.0,0.0,0.0,0.0,0.0,0.0,0.0,0.0,0.0,0.0,0.0,0.0,1.4429,1.6175,0.0,0.0,0.0,0.0,0.0,0.0,1.8777,1.8841,1.8985,0.0,0.0,0.0,0.0,0.0,0.0,0.0,0.0,0.0,2.5661,2.7278,3.0959,3.2369,3.3319,3.7462,4.0527,4.2738,4.3614,4.4292,4.4941,4.5869,4.6225,4.6577,4.7631,4.7908,4.7029,4.3693,4.1706,3.927,3.4751,3.3043,3.2641,3.3571,3.4803,3.6735,3.9972,4.0826,4.2733,4.7405,4.8686,4.9891,5.1875,5.2101,5.2302,5.277,5.2352,5.2452,5.3482,5.3507,5.3532,5.3632,5.3196,5.3432,5.4421,5.3557,5.3808,5.529,5.4336,5.4662,5.6194,5.5691,5.5717,5.6219,5.6219,5.6495,5.6935,5.7035,5.7663,5.8616,5.8755,5.9081,5.9483,5.9483,5.9483,5.9483,5.9483,5.9483,5.9483,0.0,0.0,0.0,0.0,0.0,0.0,1.7941,1.892,2.0724,2.4644,2.4467,2.3723,2.318,2.1475,1.8871,1.5025,0.0,0.0,0.0,0.0,0.0,0.0,0.0,0.0,0.0,0.0,1.6199,1.6502,1.7044,0.0,0.0,0.0,0.0,0.0,0.0,1.921,1.9289,1.925,0.0,0.0,0.0,0.0,0.0,0.0,0.0,0.0,0.0,0.0,2.7211,2.8743,3.0131,3.1491,3.3068,3.5228,3.7688,4.015,4.2384,4.4166,4.4267,4.5296,4.6577,4.7631,4.7431,4.6075,4.2733,4.0424,3.7739,3.3294,3.2039,3.1863,3.2315,3.3571,3.5406,3.809,3.9897,4.2256,4.5949,4.836,5.0218,5.1448,5.2201,5.2644,5.287,5.2427,5.2427,5.3146,5.3532,5.3858,5.4245,5.3683,5.3457,5.3582,5.411,5.4561,5.4924,5.5114,5.5541,5.6219,5.5993,5.5993,5.6219,5.6508,5.6784,5.7035,5.7713,5.8265,5.8755,5.9056,5.9307,5.9483,5.9483,5.9483,5.9483,5.9483,5.9483,5.9483,0.0,0.0,0.0,0.0,0.0,1.5316,1.8092,1.8933,2.0601,2.4365,2.4553,2.4252,2.3953,2.2137,1.9805,1.6955,1.5522,0.0,0.0,0.0,0.0,0.0,0.0,0.0,0.0,0.0,1.6915,1.8011,1.8171,1.8569,0.0,0.0,1.9132,1.9394,0.0,0.0,0.0,0.0,0.0,0.0,0.0,0.0,0.0,0.0,0.0,0.0,0.0,0.0,0.0,0.0,0.0,2.9885,3.0061,3.1512,3.3847,3.7361,4.0475,4.2886,4.3137,4.4744,4.6577,4.7631,4.6853,4.4991,4.2005,3.932,3.6358,3.2261,3.126,3.121,3.1361,3.2491,3.4223,3.6808,3.8818,4.1277,4.4744,4.723,4.9163,5.0426,5.1373,5.2092,5.2594,5.2779,5.3055,5.3607,5.3683,5.3959,5.4572,5.4009,5.3607,5.3406,5.4361,5.4863,5.4848,5.5591,5.6043,5.6219,5.6219,5.6219,5.6219,5.6734,5.7085,5.7311,5.8265,5.8805,5.8981,5.9332,5.9483,5.9483,5.9483,5.9483,5.9483,5.9483,5.9483,5.9483,0.0,0.0,0.0,0.0,0.0,0.0,1.6985,1.8768,2.0576,2.2844,2.3637,2.4004,2.3988,2.0972,1.9135,1.9696,1.7086,0.0,0.0,0.0,0.0,0.0,0.0,0.0,0.0,0.0,1.7791,1.7806,1.9395,1.9906,1.9408,1.9934,1.991,1.9407,0.0,0.0,0.0,0.0,0.0,0.0,0.0,0.0,0.0,0.0,0.0,0.0,0.0,0.0,0.0,0.0,0.0,0.0,0.0,3.0061,3.221,3.608,3.8793,4.1028,4.3212,4.502,4.6577,4.7631,4.625,4.4037,4.1829,3.8768,3.5452,3.211,3.0984,3.0783,3.1286,3.1863,3.3319,3.6658,3.7235,3.8969,4.3912,4.464,4.5698,4.8492,4.9289,5.0293,5.195,5.3617,5.4798,5.5315,5.4336,5.3959,5.4572,5.4009,5.3959,5.4572,5.4009,5.426,5.5365,5.539,5.5666,5.6219,5.6219,5.6219,5.6219,5.6734,5.7349,5.7926,5.844,5.9006,5.9483,5.9483,5.9483,5.9483,5.9483,5.9483,5.9483,5.9483,5.9483,5.9483,0.0,0.0,0.0,0.0,0.0,0.0,1.598,1.6672,1.7928,2.0501,2.0701,2.1153,2.2659,2.0514,1.9194,1.9735,1.7192,0.0,0.0,0.0,0.0,0.0,0.0,0.0,0.0,0.0,1.9092,2.0601,2.1565,2.2164,2.2404,2.1886,2.1353,2.0818,2.0084,1.9746,0.0,0.0,0.0,0.0,0.0,0.0,0.0,0.0,0.0,0.0,0.0,0.0,0.0,0.0,0.0,0.0,0.0,0.0,0.0,3.2663,3.5604,3.8391,3.9094,4.0777,4.2333,4.2308,4.148,4.0199,3.8391,3.6257,3.3947,3.1386,3.0733,3.0638,3.0834,3.1591,3.342,3.7136,3.809,3.9798,4.4012,4.625,4.7813,4.8693,5.1306,5.3055,5.3181,5.4069,5.4672,5.4848,5.3808,5.3406,5.3959,5.3457,5.3607,5.4572,5.4762,5.5039,5.539,5.5767,5.6043,5.6219,5.6219,5.6219,5.6244,5.7198,5.7725,5.7951,5.8855,5.9332,5.9483,5.9483,5.9483,5.9483,5.9483,5.9483,5.9483,5.9483,5.9483,5.9483,0.0,0.0,0.0,0.0,0.0,0.0,0.0,1.5261,1.6155,1.8279,1.8255,1.8995,2.1418,1.9522,1.8531,1.971,1.7427,0.0,0.0,0.0,0.0,0.0,0.0,0.0,1.7929,1.8276,1.9726,2.2332,2.278,2.3489,2.4461,2.3847,2.2924,2.1769,2.1066,2.0388,0.0,0.0,0.0,0.0,0.0,0.0,2.3095,0.0,0.0,0.0,0.0,0.0,0.0,0.0,0.0,0.0,0.0,0.0,0.0,0.0,3.2943,3.5301,3.6557,3.8391,3.9923,3.9998,3.8969,3.7688,3.6632,3.46,3.2516,3.0934,3.0588,3.0588,3.0588,3.1466,3.3068,3.5705,3.7713,3.9949,4.2933,4.5422,4.7311,4.8335,5.1398,5.3593,5.4009,5.443,5.472,5.4888,5.3858,5.3457,5.4009,5.3708,5.3959,5.4873,5.5049,5.5225,5.539,5.5942,5.6219,5.6219,5.6219,5.6319,5.6508,5.7474,5.8001,5.8252,5.9131,5.9483,0.0,5.9483,5.9483,5.9483,5.9483,5.9483,5.9483,5.9483,5.9483,5.9483,0.0,0.0,0.0,0.0,0.0,0.0,0.0,1.4525,1.5236,1.631,1.6425,1.7439,2.0113,1.8078,1.7339,1.9384,0.0,0.0,0.0,0.0,0.0,0.0,0.0,0.0,1.8179,1.8267,1.9898,2.317,2.3271,2.4189,2.5762,2.5737,2.4531,2.2408,2.2332,2.1368,0.0,0.0,0.0,0.0,2.0968,2.1694,0.0,0.0,0.0,0.0,0.0,0.0,0.0,0.0,0.0,0.0,0.0,0.0,0.0,0.0,0.0,0.0,0.0,3.7185,3.8642,3.9572,3.7889,3.6029,3.6006,3.3571,0.0,3.0688,3.0588,3.0638,3.0738,3.1617,3.2591,3.3391,3.6607,3.9597,4.1302,4.3059,4.5196,4.7832,5.024,5.2416,5.4361,5.468,5.4957,5.5354,5.4336,5.3959,5.4572,5.4572,5.4823,5.5365,5.4924,5.4924,5.544,5.5968,5.6219,5.6219,5.6219,5.6433,5.696,5.7625,5.8177,5.8704,5.9257,5.9483,5.9483,5.9483,5.9483,5.9483,5.9483,5.9483,5.9483,5.9483,5.9483,5.9483,0.0,0.0,0.0,0.0,0.0,0.0,0.0,0.0,0.0,0.0,1.5894,1.6296,1.7375,1.6887,1.6701,0.0,0.0,0.0,0.0,0.0,0.0,0.0,0.0,0.0,1.8179,1.9007,2.0865,2.3788,2.5075,2.6331,2.7494,2.7092,2.5728,2.3577,2.2684,2.1368,0.0,0.0,0.0,0.0,2.1356,2.202,0.0,0.0,0.0,0.0,2.4816,2.6146,0.0,0.0,0.0,0.0,0.0,0.0,0.0,0.0,3.008,3.0432,3.1637,0.0,3.3646,3.3072,3.2742,3.2487,0.0,3.1341,3.0738,3.0613,3.0588,3.1009,3.2286,3.3043,3.4374,3.711,3.8994,4.1003,4.346,4.6376,4.8786,5.0318,5.221,5.3537,5.3874,5.4455,5.4957,5.5354,5.4336,5.3959,5.4572,5.4135,5.4361,5.5365,5.5265,5.5465,5.6018,5.6143,5.6219,5.6219,5.6219,5.6269,5.6408,5.7449,5.7976,5.8152,5.9081,5.9483,5.9483,5.9483,5.9483,5.9483,5.9483,5.9483,5.9483,5.9483,5.9483,5.9483,0.0,0.0,0.0,0.0,0.0,0.0,0.0,0.0,0.0,0.0,0.0,1.5552,1.6059,1.635,0.0,0.0,0.0,0.0,0.0,0.0,0.0,0.0,0.0,1.7027,1.8179,1.902,2.1053,2.4365,2.5527,2.706,2.8875,2.8574,2.7135,2.4632,2.2498,2.0916,0.0,0.0,0.0,0.0,2.1231,0.0,0.0,0.0,0.0,0.0,2.4716,2.5912,0.0,2.7921,2.8656,2.9402,0.0,0.0,0.0,0.0,2.9402,2.9509,3.008,3.121,3.2244,3.242,3.2139,3.1838,3.2064,3.1135,3.0306,3.0538,3.0588,3.1035,3.2416,3.3545,3.5027,3.7361,3.9748,4.2409,4.5673,4.8586,5.0561,5.0997,5.2168,5.3155,5.3778,5.4254,5.4776,5.5354,5.4587,5.427,5.4572,5.4511,5.4762,5.5365,5.5641,5.5917,5.6219,5.6219,5.6219,5.6219,5.6219,5.647,5.6997,5.7625,5.8177,5.8654,5.9232,5.9483,5.9483,5.9483,5.9483,5.9483,5.9483,5.9483,5.9483,5.9483,5.9483,5.9483,0.0,0.0,0.0,0.0,0.0,0.0,0.0,0.0,0.0,0.0,0.0,0.0,0.0,0.0,0.0,0.0,0.0,0.0,0.0,0.0,0.0,0.0,0.0,1.7113,1.843,1.8882,2.0939,2.4691,2.5561,2.7193,2.9553,2.9899,2.8398,2.5335,2.2286,2.0527,1.9786,0.0,0.0,2.1356,2.0968,0.0,0.0,0.0,0.0,0.0,0.0,0.0,0.0,2.7645,2.838,2.8907,2.8787,0.0,0.0,0.0,0.0,0.0,2.9729,3.116,3.2721,3.39,3.3172,3.2445,3.342,3.1763,3.0256,3.0959,3.109,3.1541,3.2968,3.4502,3.5956,3.7085,4.0451,4.417,4.7682,5.0042,5.1297,5.0971,5.1403,5.2323,5.3868,5.3993,5.4399,5.5346,5.4913,5.4672,5.4848,5.5189,5.544,5.5516,5.5968,5.6219,5.6219,5.6219,5.6219,5.6219,5.6219,5.6771,5.7775,5.7851,5.8428,5.9382,5.9458,5.9483,5.9483,5.9483,5.9483,5.9483,5.9483,5.9483,5.9483,5.9483,5.9483,5.9444,0.0,0.0,0.0,0.0,0.0,0.0,0.0,0.0,0.0,0.0,0.0,0.0,0.0,0.0,0.0,0.0,0.0,0.0,0.0,0.0,0.0,0.0,1.65,1.7464,1.951,1.9635,2.1142,2.413,2.654,2.7946,2.8398,3.0281,2.8925,2.4842,2.2909,2.1217,1.9786,1.971,0.0,2.0856,2.1231,0.0,0.0,0.0,0.0,0.0,0.0,0.0,0.0,2.7211,2.8097,2.8831,2.8355,0.0,0.0,0.0,0.0,0.0,3.0186,3.2039,3.337,3.219,3.2064,3.2265,3.242,3.1788,3.1562,3.3093,3.3395,3.4299,3.7311,3.8818,3.9998,4.1105,4.4141,4.7054,4.9063,5.087,5.1941,5.1908,5.1925,5.2492,5.3846,5.3395,5.3728,5.5433,5.496,5.5024,5.5917,5.5591,5.5591,5.6068,5.6168,5.6219,5.6219,5.6219,5.6219,5.6219,5.6219,5.6508,5.7136,5.7675,5.8252,5.8855,5.9307,5.9483,5.9483,5.9483,5.9483,5.9483,5.9483,5.9483,5.9483,5.9483,5.9483,5.9251,0.0,0.0,0.0,0.0,0.0,0.0,0.0,0.0,0.0,0.0,0.0,0.0,0.0,0.0,0.0,0.0,0.0,0.0,0.0,0.0,0.0,0.0,1.8005,1.8456,1.9786,2.1292,2.3427,2.6214,2.8398,2.9754,3.0306,2.9528,2.762,2.47,2.2734,2.1091,1.9811,1.9811,2.0326,2.1155,0.0,0.0,0.0,0.0,0.0,0.0,0.0,0.0,0.0,0.0,2.7587,2.843,2.8197,0.0,0.0,0.0,0.0,0.0,2.9459,3.1085,3.2867,3.422,3.45,3.5253,3.8216,3.5932,3.3997,3.6885,3.5782,3.5353,3.8693,4.0477,4.2479,4.578,4.8252,4.9904,5.0257,5.1161,5.1734,5.162,5.1834,5.2197,5.2659,5.3498,5.4255,5.4893,5.5269,5.5413,5.5251,5.4561,5.45,5.5177,5.4782,5.5041,5.6182,5.6219,5.6219,5.6219,5.6219,5.6458,5.701,5.7625,5.8202,5.8755,5.9282,5.9483,5.9405,5.8227,5.7731,5.7706,5.7706,5.6971,5.5911,5.5911,5.5911,5.5791,0.0,0.0,0.0,0.0,0.0,0.0,0.0,0.0,0.0,0.0,0.0,0.0,0.0,0.0,0.0,0.0,0.0,0.0,0.0,0.0,0.0,0.0,0.0,2.0074,2.1142,2.3276,2.5661,2.8298,3.0211,3.1612,3.234,2.9026,2.6515,2.4716,2.2623,2.0991,1.9811,1.9811,2.0288,2.113,0.0,0.0,0.0,0.0,0.0,0.0,0.0,0.0,0.0,0.0,0.0,0.0,0.0,0.0,0.0,2.8097,2.8097,2.8273,2.9082,3.0331,3.2315,3.623,3.6408,3.7186,4.3059,3.9471,3.6133,4.0549,3.8743,3.729,4.0449,4.2155,4.4594,4.9394,5.118,5.1936,5.1743,5.1832,5.1861,5.1662,5.162,5.1706,5.1972,5.3162,5.4079,5.4397,5.4758,5.477,5.4261,5.3237,5.2935,5.3487,5.2859,5.3213,5.472,5.5226,5.5717,5.6219,5.6344,5.6659,5.7211,5.7826,5.8112,5.815,5.8547,5.8422,5.781,5.6135,5.543,5.5446,5.5446,5.4395,5.288,5.288,5.288,5.2839,0.0,0.0,0.0,0.0,0.0,0.0,0.0,0.0,0.0,0.0,0.0,0.0,0.0,0.0,0.0,0.0,0.0,0.0,0.0,0.0,0.0,0.0,0.0,0.0,2.5134,2.5385,2.659,2.8838,3.1587,3.2964,3.2964,2.9603,2.6874,2.4741,2.301,2.1329,1.9811,1.9811,1.9861,2.0012,2.1066,0.0,0.0,0.0,0.0,0.0,0.0,0.0,0.0,0.0,0.0,0.0,0.0,0.0,2.8097,2.8097,2.8097,2.8448,3.0036,3.0934,3.2315,3.623,3.5251,3.52,4.2258,3.9496,3.7113,4.3084,4.2606,4.1919,4.4585,4.5335,4.6786,5.0579,5.1455,5.2184,5.3822,5.3613,5.3202,5.3009,5.1472,5.1129,5.2906,5.1634,5.174,5.4212,5.257,5.2137,5.3664,5.2289,5.1255,5.0901,5.0823,5.0669,5.0452,5.2357,5.4311,5.6219,5.6684,5.7236,5.7851,5.8403,5.7802,5.6383,5.6415,5.5268,5.3374,5.3209,5.3127,5.3127,5.3127,5.3045,5.288,5.288,5.288,5.2591,0.0,0.0,0.0,0.0,0.0,0.0,0.0,0.0,0.0,0.0,0.0,0.0,0.0,0.0,0.0,0.0,0.0,0.0,0.0,0.0,1.7213,0.0,0.0,2.1959,2.4014,2.71,2.9628,3.1512,3.2893,3.3219,3.2466,2.9151,2.6615,2.4741,2.306,2.1755,2.0854,2.0502,2.0954,2.1805,2.1231,2.1594,0.0,0.0,0.0,0.0,0.0,0.0,0.0,0.0,2.5854,2.701,2.7085,2.7795,2.853,2.8197,2.8097,2.8304,2.9283,3.0437,3.2512,3.711,3.6408,3.666,4.4568,4.2886,4.148,4.7958,4.5905,4.3494,4.5196,4.7901,5.0099,5.0916,5.2098,5.2727,5.226,5.1983,5.1645,5.1032,5.0593,5.0534,5.1169,5.1503,5.1812,5.2075,5.2301,5.2011,5.1162,5.0209,4.9802,4.992,4.9091,4.9227,5.0359,5.0878,5.2204,5.4311,5.5806,5.6784,5.7336,5.7951,5.7281,5.57,5.6056,5.4945,5.2798,5.1427,5.0862,5.0694,4.9339,4.9659,5.0694,4.9297,4.8784,4.8676,0.0,0.0,0.0,0.0,0.0,0.0,0.0,0.0,0.0,0.0,0.0,0.0,0.0,0.0,0.0,0.0,0.0,0.0,0.0,1.65,1.7264,1.8957,1.9924,2.1256,2.307,2.7501,3.0457,3.1763,3.2842,3.2792,3.1617,2.8693,2.6708,2.5494,2.3678,2.2723,2.2472,2.1583,2.1845,2.2744,2.1644,2.187,0.0,0.0,0.0,0.0,0.0,0.0,0.0,0.0,2.5259,2.6565,2.6909,2.777,2.8605,2.8405,2.8725,2.9227,2.9584,3.0658,3.2767,3.7462,3.7037,3.7664,4.6024,4.4949,4.3969,5.0268,4.8535,4.6085,4.6822,4.9238,5.1169,5.1319,5.2035,5.2357,5.1704,5.1112,5.0506,4.9661,4.9808,4.9947,4.9812,5.0741,5.1192,5.0969,5.1262,5.0892,4.9746,4.8605,4.8168,4.8486,4.7491,4.7488,4.8636,4.903,4.983,5.1148,5.3251,5.4938,5.6262,5.7015,5.6011,5.3589,5.3973,5.2839,5.0694,4.9169,4.8548,4.8419,4.688,4.7228,4.8376,4.6836,4.6308,4.6308,0.0,0.0,0.0,0.0,0.0,0.0,0.0,0.0,0.0,0.0,0.0,0.0,0.0,0.0,0.0,0.0,0.0,0.0,1.65,1.65,1.6762,1.7373,1.8932,2.0802,2.2995,2.6322,2.8329,2.8932,3.1115,3.1617,3.0512,2.8323,2.7286,2.7185,2.4983,2.4315,2.4691,2.301,2.2307,2.2332,2.2307,2.2307,2.2383,0.0,0.0,0.0,0.0,0.0,0.0,0.0,2.4791,2.5193,2.7376,2.8097,2.8204,2.8756,3.0061,3.1406,3.1386,3.1788,3.3122,3.7036,3.6761,3.7715,4.5969,4.4949,4.3793,4.9289,5.0386,5.0331,5.0118,4.9222,4.9355,5.1851,5.1047,5.0783,5.2764,5.1565,5.0183,4.9405,4.9292,4.9344,4.9381,4.904,4.9528,5.1224,4.9061,4.8327,4.9959,4.7672,4.6286,4.6306,4.5901,4.5291,4.4411,4.6466,4.7248,4.6827,4.8991,5.1581,5.4616,5.5676,5.3761,4.9616,4.9616,4.8333,4.6308,4.6308,4.6308,4.6308,4.6308,4.6308,4.6308,4.6308,4.6308,4.6308,0.0,0.0,0.0,0.0,0.0,0.0,0.0,0.0,0.0,0.0,0.0,0.0,0.0,0.0,0.0,0.0,0.0,0.0,1.65,1.65,1.6586,1.6762,1.8343,1.9196,1.9083,2.2322,2.6021,3.0111,3.0738,3.0312,2.8825,2.7386,2.6524,2.6088,0.0,0.0,2.4189,2.3703,2.3712,2.3963,2.2784,2.2784,2.3477,0.0,0.0,0.0,0.0,0.0,0.0,0.0,0.0,0.0,2.6013,2.7419,2.8781,2.9358,2.988,3.0357,3.0733,3.2089,3.3947,3.6306,3.8843,4.1351,4.3579,4.4623,4.604,4.9359,5.0647,5.0579,4.869,5.02,5.1435,5.0484,5.0055,4.9915,5.013,4.9536,4.8784,4.7999,4.8402,4.8729,4.8548,4.8963,4.9179,4.9135,4.9004,4.8648,4.7973,4.7493,4.6931,4.6326,4.5901,4.5596,4.5332,4.5332,4.5981,4.7288,4.8328,5.0052,5.2343,5.2679,5.1637,4.9616,4.9616,4.8333,4.6308,4.6308,4.6308,4.6308,4.6308,4.6308,4.6308,4.6308,4.6308,4.6308,0.0,0.0,0.0,0.0,0.0,0.0,0.0,0.0,0.0,0.0,1.631,1.65,0.0,0.0,0.0,0.0,0.0,0.0,1.65,1.65,1.6611,1.6848,1.7827,1.8581,1.902,2.1619,2.449,2.7627,2.8524,2.8323,2.7118,2.7344,2.7268,2.6942,0.0,2.701,2.5611,2.5159,2.5034,2.5017,2.4029,2.3888,2.428,0.0,0.0,0.0,0.0,0.0,0.0,0.0,0.0,0.0,2.5109,2.6648,2.8473,2.9503,3.0708,3.2114,3.3771,3.5655,3.7914,4.0904,4.2487,4.3475,4.4056,4.5314,4.7152,5.0065,5.0733,5.0465,4.9388,5.0542,5.1416,5.0579,4.9915,4.9587,4.9803,4.9265,4.8681,4.8189,4.8472,4.8493,4.7948,4.8381,4.8461,4.8009,4.8291,4.8153,4.7274,4.7132,4.6931,4.659,4.5982,4.5637,4.5413,4.4739,4.4965,4.5981,4.6516,4.7506,4.889,5.0117,4.9824,4.829,4.829,4.7554,4.6308,4.6308,4.6308,4.6308,4.6308,4.6308,4.6308,4.6308,4.6308,4.6308,0.0,0.0,0.0,0.0,0.0,0.0,0.0,0.0,0.0,1.636,1.65,1.65,0.0,0.0,0.0,1.65,1.65,1.65,1.65,1.65,1.6762,1.7361,1.7537,1.8844,2.1432,2.2874,2.3361,2.2869,2.515,2.5996,2.5511,2.7727,2.8737,2.8781,0.0,2.9026,2.7795,2.6725,2.5971,2.5435,2.5385,2.5109,2.4716,2.4666,0.0,0.0,0.0,0.0,0.0,0.0,0.0,0.0,2.4616,2.5912,2.7562,2.9227,3.2139,3.5456,3.8542,4.0778,4.3266,4.7813,4.6366,4.4398,4.6651,4.6769,4.7417,5.0925,5.0599,5.0065,5.1269,5.0395,4.9953,5.146,5.0256,4.9593,5.0874,5.0041,4.9266,4.9211,4.8946,4.8408,4.7469,4.7469,4.7522,4.7531,4.7234,4.7194,4.7533,4.6791,4.6509,4.6893,4.6165,4.5495,4.5005,4.4616,4.4205,4.3752,4.4221,4.459,4.5042,4.7906,4.8184,4.6308,4.6308,4.6308,4.6308,4.6308,4.6308,4.6308,4.6308,4.6308,4.6308,4.6308,4.6308,4.6308,0.0,0.0,0.0,0.0,0.0,0.0,0.0,0.0,1.5768,1.64,1.65,1.65,1.65,1.65,0.0,1.65,1.65,1.65,1.65,1.65,1.6762,1.7361,1.8618,1.9987,2.1482,2.0966,2.0865,2.1206,2.3442,2.4456,2.4381,0.0,0.0,2.7688,0.0,2.7978,0.0,2.4983,2.4456,2.4305,2.3838,2.3863,2.413,2.3662,2.3321,0.0,0.0,0.0,0.0,0.0,0.0,0.0,2.449,2.5661,2.7002,2.8624,3.2047,3.5606,3.6783,3.9597,4.2464,4.3517,4.3837,4.4915,4.8899,4.8106,4.7297,4.9911,4.9605,4.9227,5.0383,4.9883,4.947,5.0053,4.902,4.8345,4.9031,4.8673,4.8273,4.7944,4.8178,4.7902,4.6683,4.7185,4.7467,4.7153,4.7354,4.7373,4.7153,4.6973,4.657,4.6003,4.6104,4.5779,4.5005,4.4923,4.4657,4.4247,4.4346,4.4453,4.457,4.5904,4.6453,4.6308,4.6308,4.6308,4.6308,4.6308,4.6308,4.6308,4.6308,4.6308,4.6308,4.6308,4.6308,4.6308,0.0,0.0,0.0,0.0,0.0,0.0,0.0,0.0,1.5894,1.6436,1.65,1.65,1.65,1.65,0.0,0.0,1.65,1.65,1.65,1.65,1.6887,1.7763,1.9083,2.0087,2.0665,1.9848,1.971,2.0276,2.1167,2.2282,0.0,0.0,0.0,2.772,0.0,2.7677,0.0,0.0,2.4481,2.4029,2.423,2.418,2.3979,2.3637,2.3035,2.2332,2.2307,0.0,0.0,0.0,0.0,0.0,0.0,0.0,2.6063,2.7953,3.0713,3.385,3.7086,4.0828,4.4209,4.5953,4.6441,4.6972,4.8854,4.8334,4.7873,4.9313,4.8874,4.8447,4.9282,4.8611,4.8191,4.8853,4.8358,4.8044,4.8325,4.8608,4.8486,4.7644,4.7783,4.7453,4.6144,4.6427,4.6528,4.6064,4.6468,4.659,4.6408,4.6549,4.6468,4.5982,4.5779,4.5576,4.5332,4.4718,4.437,4.4411,4.4388,4.4609,4.5019,4.5469,4.5801,4.6016,4.6211,4.6308,4.6308,4.6308,4.6308,4.6308,4.6308,4.6308,4.6308,4.6308,4.6308,4.6308,0.0,0.0,0.0,0.0,0.0,0.0,0.0,0.0,0.0,1.6425,1.65,1.65,1.65,1.65,1.65,0.0,0.0,0.0,1.65,1.6611,1.7113,1.8142,1.9133,1.971,1.9811,1.9183,1.9171,1.9811,1.9259,2.0462,0.0,0.0,0.0,2.7971,0.0,0.0,0.0,0.0,2.4381,2.3627,2.4431,2.428,2.3552,2.3467,2.2638,2.1557,2.1895,2.2146,2.2383,2.292,0.0,0.0,0.0,0.0,2.5193,2.71,2.9277,3.2164,3.7287,4.1854,4.6029,4.9946,4.9693,4.8425,4.8158,4.8044,4.8205,4.8961,4.8424,4.7948,4.8316,4.7448,4.6957,4.7639,4.7821,4.7888,4.7866,4.8436,4.8442,4.7392,4.7272,4.679,4.5576,4.5556,4.5434,4.5046,4.5372,4.5637,4.5719,4.6023,4.6185,4.6185,4.5576,4.5332,4.5596,4.4493,4.4082,4.4411,4.431,4.4687,4.5492,4.5527,4.5644,4.5801,4.6152,4.6308,4.6308,4.6308,4.6308,4.6308,4.6308,4.6308,4.6308,4.6308,4.6308,4.6308,0.0,0.0,0.0,0.0,0.0,0.0,0.0,0.0,0.0,0.0,1.65,1.65,1.65,1.65,1.65,1.65,1.65,1.65,1.65,0.0,0.0,1.8167,1.8782,1.9321,1.9786,1.8832,1.8807,1.9811,1.9259,2.0663,0.0,0.0,0.0,2.7386,0.0,0.0,0.0,0.0,2.1945,2.1809,2.1496,2.1546,2.1784,2.132,2.1295,2.1457,2.1043,2.1507,2.2383,2.292,2.3461,0.0,0.0,0.0,2.4942,2.5711,2.9195,3.3065,3.4324,3.904,4.4695,4.9322,4.779,4.5896,4.8817,4.784,4.6878,4.8722,4.8498,4.7931,4.788,4.7515,4.7019,4.6372,4.6663,4.6885,4.649,4.6281,4.6071,4.588,4.5941,4.5576,4.4657,4.4882,4.5086,4.5005,4.5046,4.525,4.5678,4.5759,4.58,4.58,4.6023,4.5779,4.5086,4.4923,4.4657,4.4411,4.3976,4.4062,4.459,4.4941,4.5508,4.623,4.6289,4.6308,4.6308,4.6308,4.6308,4.6308,4.6308,4.6308,4.6308,4.6308,4.6308,4.6308,0.0,0.0,0.0,0.0,0.0,0.0,0.0,0.0,0.0,0.0,0.0,1.65,1.65,1.65,1.65,1.65,1.65,1.65,1.65,1.6737,1.7149,1.7738,1.7978,1.8355,1.8882,1.8154,1.8279,1.9334,1.8518,0.0,0.0,2.4139,2.5619,0.0,0.0,0.0,0.0,0.0,2.1694,2.0589,2.098,2.202,2.315,2.1395,2.1809,2.3125,2.1345,2.1194,2.192,2.2483,2.3035,2.3512,2.3512,0.0,0.0,0.0,2.6691,3.0242,3.652,3.9367,4.2375,5.0014,4.7493,4.4535,4.9723,4.7817,4.5727,4.8621,4.7825,4.6871,4.7701,4.7133,4.6534,4.6498,4.6308,4.6093,4.5933,4.5976,4.5736,4.5026,4.5128,4.4965,4.4082,4.4164,4.4288,4.4288,4.4534,4.4739,4.4964,4.5168,4.5291,4.5291,4.525,4.5168,4.5005,4.4513,4.4164,4.4,4.4297,4.4525,4.4766,4.5431,4.5801,4.5976,4.6191,4.6308,4.6308,4.6308,4.6308,4.6308,4.6308,4.6308,4.6308,4.6308,4.6308,4.6308,0.0,0.0,0.0,0.0,0.0,0.0,0.0,0.0,0.0,0.0,0.0,1.65,1.65,0.0,0.0,0.0,1.65,1.65,1.65,1.65,1.6687,1.716,1.7186,1.735,1.7765,1.7387,1.7626,1.8594,0.0,0.0,2.4004,2.3813,2.567,0.0,2.7864,2.6515,0.0,0.0,0.0,2.0752,2.2211,2.3577,2.4691,2.3618,2.4481,2.5921,2.3165,2.2527,2.2939,2.2608,2.2884,2.3321,2.3321,2.3321,0.0,0.0,0.0,2.7322,3.6924,3.8107,3.8821,4.7838,4.546,4.2479,4.8291,4.6522,4.4523,4.7553,4.7027,4.6323,4.7274,4.6615,4.5965,4.6193,4.5766,4.537,4.521,4.5454,4.5291,4.4329,4.4473,4.4391,4.3752,4.3711,4.3711,4.3711,4.4041,4.4288,4.4411,4.4657,4.4882,4.5005,4.4718,4.4698,4.5005,4.4247,4.3893,4.3887,4.4552,4.4963,4.5195,4.5851,4.6025,4.5859,4.6172,4.6308,4.6308,4.6308,4.6308,4.6308,4.6308,4.6308,4.6308,4.6308,4.6308,4.6308,0.0,0.0,0.0,0.0,0.0,0.0,0.0,0.0,0.0,0.0,0.0,1.65,1.65,1.65,1.65,1.65,1.65,1.65,1.65,1.65,1.65,1.6561,1.6561,0.0,1.6586,1.655,1.6837,1.7487,0.0,0.0,2.4029,2.5008,2.6992,2.9679,2.804,2.6959,2.6348,0.0,0.0,2.312,2.5351,2.5653,2.5193,2.8731,3.0161,2.9955,2.716,2.6549,2.6608,2.3948,2.3461,2.3954,2.3954,2.3954,2.3923,0.0,0.0,0.0,3.2091,3.2865,3.3465,4.0144,3.9755,3.871,4.2509,4.2913,4.2977,4.4784,4.6333,4.7159,4.6416,4.5918,4.5363,4.4563,4.4785,4.474,4.3898,4.3835,4.3835,4.3733,4.3752,4.3752,4.3711,4.3711,4.3711,4.3711,4.3711,4.3917,4.437,4.4411,4.4616,4.5005,4.4964,4.4964,4.5005,4.4575,4.434,4.4355,4.4436,4.4886,4.5688,4.5707,4.5942,4.6269,4.6289,4.6308,4.6308,4.6308,4.6308,4.6308,4.6308,4.6308,4.6308,4.6308,4.6308,4.6308,0.0,0.0,0.0,0.0,0.0,0.0,0.0,0.0,0.0,0.0,0.0,0.0,0.0,0.0,0.0,1.65,1.65,0.0,0.0,1.65,1.65,1.65,1.65,1.65,1.65,1.65,1.6798,0.0,0.0,1.966,2.2909,2.3662,2.5511,2.819,2.7921,2.7311,2.6449,2.5653,0.0,2.2498,2.7218,2.89,2.8781,0.0,3.3746,3.5351,0.0,0.0,2.9101,2.7,2.5268,2.4004,2.4004,2.3712,2.341,2.3401,2.4079,2.585,3.0535,3.0675,3.1147,3.7948,3.6933,3.5717,4.1144,4.1758,4.159,4.3023,4.4465,4.5126,4.398,4.4521,4.5066,4.4764,4.4415,4.4062,4.3733,4.3711,4.3711,4.3711,4.3711,4.3711,4.3711,4.3711,4.3711,4.3711,4.3711,4.3793,4.3958,4.3958,4.4041,4.4164,4.4164,4.4302,4.4618,4.4707,4.4817,4.4805,4.5078,4.5371,4.5727,4.5957,4.6152,4.6308,4.6308,4.6308,4.6308,4.6308,4.6308,4.6308,4.6308,4.6308,4.6308,4.6308,4.6308,4.6308,0.0,0.0,0.0,0.0,0.0,0.0,0.0,0.0,0.0,0.0,0.0,0.0,0.0,0.0,0.0,1.6812,1.6611,1.65,1.65,1.65,1.65,1.65,1.65,1.65,1.65,1.65,1.6687,0.0,0.0,0.0,0.0,2.2669,2.439,2.6733,2.6917,2.7218,0.0,0.0,0.0,2.4773,3.0331,3.2093,3.1788,0.0,0.0,0.0,0.0,0.0,0.0,3.224,3.0281,2.7964,2.6841,2.4803,2.2858,2.2745,2.3582,2.5029,2.7574,2.7715,2.8474,3.3826,3.3015,3.24,3.8125,3.9593,4.0099,4.1299,4.3181,4.4258,4.3066,4.3874,4.4802,4.4975,4.4515,4.4141,4.4141,4.4141,4.4141,4.4141,4.4023,4.3926,4.3926,4.3789,4.3711,4.3711,4.3711,4.3711,4.3711,4.3711,4.3769,4.3926,4.3926,4.416,4.4609,4.4883,4.5098,4.5254,4.5547,4.5742,4.5898,4.6172,4.6308,4.6308,4.6308,4.6308,4.6308,4.6308,4.6308,4.6308,4.6308,4.6308,4.6308,4.6308,4.6308,4.6308,0.0,0.0,0.0,0.0,0.0,0.0,0.0,0.0,0.0,0.0,0.0,0.0,0.0,0.0,0.0,1.7487,1.6898,1.6525,1.6536,1.65,1.65,1.65,1.65,0.0,0.0,0.0,0.0,0.0,0.0,0.0,0.0,0.0,2.3913,2.5511,2.5017,2.6623,2.9748,0.0,3.0633,3.01,0.0,3.5127,3.3818,0.0,0.0,0.0,4.0524,4.0073,0.0,3.9496,3.8291,3.5703,3.2265,2.7153,2.2347,2.1932,2.2429,2.3112,0.0,0.0,0.0,2.7382,2.7778,2.8757,3.2922,3.6062,3.8413,3.9529,4.248,4.4587,4.3848,4.4121,4.459,4.4957,4.4996,4.4977,4.4977,4.4977,4.4977,4.4977,4.4648,4.4394,4.4414,4.3984,4.3711,4.373,4.3711,4.3711,4.373,4.373,4.3926,4.4394,4.4414,4.4629,4.4996,4.5016,4.5273,4.5746,4.5746,4.5918,4.6308,4.6308,4.6308,4.6308,4.6308,4.6308,4.6308,4.6308,4.6308,4.6308,4.6308,4.6328,4.6328,4.6328,4.6328,4.6328,0.0,0.0,0.0,0.0,0.0,1.7275,1.7665,1.74,1.7275,0.0,0.0,0.0,0.0,0.0,0.0,1.8568,1.8042,1.7576,1.7186,1.6737,1.65,1.65,1.65,1.65,1.65,1.65,1.65,1.65,0.0,0.0,0.0,2.0765,2.2221,2.3822,2.4892,2.5887,2.6816,2.7537,0.0,2.8008,3.4826,3.6232,0.0,0.0,0.0,0.0,0.0,4.4769,4.2384,4.3514,3.9497,3.3119,2.789,2.4705,2.275,2.2226,2.2713,2.3387,2.3428,0.0,0.0,0.0,0.0,0.0,2.8059,3.1032,3.4182,3.6206,3.9141,4.1797,4.3418,4.4844,4.582,4.5937,4.543,4.4977,4.4977,4.4977,4.4977,4.4977,4.4648,4.4512,4.4824,4.416,4.3965,4.4609,4.4062,4.3848,4.4199,4.4199,4.4258,4.4394,4.5,4.5371,4.5488,4.5801,4.6016,4.6133,4.6133,4.6191,4.6308,4.6308,4.6308,4.6308,4.6308,4.6308,4.6308,4.6308,4.6308,4.6328,4.6641,4.6714,4.6797,4.7109,4.7031,4.6714,0.0,0.0,1.7464,1.8254,1.8605,1.8957,1.9484,1.912,1.8881,0.0,0.0,0.0,0.0,0.0,0.0,0.0,1.8832,1.8204,1.7448,1.6848,1.65,1.65,1.6737,1.6873,1.6873,1.6873,1.6873,1.6873,1.7236,1.7827,1.8694,1.9786,2.0954,2.2146,2.3115,2.3944,2.4566,2.4682,2.6206,0.0,3.6458,0.0,0.0,4.5095,4.6401,4.4949,4.8567,4.7832,4.5673,4.8887,4.4145,3.6182,3.203,2.7501,0.0,0.0,2.3786,2.3908,2.3464,2.4261,2.5066,2.4451,0.0,0.0,2.7875,3.0688,3.3769,3.689,4.0078,4.2539,4.3301,4.4414,4.5273,4.5469,4.5234,4.5156,4.5508,4.5566,4.5566,4.5566,4.5195,4.5019,4.5273,4.4668,4.4473,4.4938,4.4551,4.4375,4.4648,4.4316,4.4355,4.4922,4.5234,4.5586,4.5937,4.6191,4.6308,4.6308,4.6308,4.6308,4.6308,4.6308,4.6308,4.6308,4.6308,4.6406,4.6562,4.6562,4.6562,4.6601,4.7031,4.7207,4.7226,4.748,4.7422,4.7207,0.0,0.0,1.8669,1.9822,2.0514,2.108,2.1727,2.1315,2.0977,0.0,0.0,0.0,0.0,0.0,0.0,0.0,1.9508,1.8634,1.7592,1.6918,1.6554,1.6611,1.7088,1.74,1.7487,1.7464,1.7428,1.7375,1.7451,1.7715,1.8205,1.9221,2.0025,2.0591,2.0666,2.1532,2.292,2.2734,2.6013,3.1838,3.8065,4.0549,4.1128,4.6803,4.6758,4.4371,4.9866,5.0042,4.8454,5.3708,4.9941,4.2637,3.9944,0.0,0.0,0.0,2.5182,2.4772,2.3589,2.452,2.5664,2.5064,2.4402,0.0,2.9435,3.1918,3.4359,3.8337,4.1641,4.3476,4.2363,4.2539,4.2949,4.3281,4.3965,4.4863,4.5996,4.6289,4.6308,4.6172,4.5879,4.5746,4.5801,4.5332,4.5016,4.5156,4.5074,4.5035,4.4977,4.4277,4.4414,4.5688,4.5293,4.5488,4.6289,4.6308,4.6308,4.6308,4.6308,4.6308,4.6308,4.6308,4.6308,4.6308,4.6308,4.6543,4.6889,4.6889,4.6889,4.6928,4.7461,4.7598,4.7519,4.7676,4.7656,4.7578,1.8509,1.8745,1.9408,2.1255,2.1792,2.2355,2.3499,2.3006,2.2644,2.3133,0.0,0.0,0.0,0.0,0.0,0.0,0.0,1.921,1.8339,1.7367,1.6939,1.72,1.7224,1.7498,1.8016,1.7828,1.7558,1.7237,1.7675,1.7949,1.8062,1.8795,1.9447,2.0,2.049,2.1105,2.1945,2.4054,2.7193,3.1039,3.4577,3.7789,4.1177,4.7657,4.9063,4.8341,5.3406,5.3482,5.1122,5.0946,4.9967,4.7232,3.8075,0.0,0.0,2.6021,0.0,0.0,0.0,0.0,0.0,0.0,0.0,0.0,2.389,2.4988,2.6971,3.0057,3.1484,3.3047,3.582,3.6992,3.7324,3.6699,3.9004,4.1914,4.4863,4.6152,4.6382,4.5391,4.5508,4.5937,4.6621,4.5683,4.5312,4.5996,4.5742,4.5391,4.4996,4.4863,4.5039,4.5707,4.5586,4.5801,4.6289,4.6308,4.6308,4.6308,4.6308,4.6308,4.6308,4.6308,4.6308,4.6308,4.6308,4.6543,4.6889,4.6889,4.6889,4.6967,4.7773,4.7656,4.7187,4.8268,4.8209,4.7578,1.9156,1.9955,2.1126,2.2938,2.3753,2.4582,2.5672,2.5256,2.4911,0.0,0.0,0.0,0.0,0.0,0.0,0.0,0.0,0.0,1.8521,1.7696,1.7219,1.7133,1.7352,1.78,1.8584,1.8116,1.7873,1.7894,1.8093,1.8068,1.781,1.8834,1.9983,2.1179,2.0852,2.1588,2.3117,2.3423,2.5795,2.9906,3.6264,4.0676,4.4091,5.0469,5.2377,5.2034,5.4486,5.4863,5.3813,5.1622,4.9941,4.7833,4.2632,3.7958,3.3433,0.0,2.7515,2.7463,0.0,0.0,0.0,2.4878,0.0,0.0,0.0,2.5349,2.6791,2.9891,3.0879,3.1699,3.3437,3.3945,3.4101,3.4062,3.6621,3.8828,3.9473,4.3262,4.6055,4.6269,4.6484,4.6797,4.7207,4.668,4.6387,4.6601,4.6035,4.5664,4.5664,4.5058,4.5098,4.5957,4.5586,4.5664,4.6289,4.6308,4.6308,4.6308,4.6308,4.6308,4.6308,4.6308,4.6308,4.6308,4.6308,4.6543,4.6889,4.6889,4.7051,4.7324,4.7949,4.8086,4.7949,4.8379,4.8262,4.7891,1.9713,2.1068,2.2659,2.4163,2.5424,2.6466,2.7213,2.7072,2.6852,0.0,0.0,0.0,0.0,0.0,0.0,0.0,0.0,0.0,0.0,1.9137,1.8748,1.7958,1.777,1.8303,1.9656,1.8587,1.8173,1.8521,1.8517,1.8236,1.7727,1.8941,2.0428,2.2111,2.1449,2.2535,2.4803,2.3549,2.5605,3.0476,3.9512,4.3714,4.5271,5.18,5.3969,5.3617,5.4465,5.5276,5.5447,5.265,4.9808,4.7307,4.6496,4.0908,0.0,0.0,0.0,0.0,0.0,0.0,0.0,0.0,0.0,2.5065,0.0,0.0,0.0,3.0293,3.1152,3.1318,3.0996,3.0664,3.0605,3.1113,3.3516,3.4766,3.3215,3.8633,4.334,4.4805,4.5937,4.6465,4.6133,4.6059,4.6274,4.6875,4.5648,4.5277,4.625,4.5254,4.5156,4.6269,4.5547,4.5527,4.6289,4.6308,4.6308,4.6308,4.6308,4.6308,4.6308,4.6308,4.6308,4.6308,4.6308,4.6543,4.687,4.6792,4.7109,4.7617,4.7949,4.8242,4.8503,4.8183,4.8086,4.8086,2.0625,2.1668,2.2849,2.3872,2.5463,2.6657,2.6708,2.7215,2.7459,0.0,0.0,0.0,0.0,0.0,0.0,0.0,0.0,0.0,2.243,2.3634,2.3678,2.1781,1.9025,1.8978,2.2131,1.9651,1.8319,1.8243,1.8725,1.8664,1.8158,1.8776,1.9562,2.0546,2.2111,2.381,2.5636,2.7719,3.1255,3.5928,4.148,4.1505,3.9094,4.7179,4.9949,4.9984,5.4046,5.5184,5.4291,5.1,4.9319,4.762,4.2041,3.9976,3.8432,3.2546,0.0,0.0,0.0,0.0,0.0,0.0,2.5893,0.0,0.0,0.0,2.4547,2.3806,0.0,2.4251,2.4215,0.0,0.0,2.3301,2.5996,2.8359,2.8867,3.2285,3.4961,3.558,3.998,4.2422,4.0918,4.0601,4.2289,4.6582,4.3837,4.323,4.6133,4.5801,4.5762,4.6289,4.584,4.582,4.6289,4.6308,4.6308,4.6308,4.6308,4.6308,4.6308,4.6308,4.6308,4.6308,4.6308,4.6543,4.685,4.6523,4.6855,4.7578,4.7637,4.7441,4.7187,4.7519,4.7656,4.7656,2.0668,2.2177,2.3555,2.3928,2.539,2.6548,2.6595,2.7787,2.8266,0.0,0.0,0.0,0.0,0.0,0.0,0.0,0.0,3.1189,0.0,0.0,0.0,2.312,2.0177,1.9396,2.1099,1.934,1.8418,1.844,1.8574,1.8379,1.7871,1.8834,2.0344,2.229,2.3577,2.5939,2.8954,2.9667,3.1553,3.4308,3.6935,3.7092,3.7082,4.9254,5.3194,5.2115,5.1671,5.2009,5.2133,4.8438,4.6826,4.5889,4.3174,0.0,0.0,3.4374,0.0,0.0,0.0,0.0,0.0,0.0,0.0,0.0,2.4996,0.0,2.3301,0.0,0.0,0.0,0.0,0.0,0.0,0.0,2.4727,2.625,2.5098,2.875,3.2461,3.4902,3.725,3.9377,4.1191,4.0134,4.1269,4.5859,4.3148,4.2464,4.5058,4.5742,4.6113,4.6289,4.5898,4.5879,4.6289,4.6308,4.6308,4.6308,4.6308,4.6308,4.6308,4.6308,4.6308,4.6308,4.6308,4.6406,4.6562,4.6367,4.666,4.7207,4.7207,4.7246,4.7324,4.7519,4.7578,4.7617,2.0778,0.0,2.3675,2.3725,2.5016,2.6166,2.6591,2.8248,2.9017,2.7887,0.0,0.0,3.1302,3.0278,0.0,0.0,3.6433,3.5531,0.0,3.1731,2.9441,2.7224,2.2351,2.05,2.2235,1.9827,1.8558,1.8606,1.8551,1.8394,1.8172,1.9207,2.0851,2.3054,2.4492,2.7151,3.0606,3.1378,3.2927,3.4971,3.6409,3.8011,4.0479,4.999,5.3641,5.3294,5.0277,4.9787,5.0052,4.6312,4.4553,4.3888,4.3644,4.0335,3.6656,0.0,0.0,0.0,3.0888,0.0,3.1945,2.8628,2.8448,2.8367,0.0,0.0,0.0,0.0,0.0,0.0,0.0,0.0,0.0,0.0,0.0,2.459,0.0,2.5488,0.0,0.0,3.3437,3.5591,3.9533,3.7829,3.8608,4.3752,4.1484,4.1289,4.457,4.584,4.6465,4.6465,4.6074,4.5996,4.6289,4.6308,4.6308,4.6308,4.6308,4.6308,4.6308,4.6308,4.6308,4.6308,4.6308,4.6308,4.6308,4.6308,4.6543,4.6889,4.6889,4.7187,4.7578,4.7578,4.7656,4.7793,2.126,2.2122,2.2798,2.3015,2.4212,2.5514,2.6632,2.8336,2.9593,2.9868,3.0444,0.0,0.0,0.0,0.0,0.0,0.0,4.1095,3.9538,3.7191,3.5995,3.6259,2.6107,2.2747,2.7633,2.1915,1.8792,1.8617,1.8802,1.9117,1.9547,1.9909,2.0481,2.13,2.433,2.6814,2.8972,3.3428,3.753,4.1278,4.401,4.7682,5.1054,4.6655,4.7653,5.1345,5.084,4.9886,4.8357,4.4972,4.3145,4.2162,4.1406,4.0453,3.9768,4.0906,4.0115,3.8252,3.5146,3.4445,3.3391,2.8301,2.7409,2.6959,2.3884,0.0,2.4789,0.0,0.0,0.0,0.0,0.0,0.0,0.0,0.0,0.0,0.0,0.0,0.0,0.0,0.0,0.0,0.0,3.122,3.2539,3.9568,3.7885,3.922,4.5336,4.6445,4.687,4.687,4.6504,4.6289,4.6308,4.6308,4.6308,4.6308,4.6308,4.6308,4.6308,4.6308,4.6308,4.6308,4.6308,4.6308,4.6308,4.6308,4.6543,4.6889,4.6889,4.7187,4.7578,4.7578,4.7832,4.8183,2.2907,2.3174,2.3496,2.3346,2.4099,2.5159,2.6547,2.7778,2.9529,3.2291,3.2123,3.3992,3.993,3.827,3.8576,4.3322,4.4199,4.3635,4.1556,3.8641,3.6882,3.6701,2.8535,2.5147,2.755,2.3447,2.0787,1.9797,1.9943,2.0025,2.008,2.0513,2.1239,2.2335,2.4533,2.7541,3.1216,3.4703,3.7771,4.0448,4.1973,4.3636,4.5528,4.823,4.961,5.0098,4.9383,4.8456,4.7138,4.4601,4.344,4.3041,4.2861,4.1121,3.9592,4.2128,4.0998,3.8855,3.8401,3.936,3.9202,3.3729,3.2564,3.1543,2.6752,2.5371,0.0,0.0,0.0,0.0,0.0,0.0,0.0,0.0,0.0,0.0,0.0,0.0,0.0,0.0,0.0,0.0,0.0,0.0,0.0,3.7418,3.7532,3.9058,4.2891,4.5273,4.6387,4.6113,4.6504,4.6582,4.6308,4.6308,4.6308,4.6308,4.6308,4.6308,4.6308,4.6308,4.6308,4.6308,4.6308,4.6308,4.6308,4.6308,4.6543,4.6909,4.7246,4.7617,4.7988,4.7988,4.8086,4.8242,2.4154,2.3988,2.4091,2.3934,2.469,2.5676,2.6915,2.8512,3.0798,3.42,3.3955,3.5517,4.0958,3.9733,4.0039,4.3827,4.4167,4.392,4.3276,3.9579,3.7739,3.8515,3.173,2.8853,3.0825,2.6397,2.3571,2.2652,2.1235,2.066,2.087,2.1034,2.1593,2.2525,2.4054,2.711,3.137,3.4954,3.809,4.0854,4.2008,4.2902,4.397,4.777,4.8626,4.7705,4.7949,4.7657,4.6953,4.5547,4.5029,4.496,4.5085,4.3624,4.2348,4.4397,4.3553,4.1912,4.1753,4.2724,4.2643,3.759,3.6446,3.5098,2.9629,2.8086,2.7545,0.0,0.0,0.0,0.0,0.0,0.0,0.0,0.0,0.0,0.0,2.0995,0.0,0.0,0.0,0.0,0.0,0.0,0.0,0.0,0.0,0.0,0.0,4.4609,4.5957,4.5727,4.6484,4.6797,4.6523,4.6367,4.6367,4.6523,4.6367,4.6308,4.6308,4.6308,4.6308,4.6308,4.6308,4.6308,4.6308,4.6465,4.6777,4.7207,4.7637,4.8066,4.8437,4.8437,4.8437,4.8476,2.496,2.4562,2.458,2.4761,2.5842,2.6963,2.7719,3.0344,3.3106,3.5582,3.59,3.7022,3.9967,3.8493,3.8885,4.2876,4.2103,4.231,4.456,4.0169,3.8861,4.1926,3.5663,3.3755,3.7258,3.0553,2.6984,2.6851,2.2713,2.1144,2.1975,2.1553,2.1537,2.1862,2.2982,2.5625,2.9546,3.4337,3.879,4.2713,4.4235,4.5625,4.6582,4.5406,4.4682,4.45,4.6753,4.7558,4.7539,4.7519,4.7539,4.7623,4.7558,4.7558,4.7578,4.7578,4.7598,4.7168,4.5137,4.4609,4.3691,3.9863,3.8865,3.7477,3.2422,3.2187,3.2695,3.1426,0.0,0.0,0.0,0.0,0.0,0.0,0.0,0.0,0.0,0.0,0.0,0.0,0.0,0.0,0.0,0.0,0.0,0.0,0.0,0.0,0.0,4.4277,4.5449,4.5766,4.6445,4.6831,4.6909,4.6504,4.6484,4.6889,4.6504,4.6308,4.6308,4.6308,4.6308,4.6308,4.6308,4.6308,4.6328,4.6714,4.7187,4.7617,4.8047,4.8476,4.8913,4.8913,4.8913,4.8913,2.5414,2.5597,2.6119,2.6181,2.6347,2.6973,2.8384,3.0138,3.2678,3.6633,3.7945,3.9918,4.3611,4.3374,4.2702,4.2223,4.2136,4.2134,4.2159,3.991,4.0285,4.4058,3.9246,3.739,3.9372,3.3492,2.9933,2.9085,2.5261,2.3268,2.3002,2.2592,2.2285,2.2062,2.2754,2.5433,2.98,3.4044,3.9502,4.5176,4.365,4.3404,4.4021,4.4752,4.4682,4.446,4.64,4.709,4.7051,4.6738,4.7051,4.7519,4.7207,4.7324,4.7578,4.7578,4.7793,4.793,4.7383,4.7461,4.7056,4.4101,4.2402,4.0586,3.7344,3.6601,3.6328,3.5391,3.5619,3.5307,0.0,0.0,0.0,0.0,0.0,0.0,0.0,0.0,0.0,0.0,0.0,0.0,0.0,0.0,0.0,0.0,0.0,0.0,4.2637,4.1308,4.2305,4.6484,4.5855,4.6133,4.7402,4.6367,4.6211,4.6889,4.6504,4.6308,4.6308,4.6308,4.6308,4.6308,4.6308,4.6308,4.6328,4.6714,4.7187,4.7617,4.8047,4.8476,4.8913,4.8913,4.8913,4.8913,2.6447,2.7042,2.7781,2.7635,2.8497,2.9592,3.0778,3.1439,3.3377,3.7661,3.8865,4.0405,4.3239,4.408,4.3964,4.2743,4.215,4.1641,4.1111,4.003,4.0639,4.3366,4.1423,4.0653,4.1445,3.738,0.0,3.1751,2.779,2.506,2.3547,2.2569,2.195,2.173,2.2421,2.4867,2.8875,3.5152,4.0662,4.5098,4.4199,4.4305,0.0,4.4984,4.5144,4.553,4.6528,4.7006,4.7187,4.6933,4.7187,4.7539,4.7285,4.7383,4.7578,4.7578,4.7871,4.8203,4.8203,4.8535,4.8561,4.707,4.5957,4.4473,4.1484,4.0625,4.0254,3.9647,3.9021,3.8513,3.818,0.0,0.0,0.0,0.0,0.0,0.0,0.0,0.0,0.0,0.0,0.0,0.0,0.0,0.0,0.0,0.0,0.0,0.0,3.9674,4.1229,4.4842,4.4811,4.5293,4.6445,4.5,4.5058,4.6641,4.623,4.6133,4.6308,4.6308,4.6308,4.6308,4.6308,4.6308,4.6348,4.6953,4.7363,4.7637,4.8262,4.8679,4.8913,4.8913,4.8913,4.8913,2.7566,2.8446,2.9226,2.8999,3.1066,3.3124,3.4176,3.4195,3.5309,3.8723,3.9643,4.0359,4.1387,4.3027,4.3984,4.3808,4.2383,4.1484,4.1383,4.0778,4.0955,4.225,4.3151,4.3654,4.3713,4.1465,3.8418,3.4603,3.0185,2.6607,2.3828,2.2088,2.1269,2.1229,2.2108,2.4606,2.8703,3.6743,4.1699,4.4219,4.5195,4.6289,4.7187,4.5801,4.5914,4.6889,4.6948,4.7266,4.7578,4.7519,4.7558,4.7656,4.7656,4.7695,4.7779,4.7676,4.793,4.8203,4.8144,4.8398,4.8737,4.8737,4.8737,4.7955,4.4961,4.4297,4.4199,4.3948,4.1797,4.1093,4.4746,3.7734,0.0,0.0,0.0,0.0,0.0,0.0,0.0,0.0,0.0,0.0,0.0,0.0,0.0,0.0,0.0,0.0,0.0,0.0,4.0632,4.2704,4.3699,4.4453,4.4941,4.3513,4.3945,4.6133,4.5879,4.5957,4.6308,4.6308,4.6308,4.6308,4.6308,4.6308,4.6367,4.7226,4.7682,4.7877,4.862,4.8913,4.8913,4.8913,4.8913,4.8913,2.7819,2.8577,2.9387,2.9746,3.1371,3.3898,3.7645,3.9099,3.9843,4.0057,4.2682,4.4224,4.334,4.4805,4.543,4.4375,4.3652,4.3439,4.3774,4.3322,4.3906,4.5883,4.6133,4.6426,4.6777,4.4026,4.0781,3.7211,3.2216,2.7884,2.4277,2.2578,2.1582,2.1229,2.2108,2.6928,3.4577,3.723,4.1426,4.6289,4.5469,4.5488,4.6055,4.6445,4.6694,4.6928,4.7344,4.7519,4.7519,4.7168,4.7519,4.8105,4.8105,4.834,4.862,4.8203,4.8144,4.8125,4.7793,4.7754,4.7858,4.7858,4.7858,4.7734,4.748,4.7422,4.75,4.7838,4.7467,4.6489,4.4414,3.8555,0.0,0.0,0.0,0.0,0.0,0.0,0.0,0.0,0.0,0.0,0.0,0.0,0.0,0.0,0.0,0.0,0.0,0.0,3.6824,4.4302,4.3752,4.3691,4.4492,4.4902,4.5156,4.5254,4.5898,4.623,4.6308,4.6308,4.6308,4.6308,4.6308,4.6308,4.6367,4.7226,4.8033,4.8698,4.8855,4.8913,4.8913,4.8913,4.8913,4.8913,2.9424,2.9958,3.0726,3.162,3.3942,3.6637,3.9434,4.2129,4.3322,4.1935,4.305,4.375,4.3105,4.459,4.5391,4.4766,4.4316,4.4355,4.5019,4.4629,4.5058,4.6543,4.6772,4.6719,4.6269,4.5703,4.2734,3.7266,3.4089,2.9874,2.4707,2.2814,2.166,2.1346,2.4687,2.8965,3.3952,3.8633,4.2402,4.5332,4.6289,4.6797,4.7031,4.7441,4.7598,4.7617,4.7832,4.8047,4.819,4.748,4.7383,4.7578,4.7812,4.8027,4.819,4.7949,4.8027,4.8105,4.7695,4.7734,4.791,4.791,4.7734,4.7695,4.8105,4.8203,4.8262,4.8476,4.8737,4.7701,4.3769,3.9219,3.5293,0.0,0.0,0.0,0.0,0.0,0.0,0.0,0.0,0.0,0.0,0.0,0.0,0.0,0.0,0.0,0.0,0.0,3.6615,0.0,4.3148,4.3496,4.5039,4.457,4.4785,4.5683,4.6113,4.6308,4.6308,4.6308,4.6308,4.6308,4.6308,4.6426,4.6699,4.7558,4.8281,4.8913,4.8913,4.8913,4.8913,4.8913,4.8913,4.8913,3.181,3.2266,3.3025,3.4394,3.7051,3.9492,4.0976,4.3867,4.5391,4.3945,4.3457,4.3242,4.3242,4.4431,4.5293,4.5293,4.5078,4.5176,4.5781,4.5566,4.5723,4.6406,4.6714,4.6499,4.5723,4.7031,4.457,3.82,3.623,3.2148,2.6118,2.3518,2.25,2.3042,2.8047,3.1582,3.4206,4.0449,4.375,4.5,4.7285,4.8203,4.8203,4.8203,4.8203,4.8223,4.832,4.8516,4.8679,4.8047,4.7617,4.7402,4.7734,4.7897,4.7877,4.7734,4.7949,4.8105,4.7695,4.7812,4.8066,4.8066,4.7832,4.7656,4.7988,4.8066,4.8105,4.8183,4.8555,4.7643,4.3457,4.0781,3.8516,3.6333,0.0,0.0,0.0,0.0,0.0,0.0,0.0,0.0,0.0,0.0,0.0,0.0,0.0,0.0,3.5408,0.0,0.0,4.223,4.1955,4.2521,4.4285,4.3752,4.4297,4.5898,4.6172,4.6308,4.6308,4.6308,4.6348,4.6426,4.6426,4.6719,4.7201,4.793,4.8457,4.8913,4.8913,4.8913,4.8913,4.8913,4.8913,4.8913,3.4837,3.5667,3.6725,3.8359,3.959,4.1035,4.3086,4.4082,4.4922,4.5879,4.5957,4.5937,4.5937,4.6074,4.6191,4.6191,4.6504,4.6562,4.6269,4.6562,4.6733,4.6831,4.687,4.7182,4.7891,4.8066,4.6465,4.3047,3.9023,3.4531,2.9629,2.5527,2.5254,2.8293,3.1211,3.582,4.1445,4.2598,4.5179,4.8405,4.8242,4.8203,4.8203,4.8203,4.8203,4.8262,4.8698,4.8574,4.832,4.8679,4.8757,4.8737,4.8776,4.8776,4.8698,4.8262,4.8183,4.8105,4.7695,4.7617,4.7637,4.7637,4.7617,4.7598,4.7637,4.7637,4.7754,4.8125,4.8555,4.7818,4.4238,4.4609,4.3379,3.7016,0.0,0.0,0.0,0.0,0.0,0.0,0.0,0.0,0.0,0.0,0.0,0.0,2.8274,0.0,0.0,0.0,3.495,4.0373,3.9764,3.9411,3.9628,4.309,4.4746,4.459,4.5742,4.6308,4.6308,4.6308,4.6504,4.6831,4.6831,4.7324,4.8086,4.8164,4.8457,4.8913,4.8913,4.8913,4.8913,4.8913,4.8913,4.8913,3.8359,3.8125,3.8474,4.041,4.1269,4.2265,4.4199,4.5098,4.5723,4.623,4.6308,4.6406,4.6641,4.6445,4.6406,4.666,4.6792,4.6811,4.6699,4.707,4.7207,4.6889,4.7187,4.7363,4.7441,4.7695,4.6465,4.3711,3.9141,3.5053,3.1358,2.8809,2.9609,3.3308,3.6973,4.0293,4.3359,4.5879,4.7988,4.9656,4.918,4.9004,4.8965,4.8691,4.8594,4.8613,4.8835,4.8796,4.864,4.8496,4.8301,4.819,4.8379,4.8476,4.8437,4.8262,4.8203,4.8164,4.8008,4.7773,4.7637,4.7891,4.7773,4.7656,4.7891,4.7754,4.7682,4.7793,4.8164,4.8125,4.7056,4.5664,4.4355,4.3144,4.1426,0.0,0.0,0.0,0.0,0.0,0.0,0.0,0.0,0.0,0.0,0.0,0.0,0.0,0.0,0.0,3.444,3.8205,4.0855,4.2229,4.2229,4.4593,4.584,4.5937,4.6699,4.6797,4.6308,4.6308,4.6523,4.6889,4.7207,4.7656,4.8223,4.8496,4.8737,4.8913,4.8913,4.8913,4.8913,4.8913,4.8913,4.8913,4.1523,4.0918,4.0918,4.2949,4.3513,4.4079,4.5234,4.6133,4.6582,4.6328,4.6523,4.6738,4.687,4.6777,4.6797,4.709,4.7226,4.7246,4.7129,4.7519,4.7519,4.6909,4.7226,4.7246,4.6889,4.7226,4.6621,4.5019,4.0801,3.7555,3.5156,3.3574,3.4785,3.8437,4.1992,4.4336,4.5781,4.8555,4.9902,5.0137,4.9707,4.9484,4.9473,4.9023,4.8913,4.8913,4.8913,4.8913,4.8835,4.8359,4.793,4.7637,4.793,4.8027,4.8027,4.8027,4.8027,4.8027,4.8027,4.7891,4.7832,4.8125,4.8086,4.8008,4.8164,4.7891,4.7539,4.7422,4.793,4.8457,4.8679,4.6777,4.5449,4.6133,4.459,4.3555,0.0,4.4397,0.0,0.0,0.0,0.0,4.3236,0.0,0.0,0.0,0.0,0.0,0.0,0.0,0.0,0.0,0.0,4.2934,4.356,4.514,4.6269,4.6889,4.7246,4.707,4.6484,4.6621,4.6914,4.7324,4.7773,4.8125,4.8418,4.8776,4.8913,4.8913,4.8913,4.8913,4.8913,4.8913,4.8913,4.8913,4.4082,4.4336,4.4863,4.6518,4.6831,4.6738,4.6348,4.7012,4.7266,4.6406,4.7031,4.7402,4.6928,4.7305,4.7578,4.7578,4.7949,4.8008,4.7598,4.7969,4.7812,4.6928,4.6889,4.6889,4.6889,4.6889,4.7299,4.8164,4.5098,4.3164,4.2206,4.0098,4.0703,4.3691,4.5469,4.7676,5.0098,5.0156,5.0176,5.0137,4.9707,4.9484,4.9473,4.9023,4.8913,4.8913,4.8913,4.8913,4.8835,4.8359,4.793,4.7578,4.7623,4.7623,4.7623,4.7623,4.7623,4.7623,4.7623,4.7891,4.8203,4.8203,4.8535,4.8776,4.8301,4.7891,4.7461,4.6987,4.7949,4.8776,4.8301,4.8535,4.7603,4.3791,4.5234,4.5547,0.0,4.1269,0.0,4.1561,3.481,3.3113,4.0793,3.337,0.0,0.0,0.0,0.0,0.0,0.0,0.0,4.0117,3.9017,0.0,4.1599,4.3874,4.564,4.6889,4.6889,4.6889,4.6889,4.7363,4.7793,4.8223,4.8698,4.8894,4.8894,4.8913,4.8913,4.8913,4.8913,4.8913,4.8913,4.8913,4.8913,4.8913,4.5664,4.6172,4.6641,4.6831,4.7168,4.7324,4.7187,4.7402,4.748,4.7207,4.7656,4.7949,4.7812,4.7676,4.7695,4.7988,4.7871,4.7851,4.7988,4.8125,4.8086,4.7812,4.7201,4.6753,4.6504,4.6504,4.6914,4.7773,4.5039,4.3867,4.4138,4.3455,4.4941,4.8144,4.8691,4.957,5.0605,5.0605,5.0605,5.0547,4.9824,4.9336,4.8984,4.8307,4.8033,4.8033,4.8033,4.8164,4.8359,4.793,4.7891,4.7949,4.7676,4.7383,4.7187,4.75,4.7363,4.7324,4.8249,4.791,4.748,4.8066,4.8105,4.7949,4.7812,4.7441,4.7187,4.7344,4.7695,4.8027,4.8183,4.8555,4.8307,4.6489,4.7369,4.7617,4.5844,4.5547,4.559,4.5676,4.2699,4.1974,4.5343,3.9859,0.0,0.0,0.0,0.0,0.0,0.0,0.0,0.0,4.2053,4.3384,4.2641,4.4515,4.5957,4.6889,4.7226,4.7383,4.7383,4.7519,4.7812,4.8223,4.8359,4.8574,4.8913,4.8913,4.8913,4.8913,4.8913,4.8913,4.8913,4.8913,4.8913,4.8913,4.6836,4.7207,4.7539,4.7422,4.7637,4.7715,4.7383,4.7617,4.7637,4.7168,4.7754,4.8203,4.8203,4.8125,4.8209,4.8418,4.8203,4.8164,4.8437,4.8457,4.8379,4.8223,4.7695,4.7207,4.6797,4.6777,4.7207,4.8112,4.6777,4.6504,4.7207,4.7207,4.834,5.043,5.0586,5.0625,5.0586,5.0742,5.0625,5.0273,4.9551,4.9004,4.8535,4.7851,4.7578,4.7578,4.7578,4.7754,4.791,4.748,4.75,4.7656,4.7226,4.6914,4.6777,4.7207,4.7148,4.707,4.7715,4.7422,4.7006,4.7598,4.7656,4.7539,4.7383,4.7363,4.7402,4.7344,4.7598,4.7891,4.8164,4.8437,4.8542,4.817,4.8561,4.8718,4.819,4.7838,4.7154,4.593,0.0,4.454,0.0,4.2855,4.0916,0.0,0.0,0.0,0.0,0.0,3.9051,4.0541,4.3989,4.5332,4.4297,4.5371,4.6328,4.7187,4.7441,4.7656,4.7812,4.7812,4.8047,4.8457,4.8457,4.8659,4.8913,4.8913,4.8913,4.8913,4.8913,4.8913,4.8913,4.8913,4.8913,4.8913,4.75,4.7539,4.7715,4.8086,4.8183,4.7949,4.7084,4.7695,4.7773,4.6543,4.7422,4.8164,4.8164,4.8535,4.8815,4.8815,4.8835,4.8874,4.8913,4.8874,4.8698,4.8262,4.8203,4.7969,4.7623,4.7578,4.8073,4.8991,4.9832,5.0391,5.0801,5.0781,5.0762,5.0781,5.1172,5.0898,5.0156,5.0547,5.0215,4.9348,4.8945,4.8516,4.8066,4.7656,4.75,4.75,4.75,4.7519,4.748,4.707,4.6909,4.687,4.6523,4.6387,4.6465,4.6816,4.687,4.6772,4.6484,4.6641,4.685,4.687,4.7207,4.7383,4.7012,4.7539,4.7891,4.7084,4.7637,4.8203,4.8164,4.8223,4.8379,4.8796,4.8894,4.8874,4.8776,4.8047,4.6396,4.3332,4.2309,4.2191,4.2998,4.3155,4.4174,0.0,0.0,0.0,0.0,0.0,3.8865,4.4433,4.5019,4.5586,4.6289,4.6367,4.6816,4.7617,4.7656,4.7871,4.8262,4.8262,4.8476,4.8913,4.8913,4.8913,4.8913,4.8913,4.8913,4.8913,4.8913,4.8913,4.8913,4.8913,4.8913,4.8913,4.666,4.7129,4.7617,4.7715,4.7988,4.8144,4.793,4.8086,4.7988,4.7363,4.7539,4.7734,4.7734,4.7812,4.7936,4.7936,4.8183,4.8496,4.8874,4.8535,4.8457,4.8737,4.8086,4.7676,4.7578,4.7578,4.834,4.9863,5.0125,5.0391,5.0801,5.0469,5.0332,5.0332,5.043,5.0176,4.9687,4.9785,4.9316,4.8476,4.8047,4.7617,4.7143,4.6758,4.6601,4.6601,4.6601,4.6816,4.707,4.6928,4.7148,4.7402,4.7305,4.7285,4.7226,4.6992,4.6699,4.6582,4.7129,4.6875,4.6523,4.6811,4.6758,4.666,4.6875,4.7045,4.7266,4.7402,4.7851,4.8105,4.7793,4.8307,4.8679,4.8398,4.8679,4.8561,4.7519,4.7207,4.6426,4.4671,4.5183,4.5688,4.5883,4.6846,4.6444,4.3939,4.4179,4.4218,4.3762,4.2427,4.3252,4.6699,4.7226,4.707,4.6308,4.6953,4.7539,4.8066,4.8444,4.8659,4.8757,4.8757,4.8796,4.8913,4.8913,4.8913,4.8913,4.8913,4.8913,4.8913,4.8913,4.8913,4.8913,4.8913,4.8913,4.8913,4.7519,4.7897,4.8209,4.8209,4.8183,4.8144,4.7949,4.7754,4.748,4.7051,4.7168,4.7285,4.7285,4.7461,4.7578,4.7578,4.7793,4.8105,4.8535,4.834,4.832,4.8555,4.8125,4.7773,4.7578,4.7578,4.8144,4.9277,4.9687,5.0,5.0215,4.998,4.9766,4.9617,4.9617,4.9219,4.8652,4.8848,4.8418,4.7598,4.7383,4.7031,4.6621,4.6387,4.6308,4.6308,4.6308,4.6445,4.6641,4.6641,4.6797,4.6992,4.6992,4.6992,4.6953,4.6719,4.6621,4.6641,4.6914,4.6797,4.6641,4.6831,4.6621,4.6367,4.6601,4.6753,4.7006,4.75,4.7598,4.7676,4.7832,4.793,4.7969,4.793,4.7793,4.7441,4.6738,4.6484,4.625,4.5894,4.668,4.7383,4.7773,4.8483,4.7981,4.5762,4.5487,4.5467,4.5585,4.5075,4.5738,4.7793,4.7891,4.7676,4.7187,4.7637,4.7969,4.8203,4.8457,4.8718,4.8913,4.8913,4.8913,4.8913,4.8913,4.8913,4.8913,4.8913,4.8913,4.8913,4.8913,4.8913,4.8913,4.8913,4.8913,4.8874,4.8718,4.8718,4.8737,4.8796,4.8457,4.8086,4.7734,4.7363,4.6973,4.6543,4.6797,4.7031,4.7031,4.7363,4.7558,4.748,4.748,4.7656,4.8086,4.8105,4.8105,4.8105,4.8105,4.7949,4.7623,4.7578,4.7793,4.8203,4.8887,4.9211,4.927,4.9211,4.9023,4.8718,4.8718,4.8268,4.75,4.7871,4.7558,4.6792,4.6792,4.6621,4.6308,4.6308,4.6308,4.6308,4.6308,4.6308,4.6308,4.6308,4.6308,4.6308,4.6308,4.6308,4.6308,4.6308,4.6562,4.6714,4.6406,4.6562,4.6792,4.6792,4.6562,4.6308,4.6308,4.6621,4.7006,4.75,4.7344,4.7344,4.8066,4.7676,4.7168,4.7012,4.666,4.6211,4.5703,4.5762,4.6113,4.6758,4.7383,4.8112,4.8835,4.8913,4.8913,4.8913,4.7773,4.7637,4.8835,4.7363,4.7051,4.8262,4.7891,4.7871,4.8301,4.8242,4.8242,4.8301,4.8301,4.8496,4.8913,4.8913,4.8913,4.8913,4.8913,4.8913,4.8913,4.8913,4.8913,4.8913,4.8913,4.8913,4.8913,4.8913,4.8913,4.8835,4.7773,4.7773,4.7891,4.8242,4.8262,4.8183,4.8125,4.8047,4.7851,4.7441,4.7441,4.748,4.748,4.7539,4.7441,4.7026,4.7031,4.7207,4.7656,4.7676,4.7676,4.7676,4.7676,4.7656,4.7578,4.7578,4.7793,4.8203,4.7988,4.8066,4.8398,4.8047,4.7851,4.7773,4.7773,4.75,4.6987,4.709,4.6855,4.6406,4.6406,4.6367,4.6308,4.6308,4.6308,4.6308,4.6308,4.6308,4.6308,4.6308,4.6308,4.6308,4.6308,4.6308,4.6308,4.6308,4.6348,4.6387,4.6328,4.6348,4.6406,4.6406,4.6348,4.6308,4.6308,4.6621,4.7006,4.75,4.7812,4.8047,4.8183,4.8398,4.7682,4.4766,4.5723,4.582,4.291,4.4941,4.6641,4.6426,4.7779,4.8757,4.8894,4.8913,4.8913,4.8913,4.832,4.8262,4.8874,4.7955,4.7858,4.8776,4.834,4.832,4.8796,4.8398,4.8398,4.8796,4.8796,4.8835,4.8913,4.8913,4.8913,4.8913,4.8913,4.8913,4.8913,4.8913,4.8913,4.8913,4.8913,4.8913,4.8913,4.8913,4.8913,4.8835,4.8307,4.8307,4.8366,4.8516,4.8359,4.8203,4.8203,4.8008,4.7793,4.7598,4.7578,4.7578,4.7578,4.7578,4.75,4.7305,4.7285,4.7363,4.7578,4.7363,4.7226,4.7226,4.7226,4.7129,4.6894,4.6894,4.6992,4.7187,4.7207,4.7324,4.7519,4.7324,4.7226,4.7226,4.6992,4.6777,4.6601,4.6601,4.6484,4.6308,4.6308,4.6445,4.6621,4.6387,4.6582,4.6953,4.6719,4.6797,4.6992,4.6992,4.6992,4.6992,4.6992,4.6836,4.6641,4.6641,4.6484,4.6348,4.6582,4.6484,4.6367,4.6582,4.6465,4.6367,4.6582,4.6621,4.6777,4.7441,4.7363,4.7246,4.748,4.7676,4.7305,4.5703,4.6094,4.6035,4.4453,4.5781,4.6811,4.666,4.7949,4.8913,4.8913,4.8913,4.8913,4.8913,4.8718,4.8698,4.8894,4.8262,4.8203,4.8894,4.8718,4.8698,4.8913,4.8698,4.8698,4.8913,4.8913,4.8913,4.8913,4.8913,4.8913,4.8913,4.8913,4.8913,4.8913,4.8913,4.8913,4.8913,4.8913,4.8913,4.8913,4.8913,4.8757,4.8437,4.8913,4.8913,4.8913,4.8913,4.8574,4.8359,4.8359,4.8086,4.7916,4.7916,4.7916,4.7916,4.7916,4.7916,4.7877,4.7734,4.7734,4.7676,4.7623,4.7266,4.709,4.709,4.6948,4.6777,4.6465,4.6348,4.6308,4.6308,4.6621,4.6777,4.6777,4.6777,4.6777,4.6777,4.6445,4.6308,4.6308,4.6406,4.6445,4.6465,4.6562,4.6797,4.7051,4.6719,4.7012,4.7539,4.7207,4.7285,4.7578,4.7578,4.7578,4.7578,4.7578,4.7344,4.7051,4.6909,4.6641,4.6367,4.6699,4.6543,4.6387,4.6699,4.6543,4.6387,4.6719,4.6543,4.6523,4.7266,4.6914,4.6601,4.7129,4.7148,4.6914,4.6382,4.6308,4.6172,4.5762,4.6406,4.6967,4.7162,4.8183,4.8913,4.8913,4.8913,4.8913,4.8913,4.8815,4.8796,4.8894,4.8437,4.8418,4.8894,4.8913,4.8913,4.8913,4.8913,4.8913,4.8913,4.8913,4.8913,4.8913,4.8913,4.8913,4.8913,4.8913,4.8913,4.8913,4.8913,4.8913,4.8913,4.8913,4.8913,4.8894,4.8796,4.8496,4.8125,4.8913,4.8913,4.8913,4.8913,4.8874,4.8855,4.8855,4.8835,4.8815,4.8815,4.8815,4.8815,4.8815,4.8815,4.864,4.8203,4.8164,4.7988,4.7598,4.7558,4.7539,4.7539,4.7148,4.687,4.6831,4.6504,4.6308,4.6308,4.6328,4.6348,4.6348,4.6348,4.6348,4.6348,4.6308,4.6308,4.6328,4.6719,4.6831,4.687,4.7324,4.75,4.7519,4.75,4.7519,4.7623,4.7539,4.7558,4.7578,4.7578,4.7578,4.7578,4.7578,4.7558,4.7441,4.7051,4.6641,4.6308,4.6348,4.6328,4.6308,4.6348,4.6328,4.6308,4.6348,4.6328,4.6426,4.6831,4.6889,4.7084,4.7969,4.7793,4.6894,4.4902,4.5547,4.5742,4.4121,4.5644,4.7182,4.8027,4.86,4.8913,4.8913,4.8913,4.8913,4.8913,4.8476,4.8437,4.8874,4.8437,4.8418,4.8894,4.8913,4.8913,4.8913,4.8913,4.8913,4.8913,4.8913,4.8913,4.8913,4.8913,4.8913,4.8913,4.8913,4.8913,4.8913,4.8913,4.8913,4.8913,4.8913,4.8913,4.8855,4.8398,4.8242,4.8086,4.8913,4.8913,4.8913,4.8913,4.8913,4.8913,4.8913,4.8913,4.8913,4.8913,4.8913,4.8913,4.8913,4.8913,4.8835,4.8679,4.8613,4.8581,4.8424,4.8424,4.819,4.7598,4.7422,4.7324,4.7324,4.7168,4.709,4.709,4.709,4.709,4.709,4.709,4.709,4.709,4.709,4.709,4.7109,4.7266,4.7324,4.7344,4.7519,4.7734,4.793,4.7676,4.7955,4.8385,4.8066,4.8144,4.8424,4.8424,4.8424,4.8424,4.8424,4.8183,4.7891,4.7461,4.7031,4.6699,4.6699,4.6504,4.6308,4.6308,4.6308,4.6367,4.6641,4.6484,4.6504,4.7187,4.7109,4.6987,4.7299,4.7715,4.7617,4.6543,4.7226,4.7701,4.7036,4.7617,4.8242,4.8574,4.8796,4.8913,4.8913,4.8913,4.8913,4.8913,4.8757,4.8718,4.8894,4.8737,4.8737,4.8894,4.8913,4.8913,4.8913,4.8913,4.8913,4.8913,4.8913,4.8913,4.8913,4.8913,4.8913,4.8913,4.8913,4.8913,4.8874,4.8574,4.8457,4.8418,4.8209,4.8112,4.8092,4.7871,4.7656,4.7363,4.8913,4.8913,4.8913,4.8913,4.8913,4.8913,4.8913,4.8913,4.8913,4.8913,4.8913,4.8913,4.8913,4.8913,4.8913,4.8913,4.8913,4.8913,4.8913,4.8913,4.864,4.8053,4.7851,4.7773,4.7773,4.7656,4.7578,4.7578,4.7578,4.7578,4.7578,4.7578,4.7578,4.7578,4.7578,4.7578,4.7598,4.7715,4.7773,4.7793,4.793,4.8144,4.8379,4.8086,4.8385,4.8855,4.8516,4.8659,4.8913,4.8913,4.8913,4.8913,4.8913,4.86,4.8144,4.7851,4.7461,4.7129,4.7129,4.6933,4.6641,4.6367,4.6308,4.6367,4.666,4.6504,4.6504,4.7226,4.7031,4.6816,4.709,4.75,4.7793,4.7773,4.8262,4.8757,4.8894,4.8913,4.8913,4.8913,4.8913,4.8913,4.8913,4.8913,4.8913,4.8913,4.8913,4.8913,4.8913,4.8913,4.8913,4.8913,4.8913,4.8913,4.8913,4.8913,4.8913,4.8913,4.8913,4.8913,4.8913,4.8913,4.8913,4.8894,4.8757,4.8698,4.8659,4.8183,4.8008,4.7969,4.7695,4.7578,4.7558,4.7422,4.7187,4.687,4.8913,4.8913,4.8913,4.8913,4.8913,4.8913,4.8913,4.8913,4.8913,4.8913,4.8913,4.8913,4.8913,4.8913,4.8913,4.8913,4.8913,4.8913,4.8913,4.8913,4.8913,4.8913,4.8437,4.8223,4.8223,4.7793,4.7598,4.7598,4.7598,4.7598,4.7598,4.7598,4.7598,4.7598,4.7598,4.7598,4.7617,4.8027,4.8223,4.8242,4.8737,4.8913,4.8913,4.8913,4.8913,4.8913,4.8913,4.8913,4.8913,4.8913,4.8913,4.8913,4.8913,4.8555,4.8223,4.8223,4.791,4.7578,4.7578,4.7578,4.7383,4.6523,4.6308,4.6308,4.6308,4.6308,4.6426,4.6792,4.6601,4.6562,4.7422,4.7226,4.7162,4.8066,4.8203,4.8359,4.8835,4.8913,4.8913,4.8913,4.8913,4.8913,4.8913,4.8894,4.8894,4.8894,4.8894,4.8894,4.8894,4.8894,4.8894,4.8894,4.8894,4.8894,4.8894,4.8894,4.8913,4.8913,4.8913,4.8913,4.8913,4.8894,4.8894,4.8874,4.8398,4.8203,4.8164,4.7754,4.7578,4.7578,4.7578,4.7578,4.7519,4.709,4.6889,4.6831,4.8972,4.8913,4.8913,4.8913,4.8913,4.8913,4.8913,4.8913,4.8913,4.8913,4.8913,4.8913,4.8913,4.8913,4.8913,4.8913,4.8913,4.8913,4.8913,4.8913,4.8913,4.8913,4.8776,4.8718,4.8718,4.8581,4.8522,4.8522,4.8522,4.8522,4.8522,4.8522,4.8522,4.8522,4.8522,4.8522,4.8522,4.8659,4.8718,4.8718,4.8855,4.8913,4.8913,4.8913,4.8913,4.8913,4.8913,4.8913,4.8913,4.8913,4.8913,4.8913,4.8913,4.8815,4.8718,4.8718,4.8359,4.8027,4.8027,4.7793,4.7441,4.6875,4.6738,4.666,4.6367,4.6308,4.6426,4.6792,4.6772,4.6816,4.707,4.7266,4.748,4.7734,4.8008,4.8359,4.8835,4.8913,4.8913,4.8913,4.8913,4.8913,4.8913,4.8574,4.8398,4.8398,4.8125,4.8014,4.8014,4.8014,4.8014,4.8014,4.8014,4.8014,4.8014,4.86,4.8913,4.8913,4.8913,4.8913,4.8894,4.8535,4.8398,4.8379,4.7949,4.7773,4.7734,4.7305,4.7129,4.709,4.6797,4.668,4.666,4.6543,4.6484,4.6465,4.9441,4.9422,4.9382,4.916,4.9121,4.9062,4.8933,4.8913,4.8913,4.8913,4.8913,4.8913,4.8913,4.8913,4.8913,4.8913,4.8913,4.8913,4.8913,4.8913,4.8913,4.8913,4.8913,4.8913,4.8913,4.8913,4.8913,4.8913,4.8913,4.8913,4.8913,4.8913,4.8913,4.8913,4.8913,4.8913,4.8913,4.8913,4.8913,4.8913,4.8913,4.8913,4.8913,4.8913,4.8913,4.8913,4.8913,4.8913,4.8913,4.8913,4.8913,4.8913,4.8913,4.8913,4.8913,4.8913,4.8718,4.8476,4.8476,4.8281,4.7988,4.7539,4.7187,4.6855,4.6601,4.6426,4.6426,4.6792,4.6753,4.6738,4.685,4.7148,4.7324,4.7324,4.7676,4.8047,4.8366,4.8405,4.8405,4.8405,4.8405,4.8405,4.8405,4.8125,4.7949,4.7949,4.7715,4.7578,4.7578,4.7578,4.7578,4.7578,4.7578,4.7578,4.7578,4.8131,4.8405,4.8405,4.8405,4.8405,4.8385,4.8086,4.7949,4.793,4.7519,4.7324,4.7285,4.6855,4.668,4.666,4.6406,4.6308,4.6308,4.6308,4.6308,4.6308,5.0098,5.0176,5.0058,4.9648,4.9543,4.9433,4.9031,4.8972,4.8952,4.8913,4.8913,4.8913,4.8913,4.8913,4.8913,4.8913,4.8913,4.8913,4.8913,4.8913,4.8913,4.8913,4.8913,4.8913,4.8913,4.8913,4.8913,4.8913,4.8913,4.8913,4.8913,4.8913,4.8913,4.8913,4.8913,4.8913,4.8913,4.8913,4.8913,4.8913,4.8913,4.8913,4.8913,4.8913,4.8913,4.8913,4.8913,4.8913,4.8913,4.8913,4.8913,4.8913,4.8913,4.8913,4.8913,4.8913,4.8913,4.8913,4.8913,4.8913,4.8815,4.8359,4.7656,4.6987,4.6948,4.6699,4.6523,4.6914,4.668,4.6523,4.6831,4.6889,4.6889,4.6889,4.7266,4.7539,4.7578,4.7578,4.7578,4.7578,4.7578,4.7578,4.7578,4.7539,4.75,4.7461,4.7461,4.7461,4.7461,4.7461,4.7461,4.7461,4.7461,4.7461,4.7461,4.7461,4.75,4.7578,4.7578,4.7578,4.7578,4.7539,4.7519,4.75,4.707,4.6831,4.6792,4.6465,4.6308,4.6308,4.6308,4.6308,4.6308,4.6308,4.6308,4.6308,5.0215,5.0176,5.0156,5.0058,5.0039,4.9883,4.9453,4.9375,4.9258,4.8952,4.8913,4.8913,4.8913,4.8913,4.8913,4.8913,4.8913,4.8913,4.8913,4.8913,4.8913,4.8913,4.8913,4.8913,4.8913,4.8913,4.8913,4.8913,4.8913,4.8913,4.8913,4.8913,4.8913,4.8913,4.8913,4.8913,4.8913,4.8913,4.8913,4.8913,4.8913,4.8913,4.8913,4.8913,4.8913,4.8913,4.8913,4.8913,4.8913,4.8913,4.8913,4.8913,4.8913,4.8913,4.8913,4.8913,4.8913,4.8913,4.8913,4.8913,4.8874,4.8776,4.832,4.7851,4.7519,4.7363,4.7324,4.7422,4.7363,4.7226,4.6928,4.6889,4.6889,4.6889,4.7012,4.7187,4.7539,4.7578,4.7578,4.7578,4.7578,4.7578,4.7578,4.7266,4.6933,4.6601,4.6582,4.6582,4.6582,4.6582,4.6582,4.6582,4.6582,4.6582,4.6582,4.6582,4.6914,4.7578,4.7578,4.7578,4.7578,4.7226,4.707,4.7051,4.6621,4.6445,4.6426,4.6348,4.6308,4.6308,4.6308,4.6308,4.6308,4.6308,4.6308,4.6308,5.0781,5.0781,5.0723,5.0508,5.0469,5.0332,4.9902,4.9844,4.9746,4.9558,4.9316,4.918,4.918,4.9031,4.8913,4.8913,4.8913,4.8913,4.8913,4.8913,4.8913,4.8913,4.8913,4.8913,4.8913,4.8913,4.8913,4.8913,4.8913,4.8913,4.8913,4.8913,4.8913,4.8913,4.8913,4.8913,4.8913,4.8913,4.8913,4.8913,4.8913,4.8913,4.8913,4.8913,4.8913,4.8913,4.8913,4.8913,4.8913,4.8913,4.8913,4.8913,4.8913,4.8913,4.8913,4.8913,4.8913,4.8913,4.8913,4.8913,4.8913,4.8913,4.8737,4.8398,4.7969,4.7715,4.7578,4.7578,4.7578,4.7519,4.7285,4.707,4.6889,4.6889,4.6758,4.6719,4.6933,4.6973,4.6973,4.6973,4.6973,4.6973,4.6973,4.6758,4.6543,4.6328,4.6308,4.6308,4.6308,4.6308,4.6308,4.6308,4.6308,4.6308,4.6308,4.6308,4.6523,4.6973,4.6973,4.6973,4.6973,4.6738,4.6641,4.6621,4.6406,4.6308,4.6308,4.6308,4.6308,4.6308,4.6308,4.6308,4.6308,4.6308,4.6308,4.6308,5.1319,5.1377,5.128,5.0976,5.0918,5.0781,5.0351,5.0293,5.0254,5.0195,4.9863,4.9648,4.9648,4.9297,4.9089,4.9031,4.9011,4.8991,4.8913,4.8913,4.8913,4.8913,4.8913,4.8913,4.8913,4.8913,4.8913,4.8913,4.8913,4.8913,4.8913,4.8913,4.8913,4.8913,4.8913,4.8913,4.8913,4.8913,4.8913,4.8913,4.8913,4.8913,4.8913,4.8913,4.8913,4.8913,4.8913,4.8913,4.8913,4.8913,4.8913,4.8913,4.8913,4.8913,4.8913,4.8913,4.8913,4.8913,4.8913,4.8913,4.8913,4.8913,4.8913,4.8815,4.8398,4.8047,4.7793,4.7793,4.7793,4.7773,4.7695,4.7383,4.7129,4.7006,4.668,4.6406,4.6406,4.6348,4.6308,4.6308,4.6308,4.6308,4.6308,4.6308,4.6308,4.6308,4.6308,4.6308,4.6308,4.6308,4.6308,4.6308,4.6308,4.6308,4.6308,4.6308,4.6308,4.6308,4.6308,4.6308,4.6308,4.6308,4.6308,4.6308,4.6308,4.6308,4.6308,4.6308,4.6308,4.6308,4.6308,4.6308,4.6308,4.6308,4.6308,4.6308,5.1377,5.1377,5.1358,5.1319,5.1299,5.1211,5.0781,5.0723,5.0586,5.0282,5.0117,5.0098,5.0098,5.0086,4.9844,4.9473,4.9433,4.9277,4.8933,4.8913,4.8913,4.8913,4.8913,4.8913,4.8913,4.8913,4.8913,4.8913,4.8913,4.8913,4.8913,4.8913,4.8913,4.8913,4.8913,4.8913,4.8913,4.8913,4.8913,4.8913,4.8913,4.8913,4.8913,4.8913,4.8913,4.8913,4.8913,4.8913,4.8913,4.8913,4.8913,4.8913,4.8913,4.8913,4.8913,4.8913,4.8913,4.8913,4.8913,4.8913,4.8913,4.8913,4.8913,4.8894,4.8835,4.8776,4.8737,4.8737,4.8737,4.862,4.8183,4.8066,4.791,4.7539,4.7129,4.6792,4.6792,4.6523,4.6308,4.6308,4.6308,4.6308,4.6308,4.6308,4.6308,4.6308,4.6308,4.6308,4.6308,4.6308,4.6308,4.6308,4.6308,4.6308,4.6308,4.6308,4.6308,4.6308,4.6308,4.6308,4.6308,4.6308,4.6308,4.6308,4.6308,4.6308,4.6308,4.6308,4.6308,4.6308,4.6308,4.6308,4.6308,4.6308,4.6308,4.6308,5.1377,5.1377,5.1377,5.1377,5.1377,5.1319,5.1172,5.1152,5.1094,5.0898,5.0664,5.0527,5.0527,5.0312,5.0098,4.9902,4.9668,4.9433,4.9238,4.905,4.8913,4.8913,4.8913,4.8913,4.8913,4.8913,4.8913,4.8913,4.8913,4.8913,4.8913,4.8913,4.8913,4.8913,4.9121,4.9238,4.9238,4.9238,4.9238,4.9219,4.9011,4.8913,4.8913,4.8913,4.8913,4.8913,4.8913,4.8913,4.8913,4.8913,4.8913,4.8913,4.8913,4.8913,4.8913,4.8913,4.8913,4.8913,4.8913,4.8913,4.8913,4.8913,4.8913,4.8913,4.8913,4.8913,4.8913,4.8913,4.8913,4.8855,4.8659,4.8379,4.8144,4.7969,4.7578,4.7285,4.7285,4.7129,4.6933,4.668,4.6445,4.6308,4.6308,4.6308,4.6308,4.6308,4.6308,4.6308,4.6308,4.6308,4.6308,4.6308,4.6308,4.6308,4.6308,4.6308,4.6308,4.6308,4.6308,4.6308,4.6308,4.6308,4.6308,4.6308,4.6308,4.6308,4.6308,4.6308,4.6308,4.6308,4.6308,4.6308,4.6308,4.6308,4.6308,4.6308]},{"header":{"parameterUnit":"m.s-1","parameterCategory":1,"la1":30.6,"la2":28.766,"lo1":-90.7593,"lo2":-88.6598,"dx":0.0162,"dy":0.0183,"nx":116,"ny":114,"refTime":"2022-11-16T18:00:00:Z","depth":0,"parameterNumber":3,"parameterNumberName":"V-component_of_WINDS"},"data":[0.0,0.0,0.0,0.0,0.0,0.0,0.0,0.0,0.0,0.0,0.0,0.0,0.0,0.0,0.0,0.0,0.0,0.0,0.0,0.0,0.0,0.0,0.0,0.0,0.0,0.0,0.0,0.0,0.0,0.0,0.0,0.0,0.0,0.0,0.0,0.0,0.0,0.0,0.0,0.0,0.0,0.0,0.0,0.0,0.0,0.0,0.0,0.0,0.0,0.0,0.0,0.0,0.0,0.0,0.0,0.0,0.0,0.0,0.0,0.0,0.0,0.0,0.0,0.0,0.0,0.0,0.0,0.0,0.0,0.0,0.0,0.0,0.0,0.0,0.0,0.0,0.0,0.0,0.0,0.0,0.0,0.0,0.0,0.0,0.0,0.0,0.0,0.0,0.0,0.0,0.0,0.0,0.0,0.0,0.0,0.0,0.0,0.0,0.0,0.0,0.0,0.0,0.0,0.0,0.0,0.0,0.0,0.0,0.0,0.0,0.0,0.0,0.0,0.0,0.0,0.0,0.0,0.0,0.0,0.0,0.0,0.0,0.0,0.0,0.0,0.0,0.0,0.0,0.0,0.0,0.0,0.0,0.0,0.0,0.0,0.0,0.0,0.0,0.0,0.0,0.0,0.0,0.0,0.0,0.0,0.0,0.0,0.0,0.0,0.0,0.0,0.0,0.0,0.0,0.0,0.0,0.0,0.0,0.0,0.0,0.0,0.0,0.0,0.0,0.0,0.0,0.0,0.0,0.0,0.0,0.0,0.0,0.0,0.0,0.0,0.0,0.0,0.0,0.0,0.0,0.0,0.0,0.0,0.0,0.0,0.0,0.0,0.0,0.0,0.0,0.0,0.0,0.0,0.0,0.0,0.0,0.0,0.0,0.0,0.0,0.0,0.0,0.0,0.0,0.0,0.0,0.0,0.0,0.0,0.0,0.0,0.0,0.0,0.0,0.0,0.0,0.0,0.0,0.0,0.0,0.0,0.0,0.0,0.0,0.0,0.0,0.0,0.0,0.0,0.0,0.0,0.0,0.0,0.0,0.0,0.0,0.0,0.0,0.0,0.0,0.0,0.0,0.0,0.0,0.0,0.0,0.0,0.0,0.0,0.0,0.0,0.0,0.0,0.0,0.0,0.0,0.0,0.0,0.0,0.0,0.0,0.0,0.0,0.0,0.0,0.0,0.0,0.0,0.0,0.0,0.0,0.0,0.0,0.0,0.0,0.0,0.0,0.0,0.0,0.0,0.0,0.0,0.0,0.0,0.0,0.0,0.0,0.0,0.0,0.0,0.0,0.0,0.0,0.0,0.0,0.0,0.0,0.0,0.0,0.0,0.0,0.0,0.0,0.0,0.0,0.0,0.0,0.0,0.0,0.0,0.0,0.0,0.0,0.0,0.0,0.0,0.0,0.0,0.0,0.0,0.0,0.0,0.0,0.0,0.0,0.0,0.0,0.0,0.0,0.0,0.0,0.0,0.0,0.0,0.0,0.0,0.0,0.0,0.0,0.0,0.0,0.0,0.0,0.0,0.0,0.0,0.0,0.0,0.0,0.0,0.0,0.0,0.0,0.0,0.0,0.0,0.0,0.0,0.0,0.0,0.0,0.0,0.0,0.0,0.0,0.0,0.0,0.0,0.0,0.0,0.0,0.0,0.0,0.0,0.0,0.0,0.0,0.0,0.0,0.0,0.0,0.0,0.0,0.0,0.0,0.0,0.0,0.0,0.0,0.0,0.0,0.0,0.0,0.0,0.0,0.0,0.0,0.0,0.0,0.0,0.0,0.0,0.0,0.0,0.0,0.0,0.0,0.0,0.0,0.0,0.0,0.0,0.0,0.0,0.0,0.0,0.0,0.0,0.0,0.0,0.0,0.0,0.0,0.0,0.0,0.0,0.0,0.0,0.0,0.0,0.0,0.0,0.0,0.0,0.0,0.0,0.0,0.0,0.0,0.0,0.0,0.0,0.0,0.0,0.0,0.0,0.0,0.0,0.0,0.0,0.0,0.0,0.0,0.0,0.0,0.0,0.0,0.0,0.0,0.0,0.0,0.0,0.0,0.0,0.0,0.0,0.0,0.0,0.0,0.0,0.0,0.0,0.0,0.0,0.0,0.0,0.0,0.0,0.0,0.0,0.0,0.0,0.0,0.0,0.0,0.0,0.0,0.0,0.0,0.0,0.0,0.0,0.0,0.0,0.0,0.0,0.0,0.0,0.0,0.0,0.0,0.0,0.0,0.0,0.0,0.0,0.0,0.0,0.0,0.0,0.0,0.0,0.0,0.0,0.0,0.0,0.0,0.0,0.0,0.0,0.0,0.0,0.0,0.0,0.0,0.0,0.0,0.0,0.0,0.0,0.0,0.0,0.0,0.0,0.0,0.0,0.0,0.0,0.0,0.0,0.0,0.0,0.0,0.0,0.0,0.0,0.0,0.0,0.0,0.0,0.0,0.0,0.0,0.0,0.0,0.0,0.0,0.0,0.0,0.0,0.0,0.0,0.0,0.0,0.0,0.0,0.0,0.0,0.0,0.0,0.0,0.0,0.0,0.0,0.0,0.0,0.0,0.0,0.0,0.0,0.0,0.0,0.0,0.0,0.0,0.0,0.0,0.0,0.0,0.0,0.0,0.0,0.0,0.0,0.0,0.0,0.0,0.0,0.0,0.0,0.0,0.0,0.0,0.0,0.0,0.0,0.0,0.0,0.0,0.0,0.0,0.0,0.0,0.0,0.0,0.0,0.0,0.0,0.0,0.0,0.0,0.0,0.0,0.0,0.0,0.0,0.0,0.0,0.0,0.0,0.0,0.0,0.0,0.0,0.0,0.0,0.0,0.0,0.0,0.0,0.0,0.0,0.0,0.0,0.0,0.0,0.0,0.0,0.0,0.0,0.0,0.0,0.0,0.0,0.0,0.0,0.0,0.0,0.0,0.0,0.0,0.0,0.0,0.0,0.0,0.0,0.0,0.0,0.0,0.0,0.0,0.0,0.0,0.0,0.0,0.0,0.0,0.0,0.0,0.0,0.0,0.0,0.0,0.0,0.0,0.0,0.0,0.0,0.0,0.0,0.0,0.0,0.0,0.0,0.0,0.0,0.0,0.0,0.0,0.0,0.0,0.0,0.0,0.0,0.0,0.0,0.0,0.0,0.0,0.0,0.0,0.0,0.0,0.0,0.0,0.0,0.0,0.0,0.0,0.0,0.0,0.0,0.0,0.0,0.0,0.0,0.0,0.0,0.0,0.0,0.0,0.0,0.0,0.0,0.0,0.0,0.0,0.0,0.0,0.0,0.0,0.0,0.0,0.0,0.0,0.0,0.0,0.0,0.0,0.0,0.0,0.0,0.0,0.0,0.0,0.0,0.0,0.0,0.0,0.0,0.0,0.0,0.0,0.0,0.0,0.0,0.0,0.0,0.0,0.0,0.0,0.0,0.0,0.0,0.0,0.0,0.0,0.0,0.0,0.0,0.0,0.0,0.0,0.0,0.0,0.0,0.0,0.0,0.0,0.0,0.0,0.0,0.0,0.0,0.0,0.0,0.0,0.0,0.0,0.0,0.0,0.0,0.0,0.0,0.0,0.0,0.0,0.0,0.0,0.0,0.0,0.0,0.0,0.0,0.0,0.0,0.0,0.0,0.0,0.0,0.0,0.0,0.0,0.0,0.0,0.0,0.0,0.0,0.0,0.0,0.0,0.0,0.0,0.0,0.0,0.0,0.0,0.0,0.0,0.0,0.0,0.0,0.0,0.0,0.0,0.0,0.0,0.0,0.0,0.0,0.0,0.0,0.0,0.0,0.0,0.0,0.0,0.0,0.0,0.0,0.0,0.0,0.0,0.0,0.0,0.0,0.0,0.0,0.0,0.0,0.0,0.0,0.0,0.0,0.0,0.0,0.0,0.0,0.0,0.0,0.0,0.0,0.0,0.0,0.0,0.0,0.0,0.0,0.0,0.0,0.0,0.0,0.0,0.0,0.0,0.0,0.0,0.0,0.0,0.0,0.0,0.0,0.0,0.0,0.0,0.0,0.0,0.0,0.0,0.0,0.0,0.0,0.0,0.0,0.0,0.0,0.0,0.0,0.0,0.0,0.0,0.0,0.0,0.0,0.0,0.0,0.0,0.0,0.0,0.0,0.0,0.0,0.0,0.0,0.0,0.0,0.0,0.0,0.0,0.0,0.0,0.0,0.0,0.0,0.0,0.0,0.0,0.0,0.0,0.0,0.0,0.0,0.0,0.0,0.0,0.0,0.0,0.0,0.0,0.0,0.0,0.0,0.0,0.0,0.0,0.0,0.0,0.0,0.0,0.0,0.0,0.0,0.0,0.0,0.0,0.0,0.0,0.0,0.0,0.0,0.0,0.0,0.0,0.0,0.0,0.0,0.0,0.0,0.0,0.0,0.0,0.0,0.0,0.0,0.0,0.0,0.0,0.0,0.0,0.0,0.0,0.0,0.0,0.0,0.0,0.0,0.0,0.0,0.0,0.0,0.0,0.0,0.0,0.0,0.0,0.0,0.0,0.0,0.0,0.0,0.0,0.0,0.0,0.0,0.0,0.0,0.0,0.0,0.0,0.0,0.0,0.0,0.0,0.0,0.0,0.0,0.0,0.0,0.0,0.0,0.0,0.0,0.0,0.0,0.0,0.0,0.0,0.0,0.0,0.0,0.0,0.0,0.0,0.0,0.0,0.0,0.0,0.0,0.0,0.0,0.0,0.0,0.0,0.0,0.0,0.0,0.0,0.0,0.0,0.0,0.0,0.0,0.0,0.0,0.0,0.0,0.0,0.0,0.0,0.0,0.0,0.0,0.0,0.0,0.0,0.0,0.0,0.0,0.0,0.0,0.0,0.0,0.0,0.0,0.0,0.0,0.0,0.0,0.0,0.0,0.0,0.0,0.0,0.0,0.0,0.0,0.0,0.0,0.0,0.0,0.0,0.0,0.0,0.0,0.0,0.0,0.0,0.0,0.0,0.0,0.0,0.0,0.0,0.0,0.0,0.0,0.0,0.0,0.0,0.0,0.0,0.0,0.0,0.0,0.0,0.0,0.0,0.0,0.0,0.0,0.0,0.0,0.0,0.0,0.0,0.0,0.0,0.0,0.0,0.0,0.0,0.0,0.0,0.0,0.0,0.0,0.0,0.0,0.0,0.0,0.0,0.0,0.0,0.0,0.0,0.0,0.0,0.0,0.0,0.0,0.0,0.0,0.0,0.0,0.0,0.0,0.0,0.0,0.0,0.0,0.0,0.0,0.0,0.0,0.0,0.0,0.0,0.0,0.0,0.0,0.0,0.0,0.0,0.0,0.0,0.0,0.0,0.0,0.0,0.0,0.0,0.0,0.0,0.0,0.0,0.0,0.0,0.0,0.0,0.0,0.0,0.0,0.0,0.0,0.0,0.0,0.0,0.0,0.0,0.0,0.0,0.0,0.0,0.0,0.0,0.0,0.0,0.0,0.0,0.0,0.0,0.0,0.0,0.0,0.0,0.0,0.0,0.0,0.0,0.0,0.0,0.0,0.0,0.0,0.0,0.0,0.0,0.0,0.0,0.0,0.0,0.0,0.0,0.0,0.0,0.0,0.0,0.0,0.0,0.0,0.0,0.0,0.0,0.0,0.0,0.0,0.0,0.0,0.0,0.0,0.0,0.0,0.0,0.0,0.0,0.0,0.0,0.0,0.0,0.0,0.0,0.0,0.0,0.0,0.0,0.0,0.0,0.0,0.0,0.0,0.0,0.0,0.0,0.0,0.0,0.0,0.0,0.0,0.0,0.0,0.0,0.0,0.0,0.0,0.0,0.0,0.0,0.0,0.0,0.0,0.0,0.0,0.0,0.0,0.0,0.0,0.0,0.0,0.0,0.0,0.0,0.0,0.0,0.0,0.0,0.0,0.0,0.0,0.0,0.0,0.0,0.0,0.0,0.0,0.0,0.0,0.0,0.0,0.0,0.0,0.0,0.0,0.0,0.0,0.0,0.0,0.0,0.0,0.0,0.0,0.0,0.0,0.0,0.0,0.0,0.0,0.0,0.0,0.0,0.0,0.0,0.0,0.0,0.0,0.0,0.0,0.0,0.0,0.0,0.0,0.0,0.0,0.0,0.0,0.0,0.0,0.0,0.0,0.0,0.0,2.3211,1.9359,0.0,0.0,0.0,0.0,0.0,0.0,0.0,0.0,0.0,0.0,0.0,0.0,0.0,0.0,0.0,0.0,0.0,0.0,0.0,0.0,0.0,0.0,0.0,1.3065,1.334,1.4007,1.3803,0.0,0.0,0.0,0.0,0.0,0.0,0.0,1.2988,1.3002,1.3893,1.5721,1.6824,1.9082,2.2301,2.0064,1.7734,1.5384,0.0,0.0,0.0,0.0,0.0,0.0,0.0,0.0,0.0,0.0,0.0,0.0,0.0,0.0,0.0,0.0,0.0,0.0,0.0,0.0,0.0,0.0,0.0,0.0,0.0,0.0,0.0,0.0,0.0,0.0,0.0,0.0,0.0,0.0,0.0,0.0,0.0,0.0,0.0,0.0,0.0,0.0,0.0,0.0,0.0,0.0,0.0,0.0,0.0,0.0,0.0,0.0,0.0,0.0,0.0,0.0,0.0,0.0,0.0,0.0,0.0,0.0,0.0,0.0,0.0,0.0,0.0,0.0,0.0,0.0,2.5561,2.3803,0.0,0.0,0.0,0.0,0.0,0.0,0.0,0.0,0.0,0.0,0.0,0.0,0.0,0.0,0.0,0.0,0.0,0.0,0.0,0.0,0.0,1.2695,1.3613,1.4142,1.4805,1.5734,1.5639,1.5528,1.5445,1.5017,0.0,0.0,0.0,0.0,1.4932,1.5639,1.7286,1.9894,2.2248,2.4987,2.8093,2.8871,2.6654,2.1903,1.9502,0.0,0.0,0.0,0.0,0.0,0.0,0.0,0.0,0.0,0.0,0.0,0.0,0.0,0.0,0.0,0.0,0.0,0.0,0.0,0.0,0.0,0.0,0.0,0.0,0.0,0.0,0.0,0.0,0.0,0.0,0.0,0.0,0.0,0.0,0.0,0.0,0.0,0.0,0.0,0.0,0.0,0.0,0.0,0.0,0.0,0.0,0.0,0.0,0.0,0.0,0.0,0.0,0.0,0.0,0.0,0.0,0.0,0.0,0.0,0.0,0.0,0.0,0.0,2.8284,2.846,2.836,2.836,2.9346,3.0934,2.8423,2.9126,3.1637,2.6163,0.0,0.0,0.0,0.0,0.0,0.0,0.0,0.0,0.0,0.0,0.0,0.0,0.0,0.0,0.0,0.0,0.0,0.0,0.0,1.4393,1.5879,1.6177,1.6882,1.8438,1.7565,1.6906,1.6848,1.6203,0.0,0.0,0.0,1.5051,1.5801,1.6437,1.8853,2.3085,2.9164,3.2758,3.3909,3.4299,3.3908,3.2635,2.7547,2.4578,2.3193,0.0,0.0,0.0,0.0,0.0,0.0,0.0,0.0,0.0,0.0,0.0,0.0,0.0,0.0,0.0,0.0,0.0,0.0,0.0,0.0,0.0,0.0,0.0,0.0,0.0,0.0,0.0,0.0,0.0,0.0,0.0,0.0,0.0,0.0,0.0,0.0,0.0,0.0,0.0,0.0,0.0,2.5769,2.5531,0.0,0.0,0.0,0.0,0.0,0.0,0.0,0.0,0.0,0.0,0.0,0.0,0.0,2.7817,2.8336,3.1411,3.2918,3.2943,3.5353,3.6232,3.5803,3.5803,3.5954,3.6155,3.4778,0.0,3.1436,3.0557,0.0,0.0,0.0,0.0,0.0,0.0,0.0,0.0,0.0,0.0,0.0,0.0,0.0,0.0,0.0,0.0,0.0,0.0,0.0,0.0,0.0,2.0034,2.1601,2.3176,2.3577,2.299,2.1301,2.0257,0.0,0.0,1.6716,1.6871,1.7233,2.0071,2.4581,3.0715,3.5231,3.7839,3.8594,3.875,3.8702,3.8434,3.5614,3.2046,2.8001,2.5991,0.0,0.0,0.0,0.0,0.0,0.0,0.0,0.0,0.0,0.0,0.0,0.0,0.0,0.0,0.0,0.0,0.0,0.0,0.0,0.0,0.0,0.0,0.0,0.0,0.0,0.0,0.0,0.0,0.0,0.0,0.0,0.0,0.0,0.0,0.0,0.0,0.0,0.0,0.0,2.4647,2.5715,2.7383,2.5845,2.4284,0.0,0.0,0.0,0.0,0.0,0.0,0.0,0.0,0.0,3.0393,3.1789,3.2859,3.3564,3.5474,3.6828,3.7629,3.8526,3.901,3.9047,3.9047,3.8902,3.8558,3.8076,3.7172,3.5855,3.3391,3.1683,3.0427,0.0,0.0,0.0,0.0,2.7501,2.8624,0.0,0.0,0.0,0.0,0.0,0.0,0.0,0.0,0.0,0.0,0.0,0.0,2.1367,2.4155,2.6419,2.7778,2.8885,2.8535,2.6177,2.443,2.2339,1.9771,1.8962,1.8857,1.9449,2.4922,3.0817,3.7103,3.993,4.1608,4.216,4.2103,4.2084,4.2035,4.1422,3.8137,3.2929,3.0936,2.8098,2.4698,0.0,0.0,0.0,0.0,0.0,0.0,0.0,0.0,0.0,0.0,0.0,0.0,0.0,0.0,0.0,0.0,0.0,0.0,0.0,0.0,0.0,0.0,0.0,0.0,0.0,0.0,0.0,0.0,0.0,0.0,0.0,0.0,0.0,0.0,0.0,0.0,0.0,2.639,2.7259,2.9698,2.8486,2.7088,0.0,0.0,0.0,0.0,0.0,0.0,3.1384,3.2935,3.4129,3.4711,3.6525,3.7802,3.8469,3.9079,3.9971,4.1137,4.0609,4.0633,4.1188,4.1188,4.0939,4.0564,4.0564,4.0568,4.0261,3.6373,3.4851,3.4726,3.2562,3.126,3.0643,3.126,3.2014,3.2943,0.0,0.0,0.0,0.0,0.0,0.0,0.0,0.0,0.0,0.0,0.0,2.3264,2.5299,2.8102,3.026,3.1356,3.1446,3.118,3.053,2.7604,2.5318,2.3946,2.0967,2.0442,2.2786,3.0628,3.627,3.951,4.2615,4.4113,4.4136,4.3974,4.3877,4.3858,4.3367,4.1605,3.8751,3.5565,3.2976,3.0554,2.4848,0.0,0.0,0.0,0.0,0.0,0.0,0.0,0.0,0.0,0.0,0.0,0.0,0.0,0.0,0.0,0.0,0.0,0.0,0.0,0.0,0.0,0.0,0.0,0.0,0.0,0.0,0.0,0.0,0.0,0.0,0.0,0.0,0.0,0.0,0.0,0.0,0.0,0.0,3.3169,3.2904,0.0,0.0,0.0,0.0,3.0861,3.2667,3.444,3.5977,3.7284,3.8786,4.053,4.1179,4.1644,4.195,4.2004,4.2317,4.297,4.2369,4.2395,4.297,4.297,4.297,4.2944,4.2944,4.2944,4.2736,4.0337,3.8743,3.7739,3.7061,3.6157,3.5232,3.5854,3.7085,3.8642,0.0,0.0,0.0,1.3436,1.4036,1.4512,1.4519,1.5655,1.6857,1.7865,2.195,2.5341,2.6962,3.1609,3.4988,3.5998,3.7696,3.7865,3.5756,3.1977,2.9561,2.893,2.5278,2.6148,3.2362,3.6544,4.0256,4.3425,4.4618,4.505,4.4743,4.4388,4.3968,4.3527,4.3369,4.2781,4.1784,3.9768,3.7302,3.4472,3.1494,2.7303,0.0,0.0,0.0,0.0,0.0,0.0,0.0,0.0,0.0,0.0,0.0,0.0,0.0,0.0,0.0,0.0,0.0,0.0,0.0,0.0,0.0,0.0,0.0,0.0,0.0,0.0,0.0,0.0,0.0,0.0,0.0,0.0,0.0,0.0,0.0,0.0,0.0,3.3358,3.3872,0.0,3.3213,3.4292,3.5342,3.6191,3.7964,3.9506,4.0602,4.1137,4.1759,4.26,4.2784,4.3018,4.3301,4.3122,4.3881,4.5519,4.459,4.472,4.5804,4.5398,4.4927,4.4384,4.4384,4.4282,4.4095,4.3438,4.2423,4.126,4.1079,4.0743,4.0433,4.0639,4.1079,4.1647,0.0,0.0,0.0,1.4154,1.4733,1.5187,1.5201,1.6512,1.8215,2.0132,2.4307,2.8068,3.0719,3.5386,3.8713,3.973,4.1856,4.2083,3.9622,3.5856,3.3231,3.2145,2.9508,3.1494,3.8941,4.0981,4.3501,4.6667,4.6683,4.6527,4.6186,4.5663,4.4948,4.4075,4.4016,4.3737,4.323,4.2402,4.0685,3.829,3.6074,3.2138,2.7338,0.0,0.0,0.0,0.0,0.0,0.0,0.0,0.0,0.0,0.0,0.0,0.0,0.0,0.0,0.0,0.0,0.0,0.0,0.0,0.0,0.0,0.0,0.0,0.0,0.0,0.0,0.0,0.0,0.0,0.0,0.0,0.0,0.0,0.0,3.2006,3.3709,3.4432,3.5734,3.6446,3.6149,3.7922,3.9506,4.0507,4.1786,4.2838,4.3545,4.3624,4.386,4.4332,4.4518,4.4911,4.5482,4.5146,4.597,4.792,4.6768,4.6795,4.7895,4.7481,4.6971,4.6443,4.6425,4.6326,4.6169,4.6384,4.5795,4.4755,4.4045,4.373,4.3651,4.3651,4.3651,4.3651,0.0,0.0,1.4826,1.4826,1.5372,1.5856,1.5975,1.7,1.9347,2.3832,2.7498,3.1558,3.6482,3.9286,4.1238,4.2359,4.346,4.3439,4.1894,3.8981,3.6153,3.356,3.3526,3.6236,4.198,4.3867,4.6184,4.9026,4.8775,4.8628,4.8584,4.7925,4.6908,4.5638,4.5432,4.4614,4.3389,4.3359,4.3,4.2111,3.826,3.5459,3.3125,0.0,0.0,0.0,0.0,0.0,0.0,0.0,0.0,0.0,0.0,0.0,0.0,0.0,0.0,0.0,0.0,0.0,0.0,0.0,0.0,0.0,0.0,0.0,0.0,0.0,0.0,0.0,0.0,0.0,0.0,0.0,0.0,0.0,3.3804,3.4873,3.6024,3.6789,3.8856,4.0058,3.9561,4.1467,4.2985,4.3567,4.3878,4.4272,4.4807,4.4807,4.5205,4.6086,4.6705,4.751,4.8614,4.8174,4.8663,5.0092,4.8898,4.8664,4.9274,4.9246,4.9178,4.9117,4.9182,4.9152,4.9066,4.9183,4.8833,4.8095,4.6036,4.5045,4.4802,4.4828,4.4828,4.4828,1.4789,1.5192,1.5529,1.5529,1.5679,1.5856,1.5975,1.7418,1.9452,2.22,2.7496,3.2153,3.5042,3.9662,4.2904,4.3692,4.5262,4.5548,4.4112,4.0385,3.7658,3.6401,3.99,4.3256,4.6131,4.8184,4.9322,4.9452,4.9551,4.9269,4.8596,4.8082,4.7477,4.6823,4.6609,4.6144,4.5434,4.4819,4.4238,4.3629,4.2053,3.9361,3.6207,0.0,0.0,0.0,0.0,0.0,0.0,0.0,0.0,0.0,0.0,0.0,0.0,0.0,0.0,0.0,0.0,0.0,0.0,0.0,0.0,0.0,0.0,0.0,0.0,0.0,0.0,0.0,0.0,0.0,0.0,0.0,3.6358,3.8399,3.6232,3.7698,3.9474,4.0743,4.2202,4.3332,4.4017,4.5167,4.5951,4.6092,4.6759,4.744,4.8054,4.7841,4.7996,4.8719,4.8916,4.9154,4.949,5.0292,5.1216,5.2239,5.1962,5.2245,5.3007,5.2574,5.1995,5.1401,5.1653,5.1385,5.0786,5.1224,5.1061,5.0349,4.8678,4.7673,4.7293,4.7729,4.7892,4.7864,1.5155,1.5522,1.5806,1.5834,1.5813,1.5975,1.6506,1.7738,1.9972,2.3856,2.8548,3.2966,3.6755,4.1096,4.4083,4.4954,4.6051,4.5912,4.4095,4.1135,4.006,4.1518,4.4435,4.7133,4.9513,5.0955,5.159,5.1371,5.1476,5.1233,5.0607,4.9895,4.9174,4.8415,4.7782,4.7223,4.6671,4.5576,4.511,4.5044,4.4117,4.1844,3.902,3.8452,3.6311,3.3529,3.2961,3.2168,3.1226,3.0478,0.0,0.0,0.0,0.0,0.0,0.0,0.0,0.0,0.0,0.0,0.0,0.0,0.0,0.0,0.0,0.0,0.0,0.0,0.0,0.0,0.0,0.0,0.0,0.0,4.0415,4.2732,4.1026,4.1732,4.2841,4.3946,4.5004,4.5825,4.6357,4.7267,4.7868,4.8051,4.8645,4.9279,4.9959,4.9744,4.9817,5.0217,5.0761,5.1173,5.1558,5.262,5.3559,5.4415,5.4229,5.4405,5.4917,5.4565,5.4086,5.3559,5.3823,5.3577,5.3079,5.3473,5.3199,5.2396,0.0,0.0,0.0,0.0,4.9911,4.991,1.5462,1.5709,1.5813,1.5877,1.5849,1.6191,1.7233,1.7966,2.0666,2.7048,3.0037,3.3884,3.9967,4.2935,4.4891,4.5859,4.6213,4.5456,4.3265,4.1703,4.2896,4.7428,4.7555,4.9092,5.2473,5.2961,5.3511,5.4186,5.4229,5.4031,5.359,5.2684,5.159,5.0385,4.9147,4.8289,4.7651,4.6282,4.604,4.6406,4.5085,4.3389,4.1583,4.0318,3.8763,3.7122,3.5925,3.4711,3.3708,3.3559,0.0,0.0,0.0,0.0,0.0,0.0,0.0,0.0,0.0,0.0,0.0,0.0,0.0,0.0,0.0,0.0,0.0,0.0,0.0,0.0,0.0,0.0,0.0,0.0,4.4255,4.712,4.6655,4.6262,4.6172,4.6534,4.7328,4.7799,4.7599,4.8477,4.9226,4.9573,4.9832,5.027,5.104,5.1069,0.0,0.0,0.0,5.3456,5.4244,5.4999,5.5748,5.6504,5.6106,5.5892,5.5892,5.5979,5.5904,5.5751,5.5969,5.5994,5.5789,5.5973,5.5531,5.4569,5.2785,5.1819,5.1405,5.1405,5.1405,5.1405,1.4147,1.5065,1.5813,1.5877,1.5942,1.6282,1.7247,1.8237,2.1036,2.7091,3.0642,3.4696,4.0247,4.3738,4.5615,4.546,4.6343,4.6548,4.565,4.3678,4.482,4.9975,4.9675,5.1423,5.5792,5.5996,5.6241,5.6621,5.7135,5.6583,5.4992,5.4405,5.3786,5.3089,5.1778,5.0929,5.0409,4.884,4.808,4.7796,4.6443,4.5044,4.3638,4.2861,4.2322,4.1964,4.1694,4.1425,4.1066,4.0038,3.8512,3.6896,3.5848,3.3694,0.0,0.0,0.0,0.0,0.0,0.0,0.0,0.0,0.0,0.0,0.0,0.0,0.0,0.0,0.0,0.0,0.0,0.0,0.0,4.4399,4.7747,4.9875,4.8513,4.9327,4.9634,4.8359,4.9006,4.978,5.0354,5.0615,5.0757,5.0858,5.0882,5.1463,5.2669,5.2728,5.3233,5.4302,5.5104,5.5597,5.5752,5.6931,5.7586,5.7746,5.8202,0.0,5.8416,5.8979,5.8936,5.8488,5.9249,5.9345,5.886,5.9177,5.9034,5.8256,5.4728,5.3573,5.3888,5.3785,5.3819,5.3888,1.3812,1.4886,1.5842,1.5977,1.5989,1.6452,1.7843,1.8579,2.1014,2.6651,2.9995,3.3601,3.8152,4.0829,4.2213,4.2017,4.2811,4.4158,4.6061,4.626,4.8329,5.2897,5.308,5.4264,5.6772,5.6924,5.7244,5.7748,5.8312,5.793,5.6637,5.619,5.5495,5.4586,5.3258,5.2455,5.2025,5.0559,4.9847,4.9535,4.8196,4.7104,4.6172,4.4825,4.4296,4.4296,4.4296,4.4296,4.4177,4.3569,4.2671,4.1743,4.1085,3.9098,3.6281,0.0,0.0,0.0,0.0,0.0,0.0,0.0,0.0,0.0,0.0,0.0,0.0,0.0,0.0,4.1311,4.2773,0.0,4.7139,4.736,4.9545,5.0915,5.0118,5.0685,5.0892,5.0065,5.0354,5.0751,5.1182,5.1206,5.1498,5.2157,5.2187,5.2785,5.4127,5.4216,5.4516,5.5179,5.6162,5.6795,5.7154,5.8441,5.9279,5.961,5.9967,6.0116,6.0116,6.0446,6.0428,6.0177,6.0646,6.0653,6.0398,6.0398,6.0313,5.9936,5.7787,5.693,5.6936,5.69,5.6903,5.6964,1.3812,1.4892,1.5877,1.6062,1.6045,1.6639,1.8406,1.886,2.0867,2.5991,2.8801,3.1626,3.51,3.6928,3.799,3.8216,3.9075,4.1469,4.5895,4.8512,5.1594,5.5436,5.595,5.6584,5.7407,5.7632,5.816,5.9008,5.9517,5.9371,5.8544,5.8067,5.7122,5.5734,5.4452,5.3594,5.306,5.183,5.128,5.1072,4.9874,4.9098,4.8476,4.6741,4.5813,4.5484,4.5334,4.5304,4.5304,4.5304,4.5304,4.5304,4.5304,4.3838,4.1433,3.7734,3.6567,0.0,0.0,0.0,0.0,0.0,0.0,0.0,0.0,3.808,3.9483,4.2356,4.4091,4.5488,4.6787,4.8216,4.9394,4.9972,5.09,5.1558,5.1415,5.1385,5.1415,5.1565,5.1475,5.1385,5.1385,5.1505,5.2037,5.3109,5.3198,5.3737,5.494,5.5119,5.5299,5.5538,5.6675,5.7693,5.8474,5.9548,6.0446,6.1076,6.0984,6.0924,6.0924,6.1016,6.1076,6.1106,6.1373,6.1493,6.1465,6.1181,6.1096,6.1067,6.084,6.0467,6.0005,5.9597,5.9451,5.9451,1.3812,1.4926,1.5913,1.5989,1.6111,1.6717,1.8369,1.8885,2.0719,2.5233,2.7434,2.9494,3.195,3.4119,3.5679,3.6428,3.8375,4.1552,4.6164,4.921,5.2577,5.6459,5.6078,5.7028,5.9645,5.987,6.0592,6.1914,6.2628,6.2271,6.093,6.0443,5.9166,5.7211,5.605,5.4802,5.3569,5.2807,5.2211,5.1731,5.1056,5.0457,4.992,4.9157,4.7728,4.6121,4.5514,4.5304,4.5304,4.5304,4.5304,4.5304,4.5304,4.5095,4.4317,4.1553,4.0325,3.8841,3.4113,3.1884,3.2019,3.6636,3.7849,3.9331,0.0,4.6929,4.8065,4.9,5.1212,5.2976,5.315,5.3359,5.3329,5.2839,5.2899,5.2779,5.2187,5.2097,5.2306,5.2929,5.2456,5.2097,5.2097,5.2606,5.3049,5.3198,5.3198,5.3528,5.4281,5.488,5.5718,5.6855,5.7576,5.862,5.9847,6.0054,6.0446,6.1076,6.0505,6.0206,6.0206,6.0835,6.1076,6.1194,6.2361,6.2898,6.2868,6.2841,6.2811,6.2811,6.2812,6.2724,6.249,6.0727,6.0085,6.0085,1.3812,1.4933,1.5913,1.5982,1.6136,1.6663,1.7828,1.8594,2.0157,2.3315,2.5144,2.6848,2.8705,2.9399,3.0099,3.1046,3.4362,3.8728,4.4279,4.8262,5.2324,5.6628,5.6489,5.7323,5.9419,5.953,6.0035,6.1061,6.1839,6.177,6.0895,6.0737,5.982,5.8252,5.7006,5.5824,5.4677,5.369,5.2919,5.2325,5.1743,5.1249,5.0757,5.0511,4.962,4.8274,4.6082,4.5304,0.0,4.4855,4.4975,4.5424,4.6232,4.5933,4.4855,4.2631,4.1762,4.1403,4.0595,3.9738,3.9828,4.2821,4.4436,4.5912,4.8424,4.9733,5.081,5.2223,5.3743,5.479,5.479,5.4461,5.4132,5.3832,5.3443,5.3109,5.2815,5.3114,5.3473,5.3743,5.3862,5.3623,5.2869,5.3384,5.3773,5.3773,5.4132,5.464,5.5354,5.5957,5.6555,5.7064,5.7726,5.8563,5.9518,5.9934,6.0446,6.1076,6.0835,6.0685,6.0715,6.1373,6.2091,6.281,6.3378,6.3827,6.4216,6.4216,6.4216,6.4216,6.4216,6.4216,6.4037,6.2461,6.1898,6.1898,1.3812,1.4953,1.5942,1.5977,1.615,1.6573,1.7476,1.8338,1.9583,2.1408,2.2923,2.4324,2.554,2.5023,2.5244,2.6798,3.1188,3.6365,4.2321,4.7298,5.1865,5.6003,5.6596,5.7306,5.8371,5.8776,5.925,5.981,6.0588,6.0806,6.046,6.0355,5.9696,5.8609,5.7023,5.5836,5.4921,5.353,5.2598,5.2002,5.1553,5.1196,5.0907,5.075,5.0129,4.9052,4.6501,4.5334,4.4796,4.3399,4.3629,4.4556,4.5005,4.4975,4.4466,4.289,4.2021,4.2002,4.3978,4.4367,4.4855,4.7437,4.9291,5.0667,5.1415,5.1953,5.2725,5.4192,5.485,5.5239,5.5444,5.491,5.4491,5.4491,5.4072,5.3767,5.3767,5.4162,5.4551,5.473,5.5179,5.5114,5.4127,5.4486,5.476,5.476,5.5359,5.5953,5.6432,5.6855,5.7184,5.7363,5.7846,5.8504,5.9368,6.0027,6.0715,6.1373,6.1373,6.1373,6.1403,6.1882,6.2899,6.4276,6.4066,6.4395,6.4994,6.4994,6.4994,6.4994,6.4994,6.4994,6.4874,6.3947,6.3617,6.3617,1.3812,1.5001,1.5991,1.5906,1.6108,1.6573,1.7476,1.8223,1.8999,1.9876,2.1147,2.2122,2.249,2.1892,2.2524,2.523,3.0218,3.5497,4.0907,4.6805,5.1472,5.455,5.6055,5.6833,5.6867,5.8269,5.9013,5.9013,5.9776,6.0148,6.0076,5.9513,5.8819,5.8028,5.5836,5.4459,5.362,5.1852,5.0805,5.035,5.0131,5.0125,5.0189,4.9576,4.8558,4.7309,4.654,4.5433,4.3818,4.0618,4.0846,4.2152,4.0247,4.1414,4.3319,4.262,4.1014,3.9948,4.1942,4.2002,4.288,4.8663,5.0637,5.1834,5.4461,5.5059,5.5089,5.5149,5.5179,5.5414,5.6042,5.5623,5.5149,5.5149,5.5149,5.5119,5.5119,5.5149,5.5388,5.6072,5.6162,5.6162,5.6102,5.6132,5.6132,5.6132,5.6701,5.7034,5.7064,5.7094,5.7393,5.8055,5.8085,5.8713,6.0057,6.0745,6.1403,6.2061,6.2061,6.2061,6.2061,6.2091,6.3169,6.4934,6.4276,6.4395,6.4994,6.4994,6.4994,6.4994,6.4994,6.4994,6.4994,6.4964,6.4934,6.4934,1.3878,1.496,1.5927,1.5892,1.6055,1.627,1.6572,1.7639,1.8546,1.8911,2.0321,0.0,0.0,0.0,0.0,0.0,2.7673,3.1762,3.7121,4.2151,4.6936,5.1436,5.4008,5.5784,5.6799,5.778,5.8254,5.8254,5.8524,5.8626,5.8626,5.7988,5.7263,5.6435,5.4753,5.3574,5.2733,5.1194,5.0441,5.0245,4.9747,4.9292,4.8955,4.9217,4.7339,4.4446,0.0,4.1534,4.0098,3.8123,3.8499,3.9846,4.0535,4.0726,4.0546,3.9409,4.0176,4.1733,4.324,4.5424,4.7916,5.0787,5.2695,5.4072,5.497,5.5179,5.5179,5.5179,5.4491,5.3947,5.4186,5.3677,5.3503,5.4401,5.4162,5.4486,5.6226,5.5359,5.5089,5.6641,5.6432,5.6372,5.6761,5.6821,5.6821,5.6821,5.7393,5.7756,5.7756,5.8201,5.853,5.877,5.9189,5.9638,6.0114,6.1194,6.1642,6.1433,6.1433,6.1912,6.2778,6.2778,6.3827,6.5622,6.5443,6.5712,6.634,6.634,6.634,6.634,6.634,6.634,6.634,6.634,6.634,6.6191,1.4244,1.5083,1.5885,1.5885,1.5998,0.0,0.0,0.0,0.0,0.0,0.0,0.0,0.0,0.0,0.0,0.0,0.0,2.9041,3.4089,3.7855,4.2117,4.7105,4.9169,5.0929,5.2401,5.3145,5.4076,5.5125,5.5632,5.6325,5.7085,5.643,5.5814,5.5188,5.3504,5.2424,5.1769,4.9885,4.9264,4.9334,4.77,4.7099,4.7081,4.6148,4.3885,0.0,3.8554,3.68,3.5459,3.4622,3.5535,3.7152,3.7943,3.8422,3.8733,3.908,4.0715,4.301,4.5693,4.8274,5.0697,5.2755,5.4221,5.5179,5.5179,5.5414,5.5564,5.5564,5.4695,5.3917,5.3917,5.3354,5.3294,5.4371,5.4581,5.5239,5.7184,5.6585,5.6346,5.7334,5.7334,5.7274,5.7453,5.7663,5.7723,5.7483,5.8082,5.8444,5.8444,5.889,5.9219,5.9458,5.9877,6.0234,6.0446,6.1792,6.248,6.2482,6.2482,6.3079,6.4126,6.3887,6.4725,6.634,6.6101,6.637,6.6999,6.6999,6.6999,6.6999,6.6999,6.6999,6.6999,6.6999,6.6999,6.6879,1.4819,1.5384,1.5877,0.0,0.0,0.0,0.0,0.0,0.0,0.0,0.0,0.0,0.0,0.0,0.0,0.0,0.0,0.0,3.1684,3.41,3.7335,4.1724,4.213,4.2943,4.4445,4.5229,4.7022,4.9812,5.1217,5.301,5.5107,5.4492,5.4098,5.3813,5.1752,5.0715,5.0405,4.7824,4.7066,4.737,4.4145,4.3613,4.4388,4.0756,3.8378,3.6672,3.3833,3.1785,3.0432,3.0522,3.2452,3.4607,3.3514,3.5294,3.8422,4.1553,4.265,4.3888,4.8813,5.0285,5.1236,5.4431,5.5239,5.5239,5.5269,5.5803,5.6222,5.6072,5.5504,5.494,5.476,5.4251,5.4132,5.491,5.6047,5.7154,5.7965,5.859,5.874,5.8115,5.868,5.886,5.8205,5.877,5.889,5.8205,5.874,5.9099,5.9099,5.9129,5.9428,6.0084,6.0174,6.0505,6.1136,6.248,6.3767,6.4994,6.4994,6.5353,6.5981,6.5323,6.5742,6.6939,6.634,6.64,6.6999,6.6999,6.6999,6.6999,6.6999,6.6999,6.6999,6.6999,6.6999,6.6999,0.0,0.0,0.0,0.0,0.0,0.0,0.0,0.0,0.0,0.0,0.0,0.0,0.0,0.0,0.0,0.0,0.0,0.0,2.7165,3.0446,3.3558,3.6378,3.9681,4.1914,4.2875,4.4195,4.5244,4.5988,4.6394,4.6868,4.7443,4.726,4.6784,4.6041,4.5473,4.5121,4.4862,4.3437,4.2905,4.2861,4.1216,4.0074,3.9249,3.7958,3.5732,3.315,3.2193,3.0654,2.9325,3.0777,3.4636,3.926,4.1354,4.2611,4.3359,4.3718,4.5882,4.8394,4.9284,5.1678,5.4251,5.5623,5.5953,5.6072,5.6496,5.6735,5.6342,5.4366,5.3025,5.1475,4.9022,4.8835,4.9912,5.2546,5.3234,5.4551,5.7666,5.7423,5.706,5.7334,5.8381,5.9039,5.886,5.9458,5.9548,5.8919,5.9009,5.9099,5.9099,5.9578,5.9907,6.0086,6.1044,6.1672,6.1852,6.3139,6.4186,6.4994,6.4994,6.5353,6.6011,6.5832,6.6191,6.6969,6.6819,6.6819,6.6999,6.6999,6.6999,6.6999,6.6999,6.6999,6.6999,6.6999,6.6999,6.6999,0.0,0.0,0.0,0.0,0.0,0.0,0.0,0.0,0.0,0.0,0.0,0.0,0.0,0.0,0.0,0.0,0.0,0.0,0.0,2.6903,2.9237,3.1451,3.366,3.5487,3.6907,3.7787,3.9186,4.1196,4.1196,4.1955,4.3462,4.2868,4.2066,4.1063,4.1478,4.1374,4.0798,4.0147,3.9828,0.0,0.0,3.66,3.5643,3.425,3.2511,3.0765,3.0498,3.056,3.136,3.5353,3.8344,4.1085,4.4945,4.5992,4.6022,4.7369,4.9112,5.0817,5.1672,5.3528,5.5359,5.6042,5.6192,5.6072,5.5534,5.5628,5.4999,5.2091,5.0893,4.9523,4.6809,4.7339,4.9045,5.1768,5.3414,5.5329,5.8145,5.8171,5.7929,5.7962,5.889,5.9668,5.9967,6.0326,6.0266,5.9578,5.9279,5.9219,5.9518,5.9877,6.0356,6.0954,6.1702,6.251,6.3378,6.4096,6.4934,6.5892,6.5892,6.6071,6.643,6.643,6.664,6.6999,6.7298,6.7449,6.7479,6.7747,6.7867,6.7867,6.7867,6.7867,6.7867,6.7867,6.7867,6.7867,0.0,0.0,0.0,0.0,0.0,0.0,0.0,0.0,0.0,1.9674,1.9901,2.0374,0.0,0.0,0.0,0.0,0.0,0.0,0.0,0.0,2.5211,2.7114,2.6886,2.7647,2.9591,2.9862,3.1799,3.5611,3.5802,3.7412,4.0249,3.9311,3.8274,3.73,3.8073,3.7983,3.7222,3.6946,3.675,3.6396,3.4171,3.3113,3.2639,0.0,2.941,2.9187,2.9103,3.0941,3.4382,4.1115,4.2402,4.2013,4.683,4.7945,4.8125,5.1379,5.2067,5.2217,5.4341,5.5059,5.5359,5.6132,5.6312,5.5833,5.4007,5.3892,5.3234,4.9756,4.8887,4.8169,4.6151,4.7489,4.9576,5.1588,5.461,5.7154,5.8411,5.9458,5.9817,5.9069,5.9727,6.0505,6.1194,6.1074,6.0805,6.0413,5.9817,5.9668,6.0084,6.0294,6.0924,6.2181,6.2241,6.3079,6.4845,6.4874,6.5562,6.6849,6.6849,6.6909,6.6999,6.6999,6.6999,6.7029,6.7628,6.7928,6.8047,6.8615,6.8914,6.9004,6.9004,6.9004,6.9004,6.9004,6.9004,6.9004,0.0,0.0,0.0,0.0,0.0,0.0,0.0,0.0,0.0,0.0,2.1009,2.0807,0.0,0.0,0.0,0.0,0.0,0.0,0.0,0.0,0.0,2.4154,2.5786,2.6903,2.7275,2.8527,2.9262,2.9354,3.0639,3.1248,3.1252,3.1993,3.2174,3.1924,3.1833,3.1962,3.222,3.156,3.1114,3.0807,3.018,2.9406,2.8647,2.84,0.0,0.0,2.9198,3.0864,3.3768,4.0965,4.4257,4.6271,5.2007,5.3743,5.3563,5.3169,5.3713,5.4371,5.3737,5.4366,5.5478,5.6645,5.6944,5.6705,5.5863,5.491,5.2965,4.8536,4.677,4.5415,4.3439,4.5125,4.7646,5.0159,5.2881,5.497,5.5748,5.8291,5.9638,5.8414,5.982,6.1194,6.1852,6.0924,6.0685,6.1672,6.1642,6.1134,6.0146,6.1134,6.2091,6.2898,6.2928,6.3347,6.4186,6.4186,6.4844,6.6191,6.6191,6.646,6.6999,6.6999,6.6999,6.6999,6.7119,6.7508,6.8017,6.8137,6.8495,6.9004,6.9004,6.9004,6.9004,6.9004,6.9004,6.9004,0.0,0.0,0.0,0.0,0.0,0.0,0.0,1.9633,2.0988,2.4068,2.4213,2.37,2.2701,2.2125,2.1864,0.0,0.0,0.0,0.0,0.0,0.0,0.0,2.4432,2.5346,2.6116,2.686,2.7508,2.8092,0.0,2.8272,2.8207,2.8296,2.8089,2.7685,2.798,2.8222,2.835,2.8426,2.8029,2.7416,2.8038,2.7639,2.6796,2.7582,0.0,0.0,2.9768,3.1539,3.4292,3.9158,4.2551,4.5971,5.2995,5.5179,5.494,5.3588,5.4156,5.491,5.3558,5.4186,5.5508,5.6765,5.7094,5.6376,5.3683,5.2336,5.0032,4.4377,4.294,4.2252,4.0625,4.303,4.6121,4.8783,5.2606,5.5688,5.7034,5.9815,6.1283,6.0296,6.1044,6.1762,6.2061,6.1194,6.1044,6.2032,6.1792,6.1613,6.1671,6.257,6.3079,6.3108,6.3737,6.4246,6.4516,6.4874,6.5533,6.652,6.652,6.67,6.6999,6.6999,6.6999,6.7029,6.7747,6.8226,6.8555,6.9213,6.9692,6.9991,6.9991,6.9991,6.9991,6.9991,6.9991,6.9991,0.0,0.0,0.0,0.0,0.0,0.0,2.0976,2.1874,2.3438,2.6922,2.7461,2.6761,2.4698,2.326,2.2267,0.0,0.0,0.0,0.0,0.0,0.0,0.0,0.0,0.0,2.4998,0.0,0.0,2.7563,2.6802,0.0,0.0,0.0,0.0,0.0,2.5665,2.5818,2.5644,2.6251,2.5978,0.0,0.0,2.6619,2.5968,0.0,0.0,0.0,0.0,3.1853,3.4338,3.7375,4.0127,4.3519,5.078,5.3563,5.3982,5.3228,5.3827,5.4581,5.3857,5.4426,5.5508,5.6765,5.7094,5.5927,5.1445,4.9733,4.7271,4.0917,3.9798,3.9738,3.8978,4.1594,4.4855,4.784,5.1791,5.5504,5.8291,6.0595,6.2032,6.2091,6.2091,6.2151,6.2301,6.1702,6.1642,6.245,6.2032,6.2181,6.3257,6.3617,6.3707,6.3498,6.4216,6.4785,6.5203,6.5443,6.6041,6.6999,6.6849,6.6849,6.6999,6.6999,6.7059,6.7268,6.8315,6.8944,6.9303,7.029,7.0769,7.0889,7.0889,7.0889,7.0889,7.0889,7.0889,7.0889,0.0,0.0,0.0,0.0,0.0,0.0,2.0279,2.2303,2.4905,2.8979,2.9207,2.8412,2.6888,2.5404,2.3779,0.0,0.0,0.0,0.0,0.0,0.0,0.0,0.0,0.0,0.0,0.0,0.0,2.4867,2.5359,0.0,0.0,0.0,0.0,0.0,0.0,2.4637,2.4637,2.4575,0.0,0.0,0.0,0.0,0.0,0.0,0.0,0.0,0.0,3.0582,3.2437,3.6896,3.8619,3.9709,4.4646,4.8245,5.0877,5.1977,5.2785,5.3618,5.4725,5.5089,5.5508,5.6765,5.7094,5.6047,5.2013,4.9703,4.6852,4.1414,3.9379,3.8901,4.0008,4.1523,4.3828,4.769,4.8708,5.0983,5.6496,5.8022,5.9458,6.1822,6.2091,6.2331,6.2958,6.2391,6.251,6.3737,6.3767,6.3797,6.3917,6.3467,6.3677,6.4785,6.3827,6.4126,6.5892,6.4755,6.5144,6.6969,6.637,6.64,6.6999,6.6999,6.7328,6.7928,6.8047,6.8796,6.9933,7.0021,7.041,7.0889,7.0889,7.0889,7.0889,7.0889,7.0889,7.0889,0.0,0.0,0.0,0.0,0.0,0.0,2.1405,2.2573,2.4781,2.9599,2.9847,2.9394,2.8979,2.7241,2.4761,2.1334,0.0,0.0,0.0,0.0,0.0,0.0,0.0,0.0,0.0,0.0,2.4129,2.4726,2.5209,0.0,0.0,0.0,0.0,0.0,0.0,2.4151,2.4088,2.4119,0.0,0.0,0.0,0.0,0.0,0.0,0.0,0.0,0.0,0.0,3.2392,3.4217,3.5908,3.7571,3.9409,4.1983,4.4865,4.7796,5.0511,5.2636,5.2755,5.3982,5.5508,5.6765,5.6526,5.491,5.0983,4.8229,4.4975,3.9679,3.8182,3.7973,3.8512,4.0008,4.2241,4.5394,4.76,5.0414,5.476,5.7633,5.9847,6.1313,6.2211,6.2808,6.3078,6.248,6.248,6.3407,6.3797,6.4186,6.4575,6.3977,6.3707,6.3857,6.4485,6.5024,6.5383,6.5682,6.6191,6.6999,6.6729,6.6729,6.6999,6.7419,6.7748,6.8047,6.8856,6.9514,7.0021,7.038,7.0679,7.0889,7.0889,7.0889,7.0889,7.0889,7.0889,7.0889,0.0,0.0,0.0,0.0,0.0,1.8253,2.1585,2.2613,2.4578,2.9069,2.9522,2.9518,2.9711,2.7613,2.4926,2.1701,2.1121,0.0,0.0,0.0,0.0,0.0,0.0,0.0,0.0,0.0,2.3633,2.4962,2.5183,2.5037,0.0,0.0,2.4461,2.4003,0.0,0.0,0.0,0.0,0.0,0.0,0.0,0.0,0.0,0.0,0.0,0.0,0.0,0.0,0.0,0.0,0.0,3.5655,3.5865,3.7554,4.0337,4.4476,4.8237,5.1109,5.1409,5.3324,5.5508,5.6765,5.5837,5.3677,5.0115,4.6912,4.3329,3.8404,3.7255,3.7195,3.7375,3.8721,4.0786,4.3818,4.6262,4.9247,5.3324,5.6286,5.859,6.0029,6.1224,6.215,6.2748,6.2899,6.3228,6.3887,6.3977,6.4306,6.4964,6.4366,6.3887,6.3647,6.4784,6.5383,6.5293,6.6251,6.6789,6.6999,6.6999,6.6999,6.6999,6.7688,6.8107,6.8377,6.9514,7.0081,7.029,7.0709,7.0889,7.0889,7.0889,7.0889,7.0889,7.0889,7.0889,7.0889,0.0,0.0,0.0,0.0,0.0,0.0,2.0219,2.2343,2.4549,2.7285,2.8201,2.8607,2.862,2.6043,2.411,2.3604,2.1698,0.0,0.0,0.0,0.0,0.0,0.0,0.0,0.0,0.0,2.303,2.5108,2.5049,2.5194,2.558,2.5173,2.4641,2.3993,0.0,0.0,0.0,0.0,0.0,0.0,0.0,0.0,0.0,0.0,0.0,0.0,0.0,0.0,0.0,0.0,0.0,0.0,0.0,3.5865,3.8344,4.2951,4.6232,4.8895,5.1498,5.3653,5.5508,5.6765,5.5119,5.254,4.9905,4.6202,4.2203,3.8225,3.6926,3.6686,3.7285,3.7973,3.9709,4.3638,4.4326,4.6441,5.239,5.3258,5.4461,5.7726,5.874,5.9937,6.1912,6.3828,6.5233,6.5922,6.4755,6.4306,6.4964,6.4366,6.4306,6.4964,6.4366,6.4665,6.5981,6.6011,6.634,6.6999,6.6999,6.6999,6.6999,6.7688,6.8345,6.9034,6.9724,7.032,7.0889,7.0889,7.0889,7.0889,7.0889,7.0889,7.0889,7.0889,7.0889,7.0889,0.0,0.0,0.0,0.0,0.0,0.0,1.9023,1.9869,2.1365,2.4459,2.4698,2.5237,2.7033,2.4803,2.331,2.3571,2.1613,0.0,0.0,0.0,0.0,0.0,0.0,0.0,0.0,0.0,2.3895,2.6338,2.6719,2.7188,2.7698,2.6609,2.5731,2.5059,2.4094,2.3664,0.0,0.0,0.0,0.0,0.0,0.0,0.0,0.0,0.0,0.0,0.0,0.0,0.0,0.0,0.0,0.0,0.0,0.0,0.0,3.8883,4.2432,4.5753,4.6591,4.8596,5.0451,5.0421,4.9434,4.7908,4.5702,4.321,4.0457,3.7404,3.6626,3.6553,3.6746,3.7691,3.9828,4.4257,4.5394,4.7429,5.251,5.5119,5.6918,5.7965,6.1076,6.3228,6.3378,6.4366,6.5084,6.5293,6.4126,6.3647,6.4306,6.3707,6.3887,6.4964,6.5263,6.5592,6.6011,6.646,6.6789,6.6999,6.6999,6.6999,6.7029,6.8166,6.8794,6.9064,7.0141,7.0709,7.0889,7.0889,7.0889,7.0889,7.0889,7.0889,7.0889,7.0889,7.0889,7.0889,0.0,0.0,0.0,0.0,0.0,0.0,0.0,1.8147,1.9232,2.1784,2.1804,2.2662,2.5525,2.3291,2.2134,2.349,2.1425,0.0,0.0,0.0,0.0,0.0,0.0,0.0,2.1871,2.2294,2.4036,2.7152,2.7542,2.8274,2.9345,2.8483,2.732,2.5944,2.5106,2.4298,0.0,0.0,0.0,0.0,0.0,0.0,2.7585,0.0,0.0,0.0,0.0,0.0,0.0,0.0,0.0,0.0,0.0,0.0,0.0,0.0,3.926,4.2023,4.3519,4.5702,4.7578,4.7668,4.639,4.4865,4.3609,4.1235,3.8751,3.6866,3.6493,3.6493,3.6493,3.7541,3.9409,4.2551,4.4895,4.7557,5.1223,5.4132,5.632,5.7603,6.1457,6.4153,6.4366,6.5083,6.5502,6.5413,6.4186,6.3707,6.4366,6.4006,6.4306,6.5323,6.5532,6.5742,6.6011,6.667,6.6999,6.6999,6.6999,6.7119,6.7419,6.8495,6.9123,6.9423,7.047,7.0889,0.0,7.0889,7.0889,7.0889,7.0889,7.0889,7.0889,7.0889,7.0889,7.0889,0.0,0.0,0.0,0.0,0.0,0.0,0.0,1.7234,1.8117,1.9459,1.9618,2.0806,2.3917,2.1545,2.0687,2.3101,0.0,0.0,0.0,0.0,0.0,0.0,0.0,0.0,2.1665,2.1794,2.374,2.7675,2.7794,2.8859,3.0702,3.0672,2.9235,2.6734,2.6644,2.5465,0.0,0.0,0.0,0.0,2.4933,2.5854,0.0,0.0,0.0,0.0,0.0,0.0,0.0,0.0,0.0,0.0,0.0,0.0,0.0,0.0,0.0,0.0,0.0,4.4267,4.6001,4.716,4.5155,4.2891,4.291,4.0008,0.0,3.6613,3.6493,3.6553,3.6673,3.7721,3.8841,3.975,4.3579,4.7189,4.9277,5.1372,5.3862,5.7004,6.0541,6.3304,6.4784,6.5892,6.6372,6.6042,6.4755,6.4306,6.4964,6.4964,6.5263,6.5981,6.5383,6.5383,6.6071,6.67,6.6999,6.6999,6.6999,6.7329,6.7958,6.8675,6.9333,6.9961,7.062,7.0889,7.0889,7.0889,7.0889,7.0889,7.0889,7.0889,7.0889,7.0889,7.0889,7.0889,0.0,0.0,0.0,0.0,0.0,0.0,0.0,0.0,0.0,0.0,1.8942,1.942,2.0707,2.0148,1.9947,0.0,0.0,0.0,0.0,0.0,0.0,0.0,0.0,0.0,2.1665,2.2652,2.4866,2.838,2.985,3.1346,3.2766,3.2287,3.0628,2.8098,2.7063,2.5465,0.0,0.0,0.0,0.0,2.5423,2.6243,0.0,0.0,0.0,0.0,2.9608,3.1195,0.0,0.0,0.0,0.0,0.0,0.0,0.0,0.0,3.5848,3.6267,3.7704,0.0,4.0098,3.9457,3.902,3.8673,0.0,3.7392,3.6673,3.6523,3.6493,3.6956,3.8434,3.9379,4.0965,4.4177,4.6471,4.8865,5.1851,5.5269,5.8141,5.9967,6.2916,6.4657,6.4275,6.5621,6.6372,6.6042,6.4755,6.4306,6.4964,6.4515,6.4784,6.5981,6.5862,6.6101,6.6759,6.6909,6.6999,6.6999,6.6999,6.7059,6.7299,6.8465,6.9093,6.9303,7.041,7.0889,7.0889,7.0889,7.0889,7.0889,7.0889,7.0889,7.0889,7.0889,7.0889,7.0889,0.0,0.0,0.0,0.0,0.0,0.0,0.0,0.0,0.0,0.0,0.0,1.8514,1.916,1.9528,0.0,0.0,0.0,0.0,0.0,0.0,0.0,0.0,0.0,2.0337,2.1665,2.2692,2.5117,2.9069,3.0388,3.2213,3.4412,3.4053,3.2303,2.9355,2.6811,2.4926,0.0,0.0,0.0,0.0,2.5274,0.0,0.0,0.0,0.0,0.0,2.9488,3.0881,0.0,3.3275,3.4188,3.504,0.0,0.0,0.0,0.0,3.504,3.5206,3.5848,3.7195,3.8469,3.8679,3.8302,3.7943,3.8212,3.7105,3.6118,3.6434,3.6493,3.6985,3.8631,3.9978,4.1743,4.4476,4.7317,5.0541,5.4431,5.7902,6.0324,6.1181,6.3356,6.477,6.4661,6.5889,6.6522,6.6042,6.5054,6.4605,6.4964,6.4964,6.5263,6.5981,6.6311,6.664,6.6999,6.6999,6.6999,6.6999,6.6999,6.7298,6.7926,6.8675,6.9333,6.9901,7.059,7.0889,7.0889,7.0889,7.0889,7.0889,7.0889,7.0889,7.0889,7.0889,7.0889,7.0889,0.0,0.0,0.0,0.0,0.0,0.0,0.0,0.0,0.0,0.0,0.0,0.0,0.0,0.0,0.0,0.0,0.0,0.0,0.0,0.0,0.0,0.0,0.0,2.0417,2.1964,2.2553,2.5009,2.9458,3.0462,3.2407,3.522,3.5593,3.3844,3.0193,2.653,2.4436,2.358,0.0,0.0,2.5423,2.4933,0.0,0.0,0.0,0.0,0.0,0.0,0.0,0.0,3.2946,3.3859,3.4488,3.4384,0.0,0.0,0.0,0.0,0.0,3.5429,3.7135,3.9038,4.0445,3.9577,3.8709,3.9828,3.7853,3.6058,3.6896,3.7092,3.7631,3.929,4.1164,4.2851,4.4147,4.8155,5.2582,5.6825,5.9638,6.1338,6.1558,6.3124,6.4541,6.5347,6.6305,6.673,6.6252,6.5443,6.5084,6.5293,6.5772,6.6071,6.6161,6.67,6.6999,6.6999,6.6999,6.6999,6.6999,6.6999,6.7657,6.8854,6.8944,6.9632,7.0769,7.0859,7.0889,7.0889,7.0889,7.0889,7.0889,7.0889,7.0889,7.0889,7.0889,7.0889,7.0921,0.0,0.0,0.0,0.0,0.0,0.0,0.0,0.0,0.0,0.0,0.0,0.0,0.0,0.0,0.0,0.0,0.0,0.0,0.0,0.0,0.0,0.0,1.9708,2.0836,2.3251,2.34,2.5196,2.8757,3.1629,3.3305,3.3844,3.6088,3.4472,2.9638,2.7333,2.5285,2.358,2.349,0.0,2.4773,2.5274,0.0,0.0,0.0,0.0,0.0,0.0,0.0,0.0,3.2392,3.3484,3.4398,3.3829,0.0,0.0,0.0,0.0,0.0,3.6014,3.8182,3.9768,3.8362,3.8212,3.8452,3.8679,3.7883,3.7614,3.9439,3.9798,4.0876,4.4416,4.6262,4.7668,4.8933,5.2606,5.6077,5.8471,6.0625,6.197,6.1998,6.3908,6.5258,6.5466,6.6085,6.672,6.7246,6.5862,6.5503,6.664,6.6251,6.6251,6.6819,6.6939,6.6999,6.6999,6.6999,6.6999,6.6999,6.6999,6.7419,6.8167,6.8734,6.9423,7.0141,7.0679,7.0889,7.0889,7.0889,7.0889,7.0889,7.0889,7.0889,7.0889,7.0889,7.0889,7.1083,0.0,0.0,0.0,0.0,0.0,0.0,0.0,0.0,0.0,0.0,0.0,0.0,0.0,0.0,0.0,0.0,0.0,0.0,0.0,0.0,0.0,0.0,2.1505,2.2044,2.358,2.5375,2.7919,3.124,3.3844,3.5459,3.6118,3.519,3.2916,2.9502,2.7123,2.5136,2.361,2.361,2.4197,2.5184,0.0,0.0,0.0,0.0,0.0,0.0,0.0,0.0,0.0,0.0,3.2841,3.3919,3.3604,0.0,0.0,0.0,0.0,0.0,3.5146,3.7045,3.917,4.0737,4.1115,4.2013,4.5594,4.287,4.0516,4.3958,4.269,4.2132,4.6112,4.8185,5.0737,5.5105,5.7824,5.9804,6.1034,6.1857,6.255,6.325,6.4584,6.5694,6.6424,6.6955,6.7449,6.7939,6.6824,6.6553,6.7699,6.7755,6.7754,6.7759,6.8028,6.7819,6.7029,6.6999,6.6999,6.6999,6.6999,6.7359,6.8017,6.8675,6.9363,7.0021,7.0649,7.0889,7.0954,7.1824,7.2173,7.2142,7.2142,7.2675,7.3444,7.3444,7.3444,7.3535,0.0,0.0,0.0,0.0,0.0,0.0,0.0,0.0,0.0,0.0,0.0,0.0,0.0,0.0,0.0,0.0,0.0,0.0,0.0,0.0,0.0,0.0,0.0,2.395,2.5196,2.7739,3.0582,3.3724,3.6044,3.7674,3.8542,3.4592,3.1599,2.9488,2.6961,2.5016,2.361,2.361,2.4178,2.5154,0.0,0.0,0.0,0.0,0.0,0.0,0.0,0.0,0.0,0.0,0.0,0.0,0.0,0.0,0.0,3.3484,3.3484,3.3694,3.4697,3.6148,3.8512,4.313,4.3389,4.4317,5.1372,4.7091,4.311,4.8379,4.6325,4.4688,4.8259,5.0295,5.35,5.972,6.1537,6.2585,6.3754,6.3581,6.3759,6.5021,6.5553,6.6329,6.7654,6.7968,6.814,6.8386,6.7847,6.7787,6.8445,6.9145,6.9377,6.9002,6.9435,6.9114,6.8028,6.7668,6.7366,6.6999,6.7148,6.7598,6.8257,6.8914,6.9795,7.0777,7.126,7.1665,7.211,7.3322,7.3808,7.3747,7.3747,7.4526,7.5608,7.5608,7.5608,7.5637,0.0,0.0,0.0,0.0,0.0,0.0,0.0,0.0,0.0,0.0,0.0,0.0,0.0,0.0,0.0,0.0,0.0,0.0,0.0,0.0,0.0,0.0,0.0,0.0,2.9953,3.0253,3.1689,3.4444,3.7644,3.9242,3.9242,3.528,3.2063,2.9518,2.7452,2.5447,2.361,2.361,2.367,2.3849,2.5106,0.0,0.0,0.0,0.0,0.0,0.0,0.0,0.0,0.0,0.0,0.0,0.0,0.0,3.3484,3.3484,3.3484,3.3903,3.5835,3.6866,3.8512,4.313,4.1964,4.1904,5.0361,4.7121,4.4327,5.1402,5.1343,5.0796,5.3253,5.451,5.6504,6.0411,6.1868,6.3445,6.6242,6.606,6.6141,6.7393,6.7004,6.7315,6.9104,6.8598,6.8273,6.8383,6.882,6.8953,6.8765,6.9865,7.0627,7.0787,7.0842,7.0953,7.1059,6.9717,6.8355,6.6999,6.7628,6.8287,6.8944,6.9602,7.1062,7.2984,7.3107,7.3929,7.5261,7.5377,7.5435,7.5435,7.5435,7.5493,7.5608,7.5608,7.5608,7.581,0.0,0.0,0.0,0.0,0.0,0.0,0.0,0.0,0.0,0.0,0.0,0.0,0.0,0.0,0.0,0.0,0.0,0.0,0.0,0.0,2.0537,0.0,0.0,2.6141,2.865,3.2332,3.531,3.7554,3.92,3.9589,3.8691,3.4741,3.1719,2.9518,2.7512,2.5956,2.4825,2.4406,2.4945,2.6015,2.5274,2.5734,0.0,0.0,0.0,0.0,0.0,0.0,0.0,0.0,3.0777,3.2153,3.2243,3.3125,3.4039,3.3604,3.3484,3.3769,3.4937,3.6314,3.8703,4.4177,4.3389,4.3738,5.3114,5.1109,4.9434,5.7154,5.495,5.218,5.3862,5.7659,6.091,6.211,6.412,6.577,6.6441,6.6311,6.6475,6.7339,6.6986,6.7519,6.9626,6.8892,6.8757,6.9976,6.9563,6.9731,7.0743,7.1374,7.1706,7.1625,7.21,7.1961,7.1173,7.0755,6.9831,6.8355,6.7698,6.7748,6.8407,6.9064,7.0579,7.2672,7.3137,7.417,7.5666,7.6604,7.7027,7.7138,7.8104,7.7855,7.7138,7.8131,7.8452,7.8564,0.0,0.0,0.0,0.0,0.0,0.0,0.0,0.0,0.0,0.0,0.0,0.0,0.0,0.0,0.0,0.0,0.0,0.0,0.0,1.9708,2.0597,2.2592,2.3719,2.5304,2.7555,3.2811,3.6297,3.7853,3.914,3.908,3.7721,3.4157,3.1794,3.0416,2.8218,2.7081,2.6782,2.5693,2.6033,2.7165,2.5794,2.6063,0.0,0.0,0.0,0.0,0.0,0.0,0.0,0.0,3.0103,3.1659,3.2033,3.3095,3.4128,3.3889,3.4233,3.4831,3.5296,3.6537,3.905,4.4596,4.4187,4.4986,5.485,5.3509,5.2342,5.9907,5.7842,5.5105,5.6423,5.9797,6.2559,6.3092,6.5124,6.6713,6.6776,6.6837,6.71,6.7729,6.762,6.8197,7.0076,6.96,6.9657,7.0882,7.0718,7.0937,7.1793,7.2571,7.2861,7.265,7.3304,7.3213,7.2361,7.2095,7.1497,7.056,6.9085,6.8604,6.9092,6.9939,7.169,7.4098,7.4543,7.5637,7.7138,7.8211,7.8644,7.8723,7.9785,7.958,7.875,7.9811,8.0209,8.0209,0.0,0.0,0.0,0.0,0.0,0.0,0.0,0.0,0.0,0.0,0.0,0.0,0.0,0.0,0.0,0.0,0.0,0.0,1.9708,1.9708,1.9998,2.0658,2.2562,2.4818,2.7465,3.1404,3.3799,3.4518,3.7122,3.7721,3.6404,3.3754,3.2482,3.2362,2.9774,2.9009,2.9458,2.7452,2.6614,2.6644,2.6614,2.6614,2.6704,0.0,0.0,0.0,0.0,0.0,0.0,0.0,2.9578,3.0057,3.2662,3.3484,3.3649,3.4308,3.5865,3.7387,3.7404,3.7883,3.9517,4.4137,4.3858,4.5046,5.4845,5.3509,5.2133,5.874,6.0114,6.0516,6.1753,6.092,6.0812,6.3111,6.4463,6.5809,6.7535,6.7965,6.8363,6.9024,6.9104,6.9498,7.0524,7.0856,7.0898,7.0746,7.231,7.2756,7.1597,7.3233,7.4163,7.4105,7.4448,7.4821,7.5301,7.3912,7.3368,7.3592,7.2122,7.1404,7.1337,7.2641,7.4937,7.7882,7.7882,7.8776,8.0209,8.0209,8.0209,8.0209,8.0209,8.0209,8.0209,8.0209,8.0209,8.0209,0.0,0.0,0.0,0.0,0.0,0.0,0.0,0.0,0.0,0.0,0.0,0.0,0.0,0.0,0.0,0.0,0.0,0.0,1.9708,1.9708,1.9789,1.9998,2.1884,2.2902,2.2742,2.6602,3.1045,3.5925,3.6673,3.6164,3.4352,3.2602,3.154,3.1091,0.0,0.0,2.8859,2.8248,2.8291,2.859,2.7183,2.7183,2.7979,0.0,0.0,0.0,0.0,0.0,0.0,0.0,0.0,0.0,3.1001,3.2677,3.4338,3.5027,3.5609,3.6178,3.6626,3.8242,4.0457,4.322,4.6241,4.9389,5.2515,5.3476,5.499,5.9546,6.1167,6.1426,6.0195,6.304,6.4953,6.3113,6.494,6.6616,6.6601,6.7481,6.8314,6.8869,6.9206,6.9836,7.1052,7.091,7.114,7.2165,7.2396,7.2635,7.3083,7.3396,7.3756,7.4138,7.4448,7.4681,7.4796,7.4704,7.4214,7.3342,7.4065,7.3857,7.2877,7.326,7.5044,7.7882,7.7882,7.8776,8.0209,8.0209,8.0209,8.0209,8.0209,8.0209,8.0209,8.0209,8.0209,8.0209,0.0,0.0,0.0,0.0,0.0,0.0,0.0,0.0,0.0,0.0,1.9459,1.9708,0.0,0.0,0.0,0.0,0.0,0.0,1.9708,1.9708,1.9818,2.0079,2.1246,2.2143,2.2642,2.5764,2.9219,3.2961,3.3993,3.3754,3.2317,3.2587,3.2497,3.2108,0.0,3.2153,3.0522,2.9983,2.9834,2.9847,2.8637,2.85,2.8936,0.0,0.0,0.0,0.0,0.0,0.0,0.0,0.0,0.0,2.9924,3.1793,3.3933,3.516,3.6596,3.8272,4.0247,4.2491,4.5134,4.8693,5.0578,5.2042,5.3742,5.5338,5.7518,6.114,6.2511,6.2878,6.2438,6.4909,6.6554,6.5177,6.6616,6.7783,6.7381,6.8354,6.9202,6.9545,6.9872,7.0475,7.1506,7.1308,7.1678,7.2966,7.2873,7.3011,7.3584,7.3628,7.3756,7.4019,7.4398,7.4656,7.4746,7.5106,7.4926,7.4214,7.5537,7.5842,7.5284,7.5271,7.654,7.8802,7.8802,7.934,8.0209,8.0209,8.0209,8.0209,8.0209,8.0209,8.0209,8.0209,8.0209,8.0209,0.0,0.0,0.0,0.0,0.0,0.0,0.0,0.0,0.0,1.9519,1.9708,1.9708,0.0,0.0,0.0,1.9708,1.9708,1.9708,1.9708,1.9708,1.9998,2.0668,2.0877,2.2432,2.5513,2.726,2.7872,2.7315,2.994,3.0913,3.0402,3.3081,3.4324,3.4338,0.0,3.4592,3.3125,3.178,3.0883,3.0313,3.0253,2.9924,2.9488,2.9428,0.0,0.0,0.0,0.0,0.0,0.0,0.0,0.0,2.9368,3.0881,3.2811,3.4831,3.8302,4.2301,4.5933,4.8544,5.1505,5.6918,5.5379,5.3561,5.7674,5.8731,5.9813,6.331,6.397,6.4587,6.6815,6.6499,6.6441,6.8289,6.8697,6.8889,6.9067,6.9913,7.0604,7.069,7.0969,7.1431,7.2059,7.2059,7.2398,7.3278,7.3609,7.3635,7.337,7.3892,7.407,7.3873,7.433,7.4697,7.4993,7.5179,7.5422,7.5686,7.6497,7.7232,7.7918,7.7984,7.8822,8.0209,8.0209,8.0209,8.0209,8.0209,8.0209,8.0209,8.0209,8.0209,8.0209,8.0209,8.0209,8.0209,0.0,0.0,0.0,0.0,0.0,0.0,0.0,0.0,1.8792,1.9588,1.9708,1.9708,1.9708,1.9708,0.0,1.9708,1.9708,1.9708,1.9708,1.9708,1.9998,2.0668,2.2163,2.3819,2.5573,2.4986,2.4866,2.5244,2.7906,2.9146,2.9056,0.0,0.0,3.2961,0.0,3.338,0.0,2.9774,2.9146,2.8966,2.844,2.847,2.8757,2.8231,2.7854,0.0,0.0,0.0,0.0,0.0,0.0,0.0,2.9219,3.0582,3.2108,3.4113,3.8277,4.2481,4.3788,4.7138,5.0495,5.1804,5.3416,5.6213,6.2028,6.2693,6.2622,6.4607,6.4793,6.5031,6.6557,6.703,6.7238,6.7488,6.7471,6.7621,6.8186,6.9351,7.0484,7.1415,7.2104,7.2803,7.3544,7.3269,7.318,7.3661,7.3532,7.3473,7.3661,7.3822,7.4077,7.4431,7.4322,7.4523,7.4993,7.5042,7.5155,7.5398,7.6425,7.6995,7.7198,7.832,7.9356,8.0209,8.0209,8.0209,8.0209,8.0209,8.0209,8.0209,8.0209,8.0209,8.0209,8.0209,8.0209,8.0209,0.0,0.0,0.0,0.0,0.0,0.0,0.0,0.0,1.8942,1.9609,1.9708,1.9708,1.9708,1.9708,0.0,0.0,1.9708,1.9708,1.9708,1.9708,2.0148,2.1146,2.2742,2.3939,2.4627,2.368,2.349,2.4137,2.5226,2.6584,0.0,0.0,0.0,3.3036,0.0,3.3021,0.0,0.0,2.9175,2.8637,2.8876,2.8816,2.8577,2.8201,2.7482,2.6644,2.6614,0.0,0.0,0.0,0.0,0.0,0.0,0.0,3.1061,3.335,3.6643,4.0385,4.4197,4.8603,5.2803,5.5621,5.7994,6.046,6.3596,6.458,6.5067,6.6188,6.6125,6.6148,6.7135,6.7525,6.7874,6.841,6.8425,6.8694,6.9498,7.0395,7.1378,7.2411,7.2881,7.3422,7.4206,7.4029,7.4011,7.4347,7.4095,7.4019,7.4179,7.4044,7.4095,7.4398,7.4523,7.4647,7.4796,7.5164,7.5325,7.5301,7.6401,7.7266,7.7976,7.8754,7.9329,7.9701,8.004,8.0209,8.0209,8.0209,8.0209,8.0209,8.0209,8.0209,8.0209,8.0209,8.0209,8.0209,0.0,0.0,0.0,0.0,0.0,0.0,0.0,0.0,0.0,1.9618,1.9708,1.9708,1.9708,1.9708,1.9708,0.0,0.0,0.0,1.9708,1.9818,2.0417,2.1645,2.2802,2.349,2.361,2.2912,2.2872,2.361,2.3002,2.444,0.0,0.0,0.0,3.3335,0.0,0.0,0.0,0.0,2.9056,2.8158,2.9116,2.8936,2.8068,2.7936,2.6949,2.5663,2.6093,2.6393,2.6704,2.7375,0.0,0.0,0.0,0.0,3.0057,3.2332,3.4891,3.8332,4.4436,4.9935,5.5406,6.154,6.339,6.3826,6.4272,6.5523,6.6807,6.7466,6.742,6.7376,6.7737,6.792,6.8402,6.964,6.9988,7.0415,7.1467,7.1978,7.2585,7.3415,7.3492,7.38,7.4556,7.4614,7.4688,7.4968,7.4771,7.4656,7.4606,7.4372,7.4272,7.4272,7.4647,7.4796,7.4681,7.5252,7.5494,7.5301,7.6265,7.7401,7.8695,7.8855,7.9058,7.9329,7.9938,8.0209,8.0209,8.0209,8.0209,8.0209,8.0209,8.0209,8.0209,8.0209,8.0209,8.0209,0.0,0.0,0.0,0.0,0.0,0.0,0.0,0.0,0.0,0.0,1.9708,1.9708,1.9708,1.9708,1.9708,1.9708,1.9708,1.9708,1.9708,0.0,0.0,2.1675,2.2433,2.3052,2.358,2.2443,2.2413,2.361,2.3002,2.468,0.0,0.0,0.0,3.2602,0.0,0.0,0.0,0.0,2.6153,2.5962,2.5561,2.5621,2.5932,2.5352,2.5322,2.5543,2.5023,2.5603,2.6704,2.7375,2.7991,0.0,0.0,0.0,2.9758,3.0642,3.4755,3.9361,4.0905,4.6993,5.4582,6.1591,6.2493,6.2594,6.5973,6.6684,6.6793,6.7446,6.7991,6.8057,6.728,6.8016,6.8975,6.9646,7.025,7.1087,7.2277,7.2735,7.3284,7.4231,7.4331,7.4556,7.5155,7.5067,7.4944,7.4993,7.4968,7.4845,7.4631,7.4581,7.4556,7.4556,7.4372,7.4523,7.4944,7.5042,7.5155,7.5301,7.5691,7.6318,7.7232,7.7841,7.8822,8.0073,8.0175,8.0209,8.0209,8.0209,8.0209,8.0209,8.0209,8.0209,8.0209,8.0209,8.0209,8.0209,0.0,0.0,0.0,0.0,0.0,0.0,0.0,0.0,0.0,0.0,0.0,1.9708,1.9708,1.9708,1.9708,1.9708,1.9708,1.9708,1.9708,1.9968,2.0438,2.1116,2.1425,2.1874,2.2503,2.1635,2.1784,2.3092,2.2094,0.0,0.0,2.88,3.0566,0.0,0.0,0.0,0.0,0.0,2.5854,2.4537,2.4975,2.6243,2.759,2.5442,2.5962,2.756,2.5382,2.5202,2.6123,2.6824,2.7482,2.8051,2.8051,0.0,0.0,0.0,3.1809,3.6121,4.4008,4.8995,5.4237,6.3585,6.4037,6.3235,6.7197,6.766,6.7633,6.8957,6.9749,6.9735,6.8124,6.866,6.9726,7.0921,7.165,7.2438,7.3508,7.3666,7.3999,7.4843,7.4828,7.4926,7.5494,7.5446,7.5373,7.5373,7.5228,7.5106,7.5018,7.4895,7.4821,7.4821,7.4845,7.4895,7.4993,7.5286,7.5446,7.5542,7.5957,7.6637,7.7536,7.8098,7.8832,7.9634,8.0006,8.0209,8.0209,8.0209,8.0209,8.0209,8.0209,8.0209,8.0209,8.0209,8.0209,8.0209,0.0,0.0,0.0,0.0,0.0,0.0,0.0,0.0,0.0,0.0,0.0,1.9708,1.9708,0.0,0.0,0.0,1.9708,1.9708,1.9708,1.9708,1.9908,2.0428,2.0458,2.0677,2.1196,2.0698,2.1006,2.2183,0.0,0.0,2.8607,2.841,3.0626,0.0,3.317,3.1599,0.0,0.0,0.0,2.4758,2.644,2.8098,2.9458,2.8115,2.9175,3.0925,2.7577,2.6787,2.7308,2.6973,2.7303,2.7854,2.7854,2.7854,0.0,0.0,0.0,3.3366,4.5344,4.8995,5.1987,6.2555,6.344,6.2756,6.6696,6.7848,6.8478,6.984,7.1134,7.1501,6.984,7.0095,7.1035,7.2421,7.3152,7.3857,7.4687,7.463,7.4729,7.5349,7.5219,7.5267,7.5686,7.5709,7.5709,7.5709,7.5518,7.5373,7.5301,7.5155,7.5067,7.4993,7.5164,7.5131,7.4993,7.5398,7.5739,7.6014,7.6395,7.7196,7.828,7.8622,7.9019,7.9431,7.9972,8.0209,8.0209,8.0209,8.0209,8.0209,8.0209,8.0209,8.0209,8.0209,8.0209,8.0209,0.0,0.0,0.0,0.0,0.0,0.0,0.0,0.0,0.0,0.0,0.0,1.9708,1.9708,1.9708,1.9708,1.9708,1.9708,1.9708,1.9708,1.9708,1.9708,1.9759,1.9759,0.0,1.9789,1.9768,2.0088,2.0817,0.0,0.0,2.8637,2.9804,3.2168,3.537,3.3379,3.2093,3.1331,0.0,0.0,2.7615,3.0179,3.0538,3.0057,3.4278,3.5985,3.5699,3.2333,3.157,3.1675,2.8603,2.7991,2.8547,2.8547,2.8547,2.8573,0.0,0.0,0.0,4.0708,4.3416,4.6325,5.5571,5.8184,5.9537,6.3395,6.6635,6.8861,6.8961,7.1262,7.3054,7.2509,7.2688,7.3127,7.3709,7.435,7.5015,7.5556,7.5638,7.5638,7.5652,7.5686,7.5686,7.5709,7.5709,7.5709,7.5709,7.5709,7.559,7.5325,7.5301,7.5179,7.4993,7.5018,7.5018,7.4993,7.5204,7.5841,7.6826,7.6869,7.7647,7.9034,7.9067,7.9473,8.0141,8.0175,8.0209,8.0209,8.0209,8.0209,8.0209,8.0209,8.0209,8.0209,8.0209,8.0209,8.0209,0.0,0.0,0.0,0.0,0.0,0.0,0.0,0.0,0.0,0.0,0.0,0.0,0.0,0.0,0.0,1.9708,1.9708,0.0,0.0,1.9708,1.9708,1.9708,1.9708,1.9708,1.9708,1.9708,2.0019,0.0,0.0,2.343,2.7333,2.8231,3.0402,3.3559,3.3275,3.2512,3.1451,3.0538,0.0,2.6811,3.2437,3.4442,3.4338,0.0,4.0217,4.2083,0.0,0.0,3.4681,3.2212,3.0147,2.8607,2.8607,2.8291,2.8085,2.8801,3.051,3.3537,3.9839,4.2317,4.4951,5.2532,5.547,5.7368,6.0641,6.5705,6.9389,6.8187,7.2029,7.5102,7.3467,7.3278,7.3631,7.4408,7.5026,7.546,7.5652,7.5709,7.5709,7.5709,7.5709,7.5709,7.5709,7.5709,7.5709,7.5709,7.5709,7.5662,7.5566,7.5566,7.5518,7.5446,7.5446,7.5682,7.6221,7.6757,7.7236,7.7604,7.8077,7.8585,7.9101,7.96,7.9938,8.0209,8.0209,8.0209,8.0209,8.0209,8.0209,8.0209,8.0209,8.0209,8.0209,8.0209,8.0209,8.0209,0.0,0.0,0.0,0.0,0.0,0.0,0.0,0.0,0.0,0.0,0.0,0.0,0.0,0.0,0.0,2.0058,1.9818,1.9708,1.9708,1.9708,1.9708,1.9708,1.9708,1.9708,1.9708,1.9708,1.9908,0.0,0.0,0.0,0.0,2.7076,2.9099,3.1824,3.2078,3.2437,0.0,0.0,0.0,2.9491,3.6148,3.829,3.7883,0.0,0.0,0.0,0.0,0.0,0.0,3.8422,3.6088,3.329,3.1988,2.9823,2.7883,2.8276,3.0354,3.3328,3.718,3.9582,4.2565,4.8987,5.1266,5.3263,5.8427,6.4295,6.8501,6.8059,7.2942,7.6657,7.4593,7.4484,7.4932,7.5784,7.6236,7.6454,7.6454,7.6454,7.6454,7.6454,7.6251,7.6082,7.6082,7.5845,7.5709,7.5709,7.5709,7.5709,7.5709,7.5709,7.5811,7.6082,7.6082,7.6487,7.7266,7.7739,7.8111,7.8382,7.8889,7.9228,7.9498,7.9972,8.0209,8.0209,8.0209,8.0209,8.0209,8.0209,8.0209,8.0209,8.0209,8.0209,8.0209,8.0209,8.0209,8.0209,0.0,0.0,0.0,0.0,0.0,0.0,0.0,0.0,0.0,0.0,0.0,0.0,0.0,0.0,0.0,2.0817,2.0139,1.9738,1.9729,1.9708,1.9708,1.9708,1.9708,0.0,0.0,0.0,0.0,0.0,0.0,0.0,0.0,0.0,2.853,3.0402,2.9847,3.1763,3.5413,0.0,3.6507,3.5832,0.0,4.1863,4.0259,0.0,0.0,0.0,4.8349,4.781,0.0,4.707,4.5583,4.2502,3.8452,3.3049,2.8094,2.7326,2.9663,3.2551,0.0,0.0,0.0,4.4519,4.533,4.7158,5.6453,6.1992,6.5867,6.8381,7.3578,7.7324,7.5946,7.642,7.7232,7.7967,7.8034,7.8,7.8,7.8,7.8,7.8,7.7333,7.6893,7.6927,7.6183,7.5709,7.5743,7.5709,7.5709,7.5743,7.5743,7.6082,7.6893,7.6927,7.7299,7.8034,7.8068,7.8416,7.9135,7.9135,7.9532,8.0209,8.0209,8.0209,8.0209,8.0209,8.0209,8.0209,8.0209,8.0209,8.0209,8.0209,8.0242,8.0242,8.0242,8.0242,8.0242,0.0,0.0,0.0,0.0,0.0,2.0587,2.1076,2.0737,2.0587,0.0,0.0,0.0,0.0,0.0,0.0,2.2154,2.1525,2.0946,2.0458,1.9968,1.9708,1.9708,1.9708,1.9708,1.9708,1.9708,1.9708,1.9708,0.0,0.0,0.0,2.4747,2.6482,2.8453,2.9698,3.0851,3.1958,3.2781,0.0,3.3304,4.1504,4.318,0.0,0.0,0.0,0.0,0.0,5.3354,5.0511,5.1858,4.7018,3.9469,3.3758,3.061,2.9021,2.913,3.1154,3.3361,3.338,0.0,0.0,0.0,0.0,0.0,4.7576,5.3078,5.8612,6.2632,6.7793,7.2394,7.5202,7.7671,7.9363,7.9566,7.8686,7.8,7.8,7.8,7.8,7.8,7.7333,7.7096,7.7638,7.6487,7.6149,7.7266,7.6318,7.5946,7.6555,7.6555,7.6657,7.6893,7.7942,7.8585,7.8788,7.9329,7.9701,7.9904,7.9904,8.0006,8.0209,8.0209,8.0209,8.0209,8.0209,8.0209,8.0209,8.0209,8.0209,8.0242,8.0784,8.1012,8.1054,8.1596,8.146,8.1012,0.0,0.0,2.0836,2.1754,2.2123,2.2542,2.3221,2.2761,2.2452,0.0,0.0,0.0,0.0,0.0,0.0,0.0,2.2493,2.1695,2.0748,2.0079,1.9708,1.9708,1.9968,2.0109,2.0109,2.0109,2.0109,2.0109,2.0518,2.1246,2.2303,2.358,2.4945,2.6393,2.7517,2.8504,2.9309,2.9415,3.1196,0.0,4.3449,0.0,0.0,5.3743,5.5299,5.3509,5.7816,5.7004,5.4431,5.8261,5.2552,4.312,3.8597,3.4227,0.0,0.0,3.3078,3.4664,3.4542,3.5842,3.7513,3.8566,0.0,0.0,4.7322,5.2556,5.7904,6.3815,6.9417,7.368,7.4999,7.6927,7.8416,7.8754,7.8348,7.8213,7.8822,7.8923,7.8923,7.8923,7.828,7.7976,7.8416,7.7367,7.7029,7.7933,7.7164,7.686,7.7333,7.6758,7.6826,7.7807,7.8348,7.8957,7.9566,8.0006,8.0209,8.0209,8.0209,8.0209,8.0209,8.0209,8.0209,8.0209,8.0209,8.0378,8.0648,8.0648,8.0648,8.0716,8.146,8.1765,8.1799,8.2238,8.2137,8.1765,0.0,0.0,2.2273,2.3702,2.4448,2.5094,2.5979,2.5458,2.5028,0.0,0.0,0.0,0.0,0.0,0.0,0.0,2.3456,2.2404,2.1035,2.0275,1.9816,1.9818,2.0387,2.0737,2.0817,2.0836,2.0816,2.0707,2.0797,2.1136,2.1744,2.2932,2.3838,2.4485,2.4575,2.5633,2.7375,2.7123,3.1001,3.7943,4.5415,4.8379,4.9015,5.5777,5.5662,5.2821,5.9428,5.9638,5.7809,6.4006,5.9518,5.0757,4.7815,0.0,0.0,0.0,3.5345,3.677,3.6195,3.661,3.7959,4.09,3.9289,0.0,5.0347,5.4868,5.8916,6.6318,7.2124,7.5303,7.3375,7.368,7.439,7.4965,7.6149,7.7705,7.9667,8.0175,8.0209,7.9972,7.9464,7.9135,7.9329,7.8517,7.8068,7.8213,7.817,7.8102,7.8,7.669,7.6927,7.9034,7.845,7.8788,8.0175,8.0209,8.0209,8.0209,8.0209,8.0209,8.0209,8.0209,8.0209,8.0209,8.0209,8.0615,8.1317,8.1317,8.1317,8.1384,8.2205,8.2441,8.2306,8.2577,8.2543,8.2408,2.2254,2.2414,2.3284,2.5813,2.6231,2.6879,2.8922,2.8064,2.7654,2.9017,0.0,0.0,0.0,0.0,0.0,0.0,0.0,2.4151,2.2646,2.1423,2.0663,2.0498,2.0732,2.1063,2.1495,2.1651,2.1418,2.0771,2.1322,2.1653,2.1813,2.2524,2.3201,2.3808,2.4365,2.5124,2.6153,2.8667,3.2407,3.7032,4.1254,4.5085,4.9127,5.6795,5.8471,5.7547,6.3647,6.3737,6.0924,6.0715,5.9548,5.6539,4.7177,0.0,0.0,3.6905,0.0,0.0,0.0,0.0,0.0,0.0,0.0,0.0,4.0965,4.2902,4.6132,5.1929,5.4532,5.7239,6.2042,6.4072,6.4647,6.3565,6.7557,7.2597,7.7705,7.9938,8.0437,7.8619,7.8822,7.9566,8.075,7.9126,7.8483,7.9667,7.9228,7.8619,7.8034,7.7705,7.801,7.9067,7.8957,7.9329,8.0175,8.0209,8.0209,8.0209,8.0209,8.0209,8.0209,8.0209,8.0209,8.0209,8.0209,8.0615,8.1317,8.1317,8.1317,8.1452,8.2746,8.2543,8.1731,8.3498,8.3396,8.2408,2.329,2.41,2.5514,2.7918,2.8815,2.9854,3.1737,3.1119,3.0694,0.0,0.0,0.0,0.0,0.0,0.0,0.0,0.0,0.0,2.3947,2.2906,2.2139,2.166,2.2035,2.2478,2.3001,2.2825,2.2469,2.1901,2.2293,2.2313,2.1969,2.2847,2.4733,2.7323,2.5436,2.66,2.9923,2.9185,3.1536,3.64,4.3458,4.8476,5.2546,6.0146,6.2421,6.1943,6.4934,6.5383,6.4275,6.2692,6.0382,5.7513,5.3836,5.0486,4.6925,0.0,4.2168,4.3317,0.0,0.0,0.0,4.115,0.0,0.0,0.0,4.3686,4.6055,5.1708,5.3484,5.4905,5.7915,5.8795,5.9066,5.8998,6.3429,6.7252,6.8368,7.4931,7.9769,8.0141,8.0513,8.1054,8.1765,8.0851,8.0344,8.0716,7.9735,7.9092,7.9092,7.8044,7.8111,7.96,7.8957,7.9092,8.0175,8.0209,8.0209,8.0209,8.0209,8.0209,8.0209,8.0209,8.0209,8.0209,8.0209,8.0615,8.1317,8.1317,8.1494,8.1968,8.305,8.3287,8.305,8.3795,8.3592,8.2949,2.4398,2.5814,2.7641,2.9541,3.1083,3.2501,3.3907,3.3769,3.3495,0.0,0.0,0.0,0.0,0.0,0.0,0.0,0.0,0.0,0.0,2.5686,2.505,2.4324,2.3879,2.4261,2.5587,2.4388,2.3524,2.3051,2.3305,2.3029,2.2336,2.3416,2.6176,3.0191,2.7361,2.9039,3.3788,3.0724,3.259,3.8399,4.7667,5.2097,5.3952,6.1732,6.4246,6.3828,6.5053,6.6463,6.7487,6.5381,6.1852,5.855,5.9445,5.5158,0.0,0.0,0.0,0.0,0.0,0.0,0.0,0.0,0.0,4.1767,0.0,0.0,0.0,5.2469,5.3957,5.4313,5.3687,5.3112,5.301,5.389,5.8051,6.0216,5.7457,6.6914,7.5067,7.7604,7.9566,8.0479,7.9904,7.9676,8.0048,8.119,7.8966,7.8323,8.0107,7.8382,7.8213,8.0141,7.8889,7.8855,8.0175,8.0209,8.0209,8.0209,8.0209,8.0209,8.0209,8.0209,8.0209,8.0209,8.0209,8.0615,8.1283,8.1148,8.1596,8.2475,8.305,8.3558,8.3903,8.3456,8.3287,8.3287,2.5871,2.6937,2.8343,2.9877,3.1655,3.3251,3.4454,3.4951,3.5305,0.0,0.0,0.0,0.0,0.0,0.0,0.0,0.0,0.0,3.2219,3.1542,3.1068,3.043,2.6156,2.5853,3.0321,2.6618,2.42,2.3272,2.3887,2.3835,2.319,2.3897,2.5265,2.7266,3.0191,3.1849,3.2665,3.6042,4.101,4.6928,5.06,4.9464,4.6591,5.6226,5.9461,5.9635,6.52,6.8758,6.996,6.4549,6.4274,6.4575,5.5038,5.5403,5.7381,4.7355,0.0,0.0,0.0,0.0,0.0,0.0,4.468,0.0,0.0,0.0,4.257,4.1284,0.0,4.211,4.1995,0.0,0.0,4.0358,4.5026,4.912,4.9999,5.5919,6.0554,6.1549,6.9248,7.3477,7.0872,6.9882,7.2696,8.0682,7.5546,7.4408,7.9904,7.9329,7.9261,8.0175,7.9397,7.9363,8.0175,8.0209,8.0209,8.0209,8.0209,8.0209,8.0209,8.0209,8.0209,8.0209,8.0209,8.0615,8.1249,8.0581,8.1156,8.2408,8.2509,8.2171,8.1731,8.2306,8.2543,8.2543,2.6335,2.788,2.948,3.0081,3.1813,3.3488,3.4542,3.6335,3.7638,0.0,0.0,0.0,0.0,0.0,0.0,0.0,0.0,4.1109,0.0,0.0,0.0,3.1969,2.855,2.7572,2.9477,2.6989,2.5148,2.4059,2.4398,2.4252,2.3608,2.4544,2.7368,3.1649,3.2939,3.6915,4.2524,4.0973,4.2885,4.7113,4.8517,4.7905,4.7516,5.9683,6.4889,6.6108,6.857,7.085,7.192,6.7362,6.5345,6.4334,6.209,0.0,0.0,5.3827,0.0,0.0,0.0,0.0,0.0,0.0,0.0,0.0,4.3349,0.0,4.0358,0.0,0.0,0.0,0.0,0.0,0.0,0.0,4.2828,4.5466,4.347,4.9796,5.6224,6.0452,6.46,6.8288,7.1345,6.934,7.121,7.9431,7.4546,7.3272,7.8044,7.9228,7.987,8.0175,7.9498,7.9464,8.0175,8.0209,8.0209,8.0209,8.0209,8.0209,8.0209,8.0209,8.0209,8.0209,8.0209,8.0378,8.0648,8.031,8.0818,8.1765,8.1765,8.1832,8.1968,8.2306,8.2408,8.2475,2.7139,0.0,3.0032,2.9993,3.1661,3.349,3.4889,3.7359,3.9125,3.9413,0.0,0.0,4.3935,4.3747,0.0,0.0,4.7426,4.6148,0.0,4.1728,3.9832,3.8255,3.2559,3.0464,3.2733,2.8748,2.6107,2.5059,2.5099,2.4972,2.4699,2.578,2.903,3.4018,3.5305,4.0442,4.7984,4.5977,4.7519,5.1423,5.1997,5.3352,5.5907,6.42,6.9278,7.1941,7.1804,7.295,7.3857,6.9639,6.6915,6.5528,6.7046,6.2859,5.7886,0.0,0.0,0.0,5.1028,0.0,5.3628,4.8601,4.8842,4.907,0.0,0.0,0.0,0.0,0.0,0.0,0.0,0.0,0.0,0.0,0.0,4.2591,0.0,4.4147,0.0,0.0,5.7915,6.1724,6.8559,6.5439,6.6703,7.5686,7.1672,7.1334,7.7198,7.9397,8.0479,8.0479,7.9803,7.9667,8.0175,8.0209,8.0209,8.0209,8.0209,8.0209,8.0209,8.0209,8.0209,8.0209,8.0209,8.0209,8.0209,8.0209,8.0615,8.1317,8.1317,8.1731,8.2408,8.2408,8.2543,8.278,2.8732,2.9257,2.9577,2.9458,3.12,3.3401,3.5787,3.7732,3.9182,3.9952,4.2435,0.0,0.0,0.0,0.0,0.0,0.0,5.497,5.1936,4.8469,4.8588,5.3192,3.9026,3.5111,4.3902,3.3228,2.7089,2.6161,2.6028,2.6283,2.6936,2.7783,2.9149,3.1101,3.711,4.0947,4.336,5.123,5.8347,6.4482,6.5634,6.9136,7.3167,6.7804,6.9013,7.3584,7.3886,7.5191,7.5905,7.0001,6.9722,7.0867,6.5466,6.5371,6.6928,6.5226,6.5945,6.6006,6.004,5.9137,5.7762,4.9018,4.7413,4.6636,4.142,0.0,4.2882,0.0,0.0,0.0,0.0,0.0,0.0,0.0,0.0,0.0,0.0,0.0,0.0,0.0,0.0,0.0,0.0,5.3602,5.5727,6.8448,6.5044,6.7251,7.8425,8.0445,8.1283,8.1283,8.0547,8.0175,8.0209,8.0209,8.0209,8.0209,8.0209,8.0209,8.0209,8.0209,8.0209,8.0209,8.0209,8.0209,8.0209,8.0209,8.0615,8.1317,8.1317,8.1731,8.2408,8.2408,8.2847,8.3456,3.1206,3.1105,3.0863,3.0289,3.1089,3.2788,3.5753,3.8145,4.0784,4.4039,4.6413,4.9632,5.452,5.6076,5.7802,6.0455,6.218,6.1671,5.826,5.4486,5.3476,5.6045,4.3835,3.9142,4.377,3.6148,3.1258,2.9524,2.8715,2.8467,2.881,2.9603,3.1048,3.323,3.8004,4.3914,5.0507,5.4081,5.9074,6.473,6.6123,6.8908,7.2333,7.3475,7.4952,7.6594,7.7891,7.8976,7.9134,7.4597,7.3288,7.3342,7.2042,6.9032,6.6714,7.0113,6.8741,6.588,6.4787,6.6987,6.7306,5.7836,5.6119,5.4634,4.6394,4.3944,0.0,0.0,0.0,0.0,0.0,0.0,0.0,0.0,0.0,0.0,0.0,0.0,0.0,0.0,0.0,0.0,0.0,0.0,0.0,6.4728,6.4843,6.748,7.4289,7.8416,8.0344,7.987,8.0547,8.0682,8.0209,8.0209,8.0209,8.0209,8.0209,8.0209,8.0209,8.0209,8.0209,8.0209,8.0209,8.0209,8.0209,8.0209,8.0615,8.1351,8.1832,8.2475,8.3118,8.3118,8.3287,8.3558,3.3245,3.2641,3.2078,3.1511,3.2359,3.4112,3.713,3.9927,4.3478,4.8392,5.0459,5.3597,5.911,6.0315,6.1655,6.3917,6.4868,6.4279,6.1733,5.7926,5.6951,5.9664,5.0047,4.6456,5.0426,4.2142,3.7089,3.5729,3.2273,3.092,3.1531,3.1704,3.2739,3.4603,3.8031,4.4456,5.2925,5.6554,6.1779,6.7826,6.9913,7.2291,7.4926,7.7196,7.7629,7.7374,8.0196,8.1413,8.1325,7.8889,7.7699,7.7288,7.7893,7.4992,7.2073,7.6034,7.4401,7.1242,7.0882,7.2985,7.3213,6.4538,6.2809,6.0791,5.1319,4.8646,4.765,0.0,0.0,0.0,0.0,0.0,0.0,0.0,0.0,0.0,0.0,3.6457,0.0,0.0,0.0,0.0,0.0,0.0,0.0,0.0,0.0,0.0,0.0,7.7266,7.96,7.9101,8.0513,8.1054,8.0581,8.031,8.031,8.0581,8.031,8.0209,8.0209,8.0209,8.0209,8.0209,8.0209,8.0209,8.0209,8.0479,8.1021,8.1765,8.2509,8.3253,8.3896,8.3896,8.3896,8.3964,3.4832,3.3963,3.337,3.3235,3.4963,3.724,3.9817,4.2986,4.7061,5.2566,5.4561,5.742,6.2585,6.2815,6.3766,6.6659,6.5066,6.3622,6.2978,5.9414,5.9626,6.4948,5.7631,5.6597,6.333,5.0911,4.4304,4.4248,3.6659,3.3632,3.4955,3.4159,3.4216,3.5072,3.7411,4.2752,5.0599,5.8658,6.6597,7.4075,7.6715,7.9025,8.0682,7.8745,7.6907,7.6019,8.0674,8.2374,8.234,8.2306,8.234,8.2382,8.2374,8.2374,8.2408,8.2408,8.2441,8.1697,7.8179,7.7266,7.5676,6.9045,6.7231,6.483,5.6156,5.575,5.663,5.4431,0.0,0.0,0.0,0.0,0.0,0.0,0.0,0.0,0.0,0.0,0.0,0.0,0.0,0.0,0.0,0.0,0.0,0.0,0.0,0.0,0.0,7.669,7.872,7.9169,8.0445,8.1215,8.1351,8.0547,8.0513,8.1317,8.0547,8.0209,8.0209,8.0209,8.0209,8.0209,8.0209,8.0209,8.0242,8.1012,8.1731,8.2475,8.3219,8.3964,8.4614,8.4614,8.4614,8.4614,3.6805,3.72,3.7694,3.7652,3.8201,3.9383,4.1541,4.5914,5.032,5.4119,5.9705,6.4507,6.7719,7.0866,7.1955,7.0011,7.0473,7.0383,6.9136,6.5932,6.7211,7.4239,6.5966,6.3161,6.7343,5.6435,5.0189,4.9193,4.1374,3.7556,3.7444,3.6688,3.6189,3.5959,3.7869,4.323,5.1355,5.8376,6.799,7.8247,7.5699,7.4894,7.5484,7.7318,7.6907,7.5951,8.0065,8.1562,8.1494,8.0953,8.1494,8.2306,8.1765,8.1968,8.2408,8.2408,8.278,8.3016,8.2069,8.2205,8.1401,7.6386,7.3443,7.0297,6.4681,6.3396,6.2922,6.1298,6.1617,6.1076,0.0,0.0,0.0,0.0,0.0,0.0,0.0,0.0,0.0,0.0,0.0,0.0,0.0,0.0,0.0,0.0,0.0,0.0,7.3849,7.1548,7.3274,8.0513,7.9523,7.9904,8.2103,8.031,8.004,8.1317,8.0547,8.0209,8.0209,8.0209,8.0209,8.0209,8.0209,8.0209,8.0242,8.1012,8.1731,8.2475,8.3219,8.3964,8.4614,8.4614,8.4614,8.4614,3.8843,4.0092,4.1431,4.195,4.4464,4.6731,4.7735,4.9768,5.3349,5.933,6.3733,6.7412,7.0215,7.3908,7.5292,7.32,7.2731,7.2033,7.076,6.8813,6.986,7.4735,7.094,6.9535,7.1334,6.3937,0.0,5.4513,4.6828,4.1861,3.958,3.7889,3.6848,3.6525,3.8158,4.2746,4.995,6.0579,7.0163,7.8111,7.6555,7.6449,0.0,7.7816,7.7994,7.8267,8.0488,8.152,8.1731,8.1291,8.1731,8.234,8.19,8.2069,8.2408,8.2408,8.2915,8.349,8.349,8.4065,8.4005,8.1528,7.96,7.7029,7.1853,7.0364,6.9722,6.8584,6.7501,6.6622,6.6047,0.0,0.0,0.0,0.0,0.0,0.0,0.0,0.0,0.0,0.0,0.0,0.0,0.0,0.0,0.0,0.0,0.0,0.0,6.8116,7.0963,7.7085,7.742,7.845,8.0445,7.7942,7.8044,8.0784,8.0073,7.9904,8.0209,8.0209,8.0209,8.0209,8.0209,8.0209,8.0276,8.1325,8.2035,8.2509,8.3592,8.4208,8.4614,8.4614,8.4614,8.4614,4.0916,4.2724,4.4737,4.5904,5.1194,5.5608,5.6389,5.5462,5.762,6.5821,6.7637,6.9118,7.1594,7.4525,7.6183,7.5879,7.3409,7.1582,7.0873,7.0276,7.067,7.2266,7.4364,7.5516,7.5618,7.1819,6.6542,5.9859,5.2216,4.6027,4.1271,3.8307,3.6885,3.6863,3.834,4.2672,4.9778,6.372,7.2225,7.6589,7.828,8.0175,8.1731,7.9329,7.9625,8.1317,8.1418,8.1866,8.2408,8.2306,8.2374,8.2543,8.2543,8.2611,8.2652,8.2577,8.3016,8.349,8.3389,8.3828,8.4309,8.4309,8.4309,8.2956,7.7874,7.6724,7.6555,7.6024,7.2304,7.1086,7.7502,6.5358,0.0,0.0,0.0,0.0,0.0,0.0,0.0,0.0,0.0,0.0,0.0,0.0,0.0,0.0,0.0,0.0,0.0,0.0,6.9411,7.277,7.531,7.6995,7.7841,7.5462,7.6115,7.9904,7.9464,7.96,8.0209,8.0209,8.0209,8.0209,8.0209,8.0209,8.031,8.1799,8.2483,8.2821,8.4106,8.4614,8.4614,8.4614,8.4614,8.4614,4.3043,4.5293,4.778,4.8659,5.2469,5.7692,6.4551,6.696,6.8063,6.8345,7.3371,7.6405,7.5067,7.7604,7.8686,7.686,7.5608,7.5144,7.5628,7.4942,7.6048,7.9372,7.9904,8.0412,8.1021,7.6159,7.0635,6.4532,5.5869,4.8357,4.2049,3.9106,3.7381,3.6863,3.834,4.6699,5.9964,6.4566,7.1842,8.0175,7.8754,7.8788,7.9769,8.0445,8.0978,8.1384,8.2002,8.2306,8.2306,8.1697,8.2306,8.3321,8.3321,8.3727,8.4106,8.349,8.3389,8.3355,8.278,8.2712,8.2787,8.2787,8.2787,8.2678,8.2238,8.2137,8.2272,8.2754,8.2111,8.042,7.6927,6.6779,0.0,0.0,0.0,0.0,0.0,0.0,0.0,0.0,0.0,0.0,0.0,0.0,0.0,0.0,0.0,0.0,0.0,0.0,6.3222,7.6541,7.5686,7.5676,7.7063,7.7773,7.8213,7.8382,7.9498,8.0073,8.0209,8.0209,8.0209,8.0209,8.0209,8.0209,8.031,8.1799,8.3092,8.4242,8.4512,8.4614,8.4614,8.4614,8.4614,8.4614,4.8489,4.9308,5.076,5.3413,5.7983,6.3059,6.8301,7.2969,7.4942,7.2179,7.4377,7.5777,7.4661,7.7232,7.8619,7.7536,7.6758,7.6826,7.7976,7.7299,7.8044,8.0615,8.1114,8.0919,8.0141,7.916,7.4018,6.4546,5.9118,5.1809,4.2794,3.9466,3.7516,3.7066,4.276,5.0168,5.8881,6.6914,7.3443,7.8517,8.0175,8.1054,8.146,8.2171,8.2441,8.2475,8.2847,8.3219,8.3362,8.2238,8.2069,8.2408,8.2813,8.3186,8.3362,8.305,8.3186,8.3321,8.2611,8.2678,8.2983,8.2983,8.2678,8.2611,8.3321,8.349,8.3592,8.3964,8.4309,8.2517,7.5811,6.7929,6.1129,0.0,0.0,0.0,0.0,0.0,0.0,0.0,0.0,0.0,0.0,0.0,0.0,0.0,0.0,0.0,0.0,0.0,6.2393,0.0,7.4546,7.5337,7.801,7.7198,7.757,7.9126,7.987,8.0209,8.0209,8.0209,8.0209,8.0209,8.0209,8.0412,8.0885,8.2374,8.3625,8.4614,8.4614,8.4614,8.4614,8.4614,8.4614,8.4614,5.475,5.4573,5.5304,5.9348,6.4174,6.8402,7.0973,7.598,7.8619,7.6115,7.527,7.4897,7.4897,7.7053,7.845,7.845,7.8077,7.8247,7.9295,7.8923,7.9194,8.0378,8.1012,8.064,7.9194,8.146,7.7198,6.6081,6.2753,5.5683,4.5181,4.0684,3.8971,4.0011,4.8578,5.4702,5.9321,7.006,7.5777,7.7942,8.19,8.349,8.349,8.349,8.349,8.3524,8.3693,8.4031,8.4208,8.3219,8.2475,8.2103,8.2678,8.2855,8.2821,8.2678,8.305,8.3321,8.2611,8.2813,8.3253,8.3253,8.2847,8.2543,8.3118,8.3253,8.3321,8.3456,8.4099,8.2415,7.527,7.0635,6.6711,6.3009,0.0,0.0,0.0,0.0,0.0,0.0,0.0,0.0,0.0,0.0,0.0,0.0,0.0,0.0,5.9295,0.0,0.0,7.1961,7.2122,7.3464,7.6415,7.5686,7.6724,7.9498,7.9972,8.0209,8.0209,8.0209,8.0276,8.0412,8.0412,8.0919,8.1858,8.3016,8.393,8.4614,8.4614,8.4614,8.4614,8.4614,8.4614,8.4614,6.0264,6.1544,6.3369,6.644,6.8571,7.1075,7.4627,7.6352,7.7807,7.9464,7.96,7.9566,7.9566,7.9803,8.0006,8.0006,8.0547,8.0648,8.0141,8.0648,8.1046,8.1215,8.1283,8.1824,8.2949,8.3253,8.0479,7.4559,6.759,5.981,5.1319,4.4215,4.3741,4.9068,5.4059,6.2042,7.1875,7.3781,7.8154,8.3734,8.3558,8.349,8.349,8.349,8.349,8.3592,8.4242,8.4133,8.3693,8.4208,8.4343,8.4309,8.4377,8.4377,8.4242,8.3592,8.3456,8.3321,8.2611,8.2475,8.2509,8.2509,8.2475,8.2441,8.2509,8.2509,8.2712,8.3355,8.4099,8.272,7.6623,7.7266,7.5134,6.4194,0.0,0.0,0.0,0.0,0.0,0.0,0.0,0.0,0.0,0.0,0.0,0.0,4.6766,0.0,0.0,0.0,5.9112,6.8884,6.7928,6.741,6.7781,7.4353,7.7502,7.7232,7.9228,8.0209,8.0209,8.0209,8.0547,8.1215,8.1215,8.1968,8.3287,8.3422,8.393,8.4614,8.4614,8.4614,8.4614,8.4614,8.4614,8.4614,6.644,6.6034,6.6555,6.9992,7.1481,7.3297,7.6555,7.8111,7.9194,8.0073,8.0209,8.0378,8.0784,8.0445,8.0378,8.0818,8.1148,8.1181,8.0885,8.1528,8.1765,8.1317,8.1731,8.2035,8.2171,8.2611,8.0479,7.5709,6.7793,6.0636,5.4245,4.9898,5.1285,5.7764,6.4038,6.9789,7.51,7.9464,8.3118,8.5899,8.5182,8.4877,8.4809,8.4336,8.4167,8.42,8.4478,8.4411,8.414,8.3998,8.3659,8.3362,8.3795,8.3964,8.3896,8.3592,8.349,8.3422,8.3152,8.2746,8.2509,8.2949,8.2746,8.2543,8.2949,8.2712,8.2483,8.278,8.3422,8.3355,8.1401,7.9092,7.6826,7.4728,7.1751,0.0,0.0,0.0,0.0,0.0,0.0,0.0,0.0,0.0,0.0,0.0,0.0,0.0,0.0,0.0,5.8687,6.5265,7.0231,7.2776,7.2776,7.714,7.9397,7.9566,8.0885,8.1054,8.0209,8.0209,8.0581,8.1317,8.1765,8.2543,8.3524,8.3998,8.4309,8.4614,8.4614,8.4614,8.4614,8.4614,8.4614,8.4614,7.1921,7.0872,7.0872,7.439,7.5462,7.6444,7.8348,7.9904,8.0682,8.0242,8.0581,8.0953,8.1283,8.1021,8.1054,8.1562,8.1799,8.1832,8.1629,8.2306,8.2306,8.1351,8.1799,8.1832,8.1317,8.1799,8.075,7.7976,7.0669,6.4965,6.0892,5.8152,6.025,6.6576,7.2732,7.6792,7.9295,8.4099,8.6433,8.6839,8.6095,8.5817,8.5689,8.4911,8.4614,8.4614,8.4614,8.4614,8.4478,8.3761,8.3016,8.2509,8.3016,8.3186,8.3186,8.3186,8.3186,8.3186,8.3186,8.2949,8.2847,8.3355,8.3287,8.3152,8.3422,8.2949,8.234,8.2137,8.3016,8.393,8.4208,8.1021,7.872,7.9904,7.7232,7.5439,0.0,7.6802,0.0,0.0,0.0,0.0,7.3952,0.0,0.0,0.0,0.0,0.0,0.0,0.0,0.0,0.0,0.0,7.4083,7.5165,7.8087,8.0141,8.1317,8.1832,8.1528,8.0513,8.075,8.1257,8.1968,8.2746,8.3355,8.3862,8.4377,8.4614,8.4614,8.4614,8.4614,8.4614,8.4614,8.4614,8.4614,7.6352,7.6792,7.7705,8.0674,8.1215,8.0953,8.0276,8.1426,8.1866,8.0378,8.146,8.2103,8.1384,8.1934,8.2408,8.2408,8.305,8.3152,8.2441,8.3084,8.2813,8.1384,8.1317,8.1317,8.1317,8.1317,8.2027,8.3422,7.8111,7.4762,7.3195,6.9451,7.05,7.5676,7.8754,8.2577,8.6771,8.6873,8.6907,8.6839,8.6095,8.5817,8.5689,8.4911,8.4614,8.4614,8.4614,8.4614,8.4478,8.3761,8.3016,8.2408,8.2382,8.2382,8.2382,8.2382,8.2382,8.2382,8.2382,8.2949,8.349,8.349,8.4065,8.4377,8.3659,8.2949,8.2205,8.1486,8.305,8.4377,8.3659,8.4065,8.2348,7.5753,7.8348,7.8889,0.0,7.1391,0.0,7.1266,5.9467,5.6567,6.9861,5.7006,0.0,0.0,0.0,0.0,0.0,0.0,0.0,6.8446,6.6736,0.0,7.1063,7.5705,7.9151,8.1317,8.1317,8.1317,8.1317,8.2035,8.278,8.3524,8.4242,8.458,8.458,8.4614,8.4614,8.4614,8.4614,8.4614,8.4614,8.4614,8.4614,8.4614,7.9092,7.9972,8.0784,8.1215,8.1697,8.1968,8.1731,8.2103,8.2238,8.1765,8.2543,8.305,8.2813,8.2577,8.2611,8.3118,8.2915,8.2881,8.3118,8.3355,8.3287,8.2813,8.1858,8.108,8.0547,8.0547,8.1257,8.2746,7.801,7.598,7.6545,7.5361,7.7841,8.3389,8.4336,8.5858,8.7651,8.7651,8.7651,8.755,8.6298,8.5452,8.4843,8.3565,8.3092,8.3092,8.3092,8.3422,8.3761,8.3016,8.2949,8.305,8.2577,8.2069,8.1731,8.2272,8.2035,8.1968,8.3464,8.2983,8.2238,8.3253,8.3321,8.305,8.2813,8.2171,8.1731,8.2002,8.2611,8.3186,8.3456,8.4099,8.3565,8.042,8.1942,8.2475,7.9304,7.8889,7.8864,7.8815,7.3678,7.2427,7.824,6.8777,0.0,0.0,0.0,0.0,0.0,0.0,0.0,0.0,7.2381,7.486,7.3485,7.7004,7.96,8.1317,8.1799,8.2069,8.2069,8.2306,8.2813,8.3524,8.3761,8.4133,8.4614,8.4614,8.4614,8.4614,8.4614,8.4614,8.4614,8.4614,8.4614,8.4614,8.1122,8.1765,8.234,8.2137,8.2509,8.2644,8.2069,8.2475,8.2509,8.1697,8.2712,8.349,8.349,8.3355,8.3396,8.3862,8.349,8.3422,8.3896,8.393,8.3795,8.3524,8.2611,8.1765,8.1054,8.1021,8.1765,8.3227,8.1021,8.0547,8.1765,8.1765,8.3727,8.7347,8.7617,8.7685,8.7617,8.7888,8.7685,8.7076,8.5824,8.4877,8.4065,8.2881,8.2408,8.2408,8.2408,8.2712,8.2983,8.2238,8.2272,8.2543,8.1799,8.1257,8.1021,8.1765,8.1663,8.1528,8.2644,8.2137,8.152,8.2441,8.2543,8.234,8.2069,8.2035,8.2103,8.2002,8.2441,8.2949,8.3422,8.3896,8.3971,8.3328,8.4005,8.4275,8.3362,8.2754,8.157,7.9254,0.0,7.6854,0.0,7.3948,7.0512,0.0,0.0,0.0,0.0,0.0,6.7214,6.9691,7.6,7.8517,7.6724,7.8585,8.0242,8.1731,8.2171,8.2543,8.2813,8.2813,8.3219,8.393,8.393,8.4174,8.4614,8.4614,8.4614,8.4614,8.4614,8.4614,8.4614,8.4614,8.4614,8.4614,8.2272,8.234,8.2644,8.3287,8.3456,8.305,8.1655,8.2611,8.2746,8.0615,8.2137,8.3422,8.3422,8.4065,8.4444,8.4444,8.4478,8.4546,8.4614,8.4546,8.4242,8.3592,8.349,8.3084,8.2382,8.2408,8.3159,8.4749,8.6203,8.7279,8.7989,8.7955,8.7922,8.7955,8.8632,8.8158,8.6873,8.755,8.6974,8.5581,8.4776,8.4031,8.3253,8.2543,8.2272,8.2272,8.2272,8.2306,8.2238,8.1528,8.1351,8.1283,8.0581,8.0344,8.0479,8.1088,8.1283,8.1114,8.0513,8.0784,8.1249,8.1283,8.1765,8.2069,8.1426,8.234,8.2949,8.1655,8.2509,8.349,8.3422,8.3524,8.3795,8.4411,8.458,8.4546,8.4377,8.3219,8.0158,7.4303,7.2549,7.2346,7.373,7.3999,7.5937,0.0,0.0,0.0,0.0,0.0,6.6643,7.6961,7.7976,7.8957,8.0175,8.031,8.1088,8.2475,8.2543,8.2915,8.3592,8.3592,8.3964,8.4614,8.4614,8.4614,8.4614,8.4614,8.4614,8.4614,8.4614,8.4614,8.4614,8.4614,8.4614,8.4614,8.0818,8.1629,8.2475,8.2644,8.3118,8.3389,8.3016,8.3287,8.3118,8.2035,8.234,8.2678,8.2678,8.2813,8.2923,8.2923,8.3456,8.3998,8.4546,8.4065,8.393,8.4309,8.3287,8.2577,8.2408,8.2408,8.3727,8.6366,8.671,8.7279,8.7989,8.7414,8.7177,8.7177,8.7347,8.6907,8.6061,8.623,8.5418,8.3964,8.3219,8.2475,8.1757,8.0987,8.0716,8.0716,8.0716,8.1088,8.1528,8.1384,8.1663,8.2103,8.1934,8.19,8.1799,8.1393,8.0885,8.0682,8.1629,8.119,8.0581,8.1181,8.0987,8.0818,8.119,8.1587,8.1866,8.2103,8.2881,8.3321,8.278,8.3565,8.4208,8.3828,8.4208,8.4005,8.2306,8.1765,8.0412,7.7275,7.8062,7.9034,7.9372,8.0936,8.004,7.5532,7.5754,7.5822,7.5228,7.266,7.4259,8.0885,8.1799,8.1528,8.0209,8.1325,8.234,8.3253,8.3802,8.4174,8.4343,8.4343,8.4411,8.4614,8.4614,8.4614,8.4614,8.4614,8.4614,8.4614,8.4614,8.4614,8.4614,8.4614,8.4614,8.4614,8.2306,8.2855,8.3396,8.3396,8.3456,8.3389,8.305,8.2712,8.2238,8.1494,8.1697,8.19,8.19,8.2205,8.2408,8.2408,8.278,8.3321,8.4065,8.3727,8.3693,8.4099,8.3355,8.2746,8.2408,8.2408,8.3389,8.5351,8.6061,8.6602,8.6974,8.6569,8.6196,8.5831,8.5831,8.5249,8.4268,8.4606,8.3862,8.2441,8.2069,8.146,8.075,8.0344,8.0209,8.0209,8.0209,8.0445,8.0784,8.0784,8.1054,8.1393,8.1393,8.1393,8.1325,8.0919,8.075,8.0784,8.1257,8.1054,8.0784,8.1215,8.075,8.031,8.0716,8.108,8.152,8.2272,8.2441,8.2577,8.2847,8.3016,8.3084,8.3016,8.278,8.2171,8.0953,8.0513,8.0107,7.9591,8.0851,8.2069,8.2746,8.387,8.2897,7.8765,7.8292,7.8258,7.8461,7.7583,7.8824,8.278,8.2949,8.2577,8.1731,8.2509,8.3084,8.349,8.393,8.4275,8.4614,8.4614,8.4614,8.4614,8.4614,8.4614,8.4614,8.4614,8.4614,8.4614,8.4614,8.4614,8.4614,8.4614,8.4614,8.4546,8.4275,8.4275,8.4309,8.4411,8.393,8.3287,8.2678,8.2035,8.1359,8.0615,8.1054,8.146,8.146,8.2035,8.2374,8.2238,8.2238,8.2543,8.3287,8.3321,8.3321,8.3321,8.3321,8.305,8.2382,8.2408,8.278,8.349,8.4674,8.5344,8.5445,8.5344,8.4911,8.4275,8.4275,8.3498,8.2272,8.2915,8.2374,8.1148,8.1148,8.075,8.0209,8.0209,8.0209,8.0209,8.0209,8.0209,8.0209,8.0209,8.0209,8.0209,8.0209,8.0209,8.0209,8.0209,8.0648,8.1012,8.0378,8.0648,8.1148,8.1148,8.0648,8.0209,8.0209,8.075,8.152,8.2272,8.2002,8.2002,8.3253,8.2577,8.1697,8.1426,8.0818,8.004,7.916,7.9261,7.987,8.0987,8.2069,8.3227,8.4478,8.4614,8.4614,8.4614,8.2746,8.2509,8.4478,8.2035,8.1494,8.3592,8.2949,8.2915,8.3659,8.3558,8.3558,8.3659,8.3659,8.3998,8.4614,8.4614,8.4614,8.4614,8.4614,8.4614,8.4614,8.4614,8.4614,8.4614,8.4614,8.4614,8.4614,8.4614,8.4614,8.4478,8.2746,8.2746,8.2949,8.3558,8.3592,8.3456,8.3355,8.3219,8.2881,8.2171,8.2171,8.2238,8.2238,8.234,8.2171,8.1554,8.146,8.1765,8.2543,8.2577,8.2577,8.2577,8.2577,8.2543,8.2408,8.2408,8.278,8.349,8.3118,8.3253,8.3828,8.3219,8.2881,8.2746,8.2746,8.2272,8.1486,8.1562,8.1156,8.0378,8.0378,8.031,8.0209,8.0209,8.0209,8.0209,8.0209,8.0209,8.0209,8.0209,8.0209,8.0209,8.0209,8.0209,8.0209,8.0209,8.0276,8.0344,8.0242,8.0276,8.0378,8.0378,8.0276,8.0209,8.0209,8.075,8.152,8.2272,8.2813,8.3219,8.3456,8.3828,8.2483,7.7536,7.9194,7.9363,7.4322,7.7841,8.0784,8.0412,8.2652,8.4343,8.458,8.4614,8.4614,8.4614,8.3693,8.3592,8.4546,8.2956,8.2787,8.4377,8.3727,8.3693,8.4411,8.3828,8.3828,8.4411,8.4411,8.4478,8.4614,8.4614,8.4614,8.4614,8.4614,8.4614,8.4614,8.4614,8.4614,8.4614,8.4614,8.4614,8.4614,8.4614,8.4614,8.4478,8.3565,8.3565,8.3667,8.4031,8.3761,8.349,8.349,8.3152,8.278,8.2441,8.2408,8.2408,8.2408,8.2408,8.2272,8.1934,8.19,8.2035,8.2408,8.2035,8.1799,8.1799,8.1799,8.1629,8.1224,8.1224,8.1393,8.1731,8.1765,8.1968,8.2306,8.1968,8.1799,8.1799,8.1393,8.1021,8.0716,8.0716,8.0513,8.0209,8.0209,8.0445,8.075,8.0344,8.0682,8.1325,8.0919,8.1054,8.1393,8.1393,8.1393,8.1393,8.1393,8.1122,8.0784,8.0784,8.0513,8.0276,8.0682,8.0513,8.031,8.0682,8.0479,8.031,8.0682,8.075,8.1021,8.2171,8.2035,8.1832,8.2238,8.2577,8.1934,7.916,7.9837,7.9735,7.6995,7.9295,8.1181,8.0818,8.305,8.4614,8.4614,8.4614,8.4614,8.4614,8.4275,8.4242,8.458,8.3592,8.349,8.458,8.4275,8.4242,8.4614,8.4242,8.4242,8.4614,8.4614,8.4614,8.4614,8.4614,8.4614,8.4614,8.4614,8.4614,8.4614,8.4614,8.4614,8.4614,8.4614,8.4614,8.4614,8.4614,8.4343,8.3896,8.4614,8.4614,8.4614,8.4614,8.4133,8.3761,8.3761,8.3287,8.2889,8.2889,8.2889,8.2889,8.2889,8.2889,8.2821,8.2678,8.2678,8.2577,8.2382,8.1866,8.1562,8.1562,8.1418,8.1021,8.0479,8.0276,8.0209,8.0209,8.075,8.1021,8.1021,8.1021,8.1021,8.1021,8.0445,8.0209,8.0209,8.0378,8.0445,8.0479,8.0648,8.1054,8.1494,8.0919,8.1426,8.234,8.1765,8.19,8.2408,8.2408,8.2408,8.2408,8.2408,8.2002,8.1494,8.1351,8.0784,8.031,8.0885,8.0615,8.0344,8.0885,8.0615,8.0344,8.0919,8.0615,8.0581,8.1866,8.1257,8.0716,8.1629,8.1663,8.1257,8.0437,8.0209,7.9972,7.9261,8.0378,8.1452,8.1791,8.3456,8.4614,8.4614,8.4614,8.4614,8.4614,8.4444,8.4411,8.458,8.3896,8.3862,8.458,8.4614,8.4614,8.4614,8.4614,8.4614,8.4614,8.4614,8.4614,8.4614,8.4614,8.4614,8.4614,8.4614,8.4614,8.4614,8.4614,8.4614,8.4614,8.4614,8.4614,8.458,8.4411,8.3998,8.3355,8.4614,8.4614,8.4614,8.4614,8.4546,8.4512,8.4512,8.4478,8.4444,8.4444,8.4444,8.4444,8.4444,8.4444,8.414,8.349,8.3422,8.3118,8.2441,8.2374,8.234,8.234,8.1663,8.1283,8.1215,8.0547,8.0209,8.0209,8.0242,8.0276,8.0276,8.0276,8.0276,8.0276,8.0209,8.0209,8.0242,8.0919,8.1215,8.1283,8.1968,8.2272,8.2306,8.2272,8.2306,8.2382,8.234,8.2374,8.2408,8.2408,8.2408,8.2408,8.2408,8.2374,8.2171,8.1494,8.0784,8.0209,8.0276,8.0242,8.0209,8.0276,8.0242,8.0209,8.0276,8.0242,8.0412,8.1215,8.1317,8.1655,8.3084,8.278,8.1224,7.7773,7.8889,7.9228,7.642,7.9058,8.1824,8.3186,8.4072,8.4614,8.4614,8.4614,8.4614,8.4614,8.3964,8.3896,8.4546,8.3896,8.3862,8.458,8.4614,8.4614,8.4614,8.4614,8.4614,8.4614,8.4614,8.4614,8.4614,8.4614,8.4614,8.4614,8.4614,8.4614,8.4614,8.4614,8.4614,8.4614,8.4614,8.4614,8.4512,8.3828,8.3558,8.3287,8.4614,8.4614,8.4614,8.4614,8.4614,8.4614,8.4614,8.4614,8.4614,8.4614,8.4614,8.4614,8.4614,8.4614,8.4478,8.4208,8.42,8.4039,8.3768,8.3768,8.3362,8.2441,8.2137,8.1968,8.1968,8.1697,8.1562,8.1562,8.1562,8.1562,8.1562,8.1562,8.1562,8.1562,8.1562,8.1562,8.1596,8.1866,8.1968,8.2002,8.2306,8.2678,8.3016,8.2577,8.2956,8.37,8.3253,8.3389,8.3768,8.3768,8.3768,8.3768,8.3768,8.3456,8.2949,8.2205,8.146,8.0885,8.0885,8.0547,8.0209,8.0209,8.0209,8.031,8.0784,8.0513,8.0547,8.1731,8.1596,8.1486,8.2027,8.2644,8.2475,8.0615,8.1799,8.2517,8.1367,8.2475,8.3558,8.4133,8.4411,8.4614,8.4614,8.4614,8.4614,8.4614,8.4343,8.4275,8.458,8.4309,8.4309,8.458,8.4614,8.4614,8.4614,8.4614,8.4614,8.4614,8.4614,8.4614,8.4614,8.4614,8.4614,8.4614,8.4614,8.4614,8.4546,8.4133,8.393,8.3862,8.3396,8.3227,8.3193,8.2915,8.2543,8.2035,8.4614,8.4614,8.4614,8.4614,8.4614,8.4614,8.4614,8.4614,8.4614,8.4614,8.4614,8.4614,8.4614,8.4614,8.4614,8.4614,8.4614,8.4614,8.4614,8.4614,8.414,8.3126,8.2881,8.2746,8.2746,8.2543,8.2408,8.2408,8.2408,8.2408,8.2408,8.2408,8.2408,8.2408,8.2408,8.2408,8.2441,8.2644,8.2746,8.278,8.3016,8.3389,8.3795,8.3287,8.37,8.4512,8.4031,8.4174,8.4614,8.4614,8.4614,8.4614,8.4614,8.4072,8.3389,8.2881,8.2205,8.1629,8.1629,8.1291,8.0784,8.031,8.0209,8.031,8.0818,8.0547,8.0547,8.1799,8.146,8.1088,8.1562,8.2272,8.278,8.2746,8.3592,8.4343,8.458,8.4614,8.4614,8.4614,8.4614,8.4614,8.4614,8.4614,8.4614,8.4614,8.4614,8.4614,8.4614,8.4614,8.4614,8.4614,8.4614,8.4614,8.4614,8.4614,8.4614,8.4614,8.4614,8.4614,8.4614,8.4614,8.4614,8.458,8.4343,8.4242,8.4174,8.3456,8.3152,8.3084,8.2611,8.2408,8.2374,8.2137,8.1731,8.1283,8.4614,8.4614,8.4614,8.4614,8.4614,8.4614,8.4614,8.4614,8.4614,8.4614,8.4614,8.4614,8.4614,8.4614,8.4614,8.4614,8.4614,8.4614,8.4614,8.4614,8.4614,8.4614,8.3896,8.3524,8.3524,8.278,8.2441,8.2441,8.2441,8.2441,8.2441,8.2441,8.2441,8.2441,8.2441,8.2441,8.2475,8.3186,8.3524,8.3558,8.4309,8.4614,8.4614,8.4614,8.4614,8.4614,8.4614,8.4614,8.4614,8.4614,8.4614,8.4614,8.4614,8.4099,8.3524,8.3524,8.2983,8.2408,8.2408,8.2408,8.2069,8.0581,8.0209,8.0209,8.0209,8.0209,8.0412,8.1148,8.0716,8.0648,8.2137,8.1799,8.1791,8.3253,8.349,8.3761,8.4478,8.4614,8.4614,8.4614,8.4614,8.4614,8.4614,8.458,8.458,8.458,8.458,8.458,8.458,8.458,8.458,8.458,8.458,8.458,8.458,8.458,8.4614,8.4614,8.4614,8.4614,8.4614,8.458,8.458,8.4546,8.3828,8.349,8.3422,8.2712,8.2408,8.2408,8.2408,8.2408,8.2306,8.1562,8.1317,8.1215,8.4715,8.4614,8.4614,8.4614,8.4614,8.4614,8.4614,8.4614,8.4614,8.4614,8.4614,8.4614,8.4614,8.4614,8.4614,8.4614,8.4614,8.4614,8.4614,8.4614,8.4614,8.4614,8.4377,8.4275,8.4275,8.4039,8.3937,8.3937,8.3937,8.3937,8.3937,8.3937,8.3937,8.3937,8.3937,8.3937,8.3937,8.4174,8.4275,8.4275,8.4512,8.4614,8.4614,8.4614,8.4614,8.4614,8.4614,8.4614,8.4614,8.4614,8.4614,8.4614,8.4614,8.4444,8.4275,8.4275,8.3761,8.3186,8.3186,8.278,8.2171,8.119,8.0953,8.0818,8.031,8.0209,8.0412,8.1148,8.1114,8.1088,8.1528,8.1866,8.2238,8.2678,8.3152,8.3761,8.4478,8.4614,8.4614,8.4614,8.4614,8.4614,8.4614,8.4133,8.3828,8.3828,8.3355,8.3058,8.3058,8.3058,8.3058,8.3058,8.3058,8.3058,8.3058,8.4072,8.4614,8.4614,8.4614,8.4614,8.458,8.4065,8.3828,8.3795,8.305,8.2746,8.2678,8.1934,8.1629,8.1562,8.1054,8.0851,8.0818,8.0615,8.0513,8.0479,8.5527,8.5493,8.5425,8.5148,8.508,8.4979,8.4647,8.4614,8.4614,8.4614,8.4614,8.4614,8.4614,8.4614,8.4614,8.4614,8.4614,8.4614,8.4614,8.4614,8.4614,8.4614,8.4614,8.4614,8.4614,8.4614,8.4614,8.4614,8.4614,8.4614,8.4614,8.4614,8.4614,8.4614,8.4614,8.4614,8.4614,8.4614,8.4614,8.4614,8.4614,8.4614,8.4614,8.4614,8.4614,8.4614,8.4614,8.4614,8.4614,8.4614,8.4614,8.4614,8.4614,8.4614,8.4614,8.4614,8.4275,8.3964,8.3964,8.3625,8.3118,8.234,8.1731,8.1156,8.0716,8.0412,8.0412,8.1148,8.108,8.0953,8.1249,8.1663,8.1968,8.1968,8.2577,8.3219,8.3667,8.3734,8.3734,8.3734,8.3734,8.3734,8.3734,8.3355,8.305,8.305,8.2644,8.2408,8.2408,8.2408,8.2408,8.2408,8.2408,8.2408,8.2408,8.3261,8.3734,8.3734,8.3734,8.3734,8.37,8.3287,8.305,8.3016,8.2306,8.1968,8.19,8.1156,8.0851,8.0818,8.0378,8.0209,8.0209,8.0209,8.0209,8.0209,8.6771,8.6907,8.6704,8.5993,8.5919,8.5621,8.4817,8.4715,8.4681,8.4614,8.4614,8.4614,8.4614,8.4614,8.4614,8.4614,8.4614,8.4614,8.4614,8.4614,8.4614,8.4614,8.4614,8.4614,8.4614,8.4614,8.4614,8.4614,8.4614,8.4614,8.4614,8.4614,8.4614,8.4614,8.4614,8.4614,8.4614,8.4614,8.4614,8.4614,8.4614,8.4614,8.4614,8.4614,8.4614,8.4614,8.4614,8.4614,8.4614,8.4614,8.4614,8.4614,8.4614,8.4614,8.4614,8.4614,8.4614,8.4614,8.4614,8.4614,8.4444,8.3761,8.2543,8.1486,8.1418,8.0885,8.0581,8.1257,8.0851,8.0581,8.1215,8.1317,8.1317,8.1317,8.1866,8.234,8.2408,8.2408,8.2408,8.2408,8.2408,8.2408,8.2408,8.234,8.2272,8.2205,8.2205,8.2205,8.2205,8.2205,8.2205,8.2205,8.2205,8.2205,8.2205,8.2205,8.2272,8.2408,8.2408,8.2408,8.2408,8.234,8.2306,8.2272,8.1528,8.1215,8.1148,8.0479,8.0209,8.0209,8.0209,8.0209,8.0209,8.0209,8.0209,8.0209,8.6974,8.6907,8.6873,8.6704,8.667,8.6399,8.5655,8.552,8.5317,8.4681,8.4614,8.4614,8.4614,8.4614,8.4614,8.4614,8.4614,8.4614,8.4614,8.4614,8.4614,8.4614,8.4614,8.4614,8.4614,8.4614,8.4614,8.4614,8.4614,8.4614,8.4614,8.4614,8.4614,8.4614,8.4614,8.4614,8.4614,8.4614,8.4614,8.4614,8.4614,8.4614,8.4614,8.4614,8.4614,8.4614,8.4614,8.4614,8.4614,8.4614,8.4614,8.4614,8.4614,8.4614,8.4614,8.4614,8.4614,8.4614,8.4614,8.4614,8.4546,8.4377,8.3693,8.2881,8.2306,8.2035,8.1968,8.2137,8.2035,8.1799,8.1384,8.1317,8.1317,8.1317,8.1426,8.1731,8.234,8.2408,8.2408,8.2408,8.2408,8.2408,8.2408,8.1866,8.1291,8.0716,8.0682,8.0682,8.0682,8.0682,8.0682,8.0682,8.0682,8.0682,8.0682,8.0682,8.1257,8.2408,8.2408,8.2408,8.2408,8.1799,8.1528,8.1494,8.075,8.0445,8.0412,8.0276,8.0209,8.0209,8.0209,8.0209,8.0209,8.0209,8.0209,8.0209,8.7955,8.7955,8.7854,8.7482,8.7414,8.7177,8.6433,8.6332,8.6163,8.573,8.5418,8.5182,8.5182,8.4817,8.4614,8.4614,8.4614,8.4614,8.4614,8.4614,8.4614,8.4614,8.4614,8.4614,8.4614,8.4614,8.4614,8.4614,8.4614,8.4614,8.4614,8.4614,8.4614,8.4614,8.4614,8.4614,8.4614,8.4614,8.4614,8.4614,8.4614,8.4614,8.4614,8.4614,8.4614,8.4614,8.4614,8.4614,8.4614,8.4614,8.4614,8.4614,8.4614,8.4614,8.4614,8.4614,8.4614,8.4614,8.4614,8.4614,8.4614,8.4614,8.4309,8.3828,8.3084,8.2644,8.2408,8.2408,8.2408,8.2306,8.19,8.1528,8.1317,8.1317,8.0987,8.0919,8.1291,8.1359,8.1359,8.1359,8.1359,8.1359,8.1359,8.0987,8.0615,8.0242,8.0209,8.0209,8.0209,8.0209,8.0209,8.0209,8.0209,8.0209,8.0209,8.0209,8.0581,8.1359,8.1359,8.1359,8.1359,8.0953,8.0784,8.075,8.0378,8.0209,8.0209,8.0209,8.0209,8.0209,8.0209,8.0209,8.0209,8.0209,8.0209,8.0209,8.8998,8.91,8.8931,8.8294,8.8192,8.7955,8.7211,8.711,8.7042,8.6941,8.6366,8.5993,8.5993,8.5384,8.4918,8.4817,8.4783,8.4749,8.4614,8.4614,8.4614,8.4614,8.4614,8.4614,8.4614,8.4614,8.4614,8.4614,8.4614,8.4614,8.4614,8.4614,8.4614,8.4614,8.4614,8.4614,8.4614,8.4614,8.4614,8.4614,8.4614,8.4614,8.4614,8.4614,8.4614,8.4614,8.4614,8.4614,8.4614,8.4614,8.4614,8.4614,8.4614,8.4614,8.4614,8.4614,8.4614,8.4614,8.4614,8.4614,8.4614,8.4614,8.4614,8.4444,8.3828,8.3219,8.278,8.278,8.278,8.2746,8.2611,8.2069,8.1629,8.152,8.0851,8.0378,8.0378,8.0276,8.0209,8.0209,8.0209,8.0209,8.0209,8.0209,8.0209,8.0209,8.0209,8.0209,8.0209,8.0209,8.0209,8.0209,8.0209,8.0209,8.0209,8.0209,8.0209,8.0209,8.0209,8.0209,8.0209,8.0209,8.0209,8.0209,8.0209,8.0209,8.0209,8.0209,8.0209,8.0209,8.0209,8.0209,8.0209,8.0209,8.0209,8.0209,8.91,8.91,8.9066,8.8998,8.8965,8.87,8.7955,8.7854,8.7617,8.6981,8.6805,8.6771,8.6771,8.6643,8.6332,8.5689,8.5621,8.5351,8.4647,8.4614,8.4614,8.4614,8.4614,8.4614,8.4614,8.4614,8.4614,8.4614,8.4614,8.4614,8.4614,8.4614,8.4614,8.4614,8.4614,8.4614,8.4614,8.4614,8.4614,8.4614,8.4614,8.4614,8.4614,8.4614,8.4614,8.4614,8.4614,8.4614,8.4614,8.4614,8.4614,8.4614,8.4614,8.4614,8.4614,8.4614,8.4614,8.4614,8.4614,8.4614,8.4614,8.4614,8.4614,8.458,8.4478,8.4377,8.4309,8.4309,8.4309,8.4106,8.3456,8.3253,8.2983,8.234,8.1629,8.1148,8.1148,8.0581,8.0209,8.0209,8.0209,8.0209,8.0209,8.0209,8.0209,8.0209,8.0209,8.0209,8.0209,8.0209,8.0209,8.0209,8.0209,8.0209,8.0209,8.0209,8.0209,8.0209,8.0209,8.0209,8.0209,8.0209,8.0209,8.0209,8.0209,8.0209,8.0209,8.0209,8.0209,8.0209,8.0209,8.0209,8.0209,8.0209,8.0209,8.0209,8.91,8.91,8.91,8.91,8.91,8.8998,8.8632,8.8598,8.8497,8.8158,8.7753,8.7516,8.7516,8.7144,8.6771,8.6433,8.6027,8.5621,8.5283,8.485,8.4614,8.4614,8.4614,8.4614,8.4614,8.4614,8.4614,8.4614,8.4614,8.4614,8.4614,8.4614,8.4614,8.4614,8.508,8.5283,8.5283,8.5283,8.5283,8.5249,8.4783,8.4614,8.4614,8.4614,8.4614,8.4614,8.4614,8.4614,8.4614,8.4614,8.4614,8.4614,8.4614,8.4614,8.4614,8.4614,8.4614,8.4614,8.4614,8.4614,8.4614,8.4614,8.4614,8.4614,8.4614,8.4614,8.4614,8.4614,8.4614,8.4512,8.4174,8.3795,8.3389,8.3084,8.2408,8.19,8.19,8.1629,8.1291,8.0851,8.0445,8.0209,8.0209,8.0209,8.0209,8.0209,8.0209,8.0209,8.0209,8.0209,8.0209,8.0209,8.0209,8.0209,8.0209,8.0209,8.0209,8.0209,8.0209,8.0209,8.0209,8.0209,8.0209,8.0209,8.0209,8.0209,8.0209,8.0209,8.0209,8.0209,8.0209,8.0209,8.0209,8.0209,8.0209,8.0209]}]]